[[{"header":{"parameterUnit":"m.s-1","parameterCategory":1,"la1":30.6,"la2":28.766,"lo1":-90.7593,"lo2":-88.6598,"dy":0.0162,"dx":0.0183,"nx":116,"ny":114,"refTime":"2023-05-27T06:00:00:Z","depth":0,"parameterNumber":2,"parameterNumberName":"U-component_of_WINDS"},"data":[0.0,0.0,0.0,0.0,0.0,0.0,0.0,0.0,0.0,0.0,0.0,0.0,0.0,0.0,0.0,0.0,0.0,0.0,0.0,0.0,0.0,0.0,0.0,0.0,0.0,0.0,0.0,0.0,0.0,0.0,0.0,0.0,0.0,0.0,0.0,0.0,0.0,0.0,0.0,0.0,0.0,0.0,0.0,0.0,0.0,0.0,0.0,0.0,0.0,0.0,0.0,0.0,0.0,0.0,0.0,0.0,0.0,0.0,0.0,0.0,0.0,0.0,0.0,0.0,0.0,0.0,0.0,0.0,0.0,0.0,0.0,0.0,0.0,0.0,0.0,0.0,0.0,0.0,0.0,0.0,0.0,0.0,0.0,0.0,0.0,0.0,0.0,0.0,0.0,0.0,0.0,0.0,0.0,0.0,0.0,0.0,0.0,0.0,0.0,0.0,0.0,0.0,0.0,0.0,0.0,0.0,0.0,0.0,0.0,0.0,0.0,0.0,0.0,0.0,0.0,0.0,0.0,0.0,0.0,0.0,0.0,0.0,0.0,0.0,0.0,0.0,0.0,0.0,0.0,0.0,0.0,0.0,0.0,0.0,0.0,0.0,0.0,0.0,0.0,0.0,0.0,0.0,0.0,0.0,0.0,0.0,0.0,0.0,0.0,0.0,0.0,0.0,0.0,0.0,0.0,0.0,0.0,0.0,0.0,0.0,0.0,0.0,0.0,0.0,0.0,0.0,0.0,0.0,0.0,0.0,0.0,0.0,0.0,0.0,0.0,0.0,0.0,0.0,0.0,0.0,0.0,0.0,0.0,0.0,0.0,0.0,0.0,0.0,0.0,0.0,0.0,0.0,0.0,0.0,0.0,0.0,0.0,0.0,0.0,0.0,0.0,0.0,0.0,0.0,0.0,0.0,0.0,0.0,0.0,0.0,0.0,0.0,0.0,0.0,0.0,0.0,0.0,0.0,0.0,0.0,0.0,0.0,0.0,0.0,0.0,0.0,0.0,0.0,0.0,0.0,0.0,0.0,0.0,0.0,0.0,0.0,0.0,0.0,0.0,0.0,0.0,0.0,0.0,0.0,0.0,0.0,0.0,0.0,0.0,0.0,0.0,0.0,0.0,0.0,0.0,0.0,0.0,0.0,0.0,0.0,0.0,0.0,0.0,0.0,0.0,0.0,0.0,0.0,0.0,0.0,0.0,0.0,0.0,0.0,0.0,0.0,0.0,0.0,0.0,0.0,0.0,0.0,0.0,0.0,0.0,0.0,0.0,0.0,0.0,0.0,0.0,0.0,0.0,0.0,0.0,0.0,0.0,0.0,0.0,0.0,0.0,0.0,0.0,0.0,0.0,0.0,0.0,0.0,0.0,0.0,0.0,0.0,0.0,0.0,0.0,0.0,0.0,0.0,0.0,0.0,0.0,0.0,0.0,0.0,0.0,0.0,0.0,0.0,0.0,0.0,0.0,0.0,0.0,0.0,0.0,0.0,0.0,0.0,0.0,0.0,0.0,0.0,0.0,0.0,0.0,0.0,0.0,0.0,0.0,0.0,0.0,0.0,0.0,0.0,0.0,0.0,0.0,0.0,0.0,0.0,0.0,0.0,0.0,0.0,0.0,0.0,0.0,0.0,0.0,0.0,0.0,0.0,0.0,0.0,0.0,0.0,0.0,0.0,0.0,0.0,0.0,0.0,0.0,0.0,0.0,0.0,0.0,0.0,0.0,0.0,0.0,0.0,0.0,0.0,0.0,0.0,0.0,0.0,0.0,0.0,0.0,0.0,0.0,0.0,0.0,0.0,0.0,0.0,0.0,0.0,0.0,0.0,0.0,0.0,0.0,0.0,0.0,0.0,0.0,0.0,0.0,0.0,0.0,0.0,0.0,0.0,0.0,0.0,0.0,0.0,0.0,0.0,0.0,0.0,0.0,0.0,0.0,0.0,0.0,0.0,0.0,0.0,0.0,0.0,0.0,0.0,0.0,0.0,0.0,0.0,0.0,0.0,0.0,0.0,0.0,0.0,0.0,0.0,0.0,0.0,0.0,0.0,0.0,0.0,0.0,0.0,0.0,0.0,0.0,0.0,0.0,0.0,0.0,0.0,0.0,0.0,0.0,0.0,0.0,0.0,0.0,0.0,0.0,0.0,0.0,0.0,0.0,0.0,0.0,0.0,0.0,0.0,0.0,0.0,0.0,0.0,0.0,0.0,0.0,0.0,0.0,0.0,0.0,0.0,0.0,0.0,0.0,0.0,0.0,0.0,0.0,0.0,0.0,0.0,0.0,0.0,0.0,0.0,0.0,0.0,0.0,0.0,0.0,0.0,0.0,0.0,0.0,0.0,0.0,0.0,0.0,0.0,0.0,0.0,0.0,0.0,0.0,0.0,0.0,0.0,0.0,0.0,0.0,0.0,0.0,0.0,0.0,0.0,0.0,0.0,0.0,0.0,0.0,0.0,0.0,0.0,0.0,0.0,0.0,0.0,0.0,0.0,0.0,0.0,0.0,0.0,0.0,0.0,0.0,0.0,0.0,0.0,0.0,0.0,0.0,0.0,0.0,0.0,0.0,0.0,0.0,0.0,0.0,0.0,0.0,0.0,0.0,0.0,0.0,0.0,0.0,0.0,0.0,0.0,0.0,0.0,0.0,0.0,0.0,0.0,0.0,0.0,0.0,0.0,0.0,0.0,0.0,0.0,0.0,0.0,0.0,0.0,0.0,0.0,0.0,0.0,0.0,0.0,0.0,0.0,0.0,0.0,0.0,0.0,0.0,0.0,0.0,0.0,0.0,0.0,0.0,0.0,0.0,0.0,0.0,0.0,0.0,0.0,0.0,0.0,0.0,0.0,0.0,0.0,0.0,0.0,0.0,0.0,0.0,0.0,0.0,0.0,0.0,0.0,0.0,0.0,0.0,0.0,0.0,0.0,0.0,0.0,0.0,0.0,0.0,0.0,0.0,0.0,0.0,0.0,0.0,0.0,0.0,0.0,0.0,0.0,0.0,0.0,0.0,0.0,0.0,0.0,0.0,0.0,0.0,0.0,0.0,0.0,0.0,0.0,0.0,0.0,0.0,0.0,0.0,0.0,0.0,0.0,0.0,0.0,0.0,0.0,0.0,0.0,0.0,0.0,0.0,0.0,0.0,0.0,0.0,0.0,0.0,0.0,0.0,0.0,0.0,0.0,0.0,0.0,0.0,0.0,0.0,0.0,0.0,0.0,0.0,0.0,0.0,0.0,0.0,0.0,0.0,0.0,0.0,0.0,0.0,0.0,0.0,0.0,0.0,0.0,0.0,0.0,0.0,0.0,0.0,0.0,0.0,0.0,0.0,0.0,0.0,0.0,0.0,0.0,0.0,0.0,0.0,0.0,0.0,0.0,0.0,0.0,0.0,0.0,0.0,0.0,0.0,0.0,0.0,0.0,0.0,0.0,0.0,0.0,0.0,0.0,0.0,0.0,0.0,0.0,0.0,0.0,0.0,0.0,0.0,0.0,0.0,0.0,0.0,0.0,0.0,0.0,0.0,0.0,0.0,0.0,0.0,0.0,0.0,0.0,0.0,0.0,0.0,0.0,0.0,0.0,0.0,0.0,0.0,0.0,0.0,0.0,0.0,0.0,0.0,0.0,0.0,0.0,0.0,0.0,0.0,0.0,0.0,0.0,0.0,0.0,0.0,0.0,0.0,0.0,0.0,0.0,0.0,0.0,0.0,0.0,0.0,0.0,0.0,0.0,0.0,0.0,0.0,0.0,0.0,0.0,0.0,0.0,0.0,0.0,0.0,0.0,0.0,0.0,0.0,0.0,0.0,0.0,0.0,0.0,0.0,0.0,0.0,0.0,0.0,0.0,0.0,0.0,0.0,0.0,0.0,0.0,0.0,0.0,0.0,0.0,0.0,0.0,0.0,0.0,0.0,0.0,0.0,0.0,0.0,0.0,0.0,0.0,0.0,0.0,0.0,0.0,0.0,0.0,0.0,0.0,0.0,0.0,0.0,0.0,0.0,0.0,0.0,0.0,0.0,0.0,0.0,0.0,0.0,0.0,0.0,0.0,0.0,0.0,0.0,0.0,0.0,0.0,0.0,0.0,0.0,0.0,0.0,0.0,0.0,0.0,0.0,0.0,0.0,0.0,0.0,0.0,0.0,0.0,0.0,0.0,0.0,0.0,0.0,0.0,0.0,0.0,0.0,0.0,0.0,0.0,0.0,0.0,0.0,0.0,0.0,0.0,0.0,0.0,0.0,0.0,0.0,0.0,0.0,0.0,0.0,0.0,0.0,0.0,0.0,0.0,0.0,0.0,0.0,0.0,0.0,0.0,0.0,0.0,0.0,0.0,0.0,0.0,0.0,0.0,0.0,0.0,0.0,0.0,0.0,0.0,0.0,0.0,0.0,0.0,0.0,0.0,0.0,0.0,0.0,0.0,0.0,0.0,0.0,0.0,0.0,0.0,0.0,0.0,0.0,0.0,0.0,0.0,0.0,0.0,0.0,0.0,0.0,0.0,0.0,0.0,0.0,0.0,0.0,0.0,0.0,0.0,0.0,0.0,0.0,0.0,0.0,0.0,0.0,0.0,0.0,0.0,0.0,0.0,0.0,0.0,0.0,0.0,0.0,0.0,0.0,0.0,0.0,0.0,0.0,0.0,0.0,0.0,0.0,0.0,0.0,0.0,0.0,0.0,0.0,0.0,0.0,0.0,0.0,0.0,0.0,0.0,0.0,0.0,0.0,0.0,0.0,0.0,0.0,0.0,0.0,0.0,0.0,0.0,0.0,0.0,0.0,0.0,0.0,0.0,0.0,0.0,0.0,0.0,0.0,0.0,0.0,0.0,0.0,0.0,0.0,0.0,0.0,0.0,0.0,0.0,0.0,0.0,0.0,0.0,0.0,0.0,0.0,0.0,0.0,0.0,0.0,0.0,0.0,0.0,0.0,0.0,0.0,0.0,0.0,0.0,0.0,0.0,0.0,0.0,0.0,0.0,0.0,0.0,0.0,0.0,0.0,0.0,0.0,0.0,0.0,0.0,0.0,0.0,0.0,0.0,0.0,0.0,0.0,0.0,0.0,0.0,0.0,0.0,0.0,0.0,0.0,0.0,0.0,0.0,0.0,0.0,0.0,0.0,0.0,0.0,0.0,0.0,0.0,0.0,0.0,0.0,0.0,0.0,0.0,0.0,0.0,0.0,0.0,0.0,0.0,0.0,0.0,0.0,0.0,0.0,0.0,0.0,0.0,0.0,0.0,0.0,0.0,0.0,0.0,0.0,0.0,0.0,0.0,0.0,0.0,0.0,0.0,0.0,0.0,0.0,0.0,0.0,0.0,0.0,0.0,0.0,0.0,0.0,0.0,0.0,0.0,0.0,0.0,0.0,0.0,0.0,0.0,0.0,0.0,0.0,0.0,0.0,0.0,0.0,0.0,0.0,0.0,0.0,0.0,0.0,0.0,0.0,0.0,0.0,0.0,0.0,0.0,0.0,0.0,0.0,0.0,0.0,0.0,0.0,0.0,0.0,0.0,0.0,0.0,0.0,0.0,0.0,0.0,0.0,0.0,0.0,0.0,0.0,0.0,0.0,0.0,0.0,0.0,0.0,0.0,0.0,0.0,0.0,0.0,0.0,0.0,0.0,0.0,0.0,0.0,0.0,0.0,0.0,0.0,0.0,0.0,0.0,0.0,0.0,0.0,0.0,0.0,0.0,0.0,0.0,0.0,0.0,0.0,0.0,0.0,0.0,0.0,0.0,0.0,0.0,0.0,0.0,0.0,0.0,0.0,0.0,0.0,0.0,0.0,0.0,0.0,0.0,0.0,0.0,0.0,0.0,0.0,0.0,0.0,0.0,0.0,0.0,0.0,0.0,0.0,0.0,0.0,0.0,0.0,0.0,0.0,0.0,0.0,0.0,0.0,0.0,0.0,0.0,0.0,0.0,0.0,0.0,0.0,0.0,0.0,0.0,0.0,0.0,0.0,0.0,0.0,0.0,0.0,0.0,0.0,0.0,0.0,0.0,0.0,0.0,0.0,0.0,0.0,0.0,0.0,0.0,0.0,0.0,0.0,0.0,0.0,0.0,0.0,0.0,0.0,0.0,0.0,0.0,0.0,0.0,0.0,0.0,-0.8608,0.0,0.0,0.0,0.0,0.0,0.0,0.0,0.0,0.0,0.0,0.0,0.0,0.0,0.0,0.0,0.0,0.0,0.0,0.0,0.0,0.0,0.0,0.0,0.0,0.0,0.0,0.0,0.0,0.0,0.0,0.0,0.0,0.0,0.0,0.0,0.0,0.0,0.0,0.0,1.8785,1.8551,1.8182,1.8236,1.8014,1.7576,0.0,0.0,0.0,0.0,0.0,0.0,0.0,0.0,0.0,0.0,0.0,0.0,0.0,0.0,0.0,0.0,0.0,0.0,0.0,0.0,0.0,0.0,0.0,0.0,0.0,0.0,0.0,0.0,0.0,0.0,0.0,0.0,0.0,0.0,0.0,0.0,0.0,0.0,0.0,0.0,0.0,0.0,0.0,0.0,0.0,0.0,0.0,0.0,0.0,0.0,0.0,0.0,0.0,0.0,0.0,0.0,0.0,0.0,0.0,0.0,0.0,0.0,0.0,0.0,0.0,0.0,0.0,0.0,0.0,0.0,0.0,-0.9001,0.0,0.0,0.0,0.0,0.0,0.0,0.0,0.0,0.0,0.0,0.0,0.0,0.0,0.0,0.0,0.0,0.0,0.0,0.0,0.0,0.0,0.0,0.0,1.9786,1.9609,1.9555,1.935,1.9166,0.0,0.0,0.0,0.0,0.0,0.0,0.0,1.8771,1.8739,1.8949,1.8732,1.8349,1.7821,1.8304,1.8085,1.7347,1.7508,0.0,0.0,0.0,0.0,0.0,0.0,0.0,0.0,0.0,0.0,0.0,0.0,0.0,0.0,0.0,0.0,0.0,0.0,0.0,0.0,0.0,0.0,0.0,0.0,0.0,0.0,0.0,0.0,0.0,0.0,0.0,0.0,0.0,0.0,0.0,0.0,0.0,0.0,0.0,0.0,0.0,0.0,0.0,0.0,0.0,0.0,0.0,0.0,0.0,0.0,0.0,0.0,0.0,0.0,0.0,0.0,0.0,0.0,0.0,0.0,0.0,0.0,0.0,-1.5488,-1.5897,-1.6054,-1.6483,-1.6594,-1.6265,-1.3179,-1.1227,-1.012,-0.8986,0.0,0.0,0.0,0.0,0.0,0.0,0.0,0.0,0.0,0.0,0.0,0.0,0.0,0.0,0.0,0.0,0.0,0.0,0.0,0.0,0.0,1.9869,1.9626,1.9276,1.9113,1.8913,1.8678,0.0,0.0,0.0,0.0,0.0,1.9002,1.8852,1.8507,1.7989,1.7713,1.7831,1.83,1.7686,1.7433,1.7444,1.6683,1.6281,1.6174,0.0,0.0,0.0,0.0,0.0,0.0,0.0,0.0,0.0,0.0,0.0,0.0,0.0,0.0,0.0,0.0,0.0,0.0,0.0,0.0,0.0,0.0,0.0,0.0,0.0,0.0,0.0,0.0,0.0,0.0,0.0,0.0,0.0,0.0,0.0,0.0,0.0,0.0,0.0,0.0,0.0,1.6233,1.4271,0.0,0.0,0.0,0.0,0.0,0.0,0.0,0.0,0.0,0.0,0.0,0.0,0.0,-1.272,-1.2671,-1.3489,-1.4141,-1.4606,-1.2791,-1.2178,-1.2652,-1.2659,-1.1763,-1.0302,-1.2355,0.0,-1.2187,-1.0701,0.0,0.0,0.0,0.0,0.0,0.0,0.0,0.0,0.0,0.0,0.0,0.0,0.0,0.0,0.0,0.0,0.0,0.0,0.0,0.0,0.0,2.0022,1.9745,1.9346,1.9018,1.8682,1.834,1.8073,0.0,0.0,0.0,1.8533,1.899,1.7865,1.6943,1.6222,1.6517,1.6783,1.6987,1.6749,1.6478,1.6175,1.569,1.5345,1.5107,1.4963,0.0,0.0,0.0,0.0,0.0,0.0,0.0,0.0,0.0,0.0,0.0,0.0,0.0,0.0,0.0,0.0,0.0,0.0,0.0,0.0,0.0,0.0,0.0,0.0,0.0,0.0,0.0,0.0,0.0,0.0,0.0,0.0,0.0,0.0,0.0,0.0,0.0,0.0,0.0,1.7672,1.6715,1.4875,1.4968,1.5257,0.0,0.0,0.0,0.0,0.0,0.0,0.0,0.0,0.0,-0.6059,-0.84,-0.9326,-0.8804,-0.9114,-0.9109,-0.8748,-0.804,-0.7767,-0.7828,-0.7701,-0.7125,-0.6258,-0.6245,-0.6204,-0.6391,-0.9956,-1.0715,-0.9821,0.0,0.0,0.0,0.0,-1.6176,-1.5708,0.0,0.0,0.0,0.0,0.0,0.0,0.0,0.0,0.0,0.0,0.0,0.0,2.0308,2.0111,1.9812,1.9345,1.8781,1.8248,1.7778,1.7552,1.7652,1.8091,1.827,1.8372,1.845,1.644,1.5181,1.4776,1.5261,1.5651,1.598,1.6018,1.5855,1.5512,1.4978,1.4637,1.4355,1.3947,1.3775,1.3845,0.0,0.0,0.0,0.0,0.0,0.0,0.0,0.0,0.0,0.0,0.0,0.0,0.0,0.0,0.0,0.0,0.0,0.0,0.0,0.0,0.0,0.0,0.0,0.0,0.0,0.0,0.0,0.0,0.0,0.0,0.0,0.0,0.0,0.0,0.0,0.0,0.0,1.7758,1.6911,1.5245,1.5151,1.5323,0.0,0.0,0.0,0.0,0.0,0.0,0.5865,0.415,0.1119,-0.3716,-0.4339,-0.4332,-0.3785,-0.3746,-0.3361,-0.2645,-0.2378,-0.2254,-0.2275,-0.2255,-0.1922,-0.1255,0.0382,0.0881,-0.0,-0.6893,-0.968,-0.9832,-1.2173,-1.3721,-1.4769,-1.5714,-1.6223,-1.6516,0.0,0.0,0.0,0.0,0.0,0.0,0.0,0.0,0.0,0.0,0.0,2.0308,2.0308,2.0114,1.9742,1.9076,1.8226,1.7463,1.6797,1.6754,1.6938,1.7342,1.789,1.7826,1.7023,1.4656,1.3669,1.4166,1.3936,1.4617,1.6182,1.5792,1.5921,1.6362,1.4753,1.4187,1.4328,1.3511,1.2864,1.2399,1.2519,0.0,0.0,0.0,0.0,0.0,0.0,0.0,0.0,0.0,0.0,0.0,0.0,0.0,0.0,0.0,0.0,0.0,0.0,0.0,0.0,0.0,0.0,0.0,0.0,0.0,0.0,0.0,0.0,0.0,0.0,0.0,0.0,0.0,0.0,0.0,0.0,0.0,0.0,1.4829,1.6453,0.0,0.0,0.0,0.0,1.5598,1.3047,1.0588,0.8423,0.5554,0.3081,0.1197,0.1119,0.1104,0.1153,0.2128,0.2305,0.1627,0.4097,0.4821,0.4029,0.3538,0.4345,0.6133,0.5819,0.5299,0.4277,-0.0941,-0.4591,-0.7301,-1.1408,-1.408,-1.5711,-1.6266,-1.5979,-1.5239,0.0,0.0,0.0,0.0,0.0,0.0,0.0,0.0,2.0089,1.9485,1.9707,1.9737,1.9253,1.9569,1.9624,1.9175,1.836,1.7451,1.645,1.662,1.6697,1.6604,1.6921,1.5896,1.3291,1.2765,1.2443,1.2308,1.2841,1.4303,1.6494,1.545,1.5954,1.7661,1.62,1.5904,1.6362,1.3601,1.2207,1.1895,1.2236,1.233,0.0,0.0,0.0,0.0,0.0,0.0,0.0,0.0,0.0,0.0,0.0,0.0,0.0,0.0,0.0,0.0,0.0,0.0,0.0,0.0,0.0,0.0,0.0,0.0,0.0,0.0,0.0,0.0,0.0,0.0,0.0,0.0,0.0,0.0,0.0,0.0,0.0,1.7433,1.6729,0.0,1.6635,1.5859,1.5272,1.5124,1.365,1.2152,1.0747,1.0191,0.9321,0.8025,0.8348,0.8671,0.9029,0.9059,0.9269,0.9701,0.9872,0.994,0.9805,0.8888,0.934,1.0825,1.0735,1.0728,1.0684,0.9293,0.4487,-0.2238,-0.4612,-0.6824,-0.8645,-0.8315,-0.847,-0.8699,0.0,0.0,0.0,0.0,0.0,0.0,0.0,0.0,1.9824,1.9107,1.9297,1.9307,1.8785,1.931,1.958,1.9327,1.8324,1.7399,1.6752,1.6697,1.6586,1.6309,1.5776,1.425,1.1565,1.165,1.1744,1.1815,1.277,1.4405,1.665,1.5826,1.641,1.8087,1.7209,1.7108,1.745,1.4738,1.3044,1.2129,1.2165,1.1945,1.1712,0.0,0.0,0.0,0.0,0.0,0.0,0.0,0.0,0.0,0.0,0.0,0.0,0.0,0.0,0.0,0.0,0.0,0.0,0.0,0.0,0.0,0.0,0.0,0.0,0.0,0.0,0.0,0.0,0.0,0.0,0.0,0.0,0.0,0.0,0.0,1.8103,1.8524,1.7507,1.7025,1.7643,1.6337,1.5314,1.5022,1.4555,1.3929,1.3074,1.3717,1.3831,1.3201,1.3438,1.3758,1.4118,1.3754,1.3874,1.4392,1.3819,1.3608,1.3727,1.3145,1.3374,1.4212,1.4127,1.4235,1.4494,1.4823,1.1002,0.4632,0.178,-0.0943,-0.3167,-0.2582,-0.2783,-0.3286,0.0,0.0,0.0,0.0,0.0,0.0,0.0,1.9954,1.9567,1.9192,1.9095,1.9021,1.8948,1.9367,1.9618,1.9507,1.8036,1.7292,1.7671,1.6922,1.6446,1.6386,1.4511,1.3004,1.2069,1.141,1.1628,1.2851,1.3728,1.5018,1.6677,1.697,1.7301,1.7673,1.7657,1.7623,1.7577,1.687,1.5344,1.3274,1.2189,1.1713,1.1633,0.0,0.0,0.0,0.0,0.0,0.0,0.0,0.0,0.0,0.0,0.0,0.0,0.0,0.0,0.0,0.0,0.0,0.0,0.0,0.0,0.0,0.0,0.0,0.0,0.0,0.0,0.0,0.0,0.0,0.0,0.0,0.0,0.0,1.7791,1.8082,1.8171,1.7814,1.8903,1.9179,1.786,1.7736,1.7025,1.5382,1.574,1.5787,1.5297,1.576,1.6165,1.6346,1.6158,1.6056,1.6014,1.6015,1.5805,1.5351,1.5759,1.5841,1.569,1.6165,1.6392,1.6373,1.5835,1.5524,1.5388,1.5038,1.4324,1.2885,0.7182,0.2968,0.0133,0.036,0.056,0.0687,0.0,0.0,0.0,0.0,0.0,0.0,2.0308,1.9965,1.9331,1.8315,1.8198,1.8025,1.7533,1.829,1.895,1.9252,1.8299,1.7606,1.7423,1.6381,1.5215,1.3927,1.2974,1.1914,1.076,1.1753,1.2751,1.3668,1.498,1.6495,1.8178,1.7589,1.8076,1.9383,1.8796,1.9213,2.0238,1.8779,1.7851,1.7068,1.4228,1.226,1.1092,0.0,0.0,0.0,0.0,0.0,0.0,0.0,0.0,0.0,0.0,0.0,0.0,0.0,0.0,0.0,0.0,0.0,0.0,0.0,0.0,0.0,0.0,0.0,0.0,0.0,0.0,0.0,0.0,0.0,0.0,0.0,0.0,1.7651,1.8594,1.8588,1.8783,1.9498,1.9321,1.9023,1.8818,1.8138,1.7458,1.6918,1.7789,1.7956,1.7056,1.8659,1.9011,1.7723,1.8913,1.9318,1.8732,1.8745,1.8656,1.8531,1.7349,1.6836,1.6956,1.6383,1.627,1.6494,1.5764,1.5573,1.5707,1.5027,1.4585,1.4095,1.1679,0.9188,0.708,0.779,0.803,0.7951,0.0,0.0,0.0,0.0,0.0,0.0,2.0187,1.9618,1.8861,1.7913,1.7703,1.7531,1.7206,1.779,1.8398,1.8905,1.8139,1.753,1.7231,1.6176,1.5035,1.3874,1.3258,1.2584,1.1799,1.2934,1.4014,1.5033,1.6158,1.7644,1.9459,1.9114,1.9752,2.1171,2.0753,2.1107,2.191,2.0766,2.0111,1.9623,1.6919,1.4679,1.2853,1.2321,1.1823,1.1419,1.0711,1.066,1.1049,1.2157,0.0,0.0,0.0,0.0,0.0,0.0,0.0,0.0,0.0,0.0,0.0,0.0,0.0,0.0,0.0,0.0,0.0,0.0,0.0,0.0,0.0,0.0,0.0,0.0,1.8592,1.8403,1.9208,1.8941,1.8949,1.973,1.99,1.9925,1.99,1.9213,1.8701,1.8654,1.9286,1.9251,1.8306,2.01,2.0537,1.9215,2.046,2.0789,1.9991,1.9954,1.9749,1.9298,1.8346,1.7977,1.811,1.7599,1.7506,1.7697,1.6966,1.6761,1.6868,1.5743,1.5497,0.0,0.0,0.0,0.0,0.0,1.2207,1.2074,0.0,0.0,0.0,0.0,0.0,0.0,1.9998,1.9143,1.834,1.7818,1.7457,1.7269,1.7317,1.756,1.7904,1.8371,1.7727,1.7177,1.6904,1.5936,1.5254,1.5012,1.4483,1.4207,1.429,1.4594,1.5401,1.6655,1.7338,1.857,2.036,2.0955,2.1755,2.2662,2.2844,2.2927,2.2921,2.253,2.2004,2.1348,1.9827,1.7915,1.5772,1.3364,1.273,1.2861,1.0486,0.9915,1.0504,1.147,0.0,0.0,0.0,0.0,0.0,0.0,0.0,0.0,0.0,0.0,0.0,0.0,0.0,0.0,0.0,0.0,0.0,0.0,0.0,0.0,0.0,0.0,0.0,0.0,1.9636,1.9673,1.9747,1.9345,1.9129,1.9403,2.0606,2.1326,2.1108,2.0634,2.0355,2.0383,2.0461,2.015,1.933,0.0,0.0,0.0,0.0,2.1279,2.0388,2.0369,1.9862,1.8822,1.8947,1.9021,1.9044,1.9199,1.9271,1.9283,1.8653,1.8391,1.8298,1.6839,1.6706,1.7226,1.5439,1.4604,1.4384,1.4177,1.4094,1.3987,0.0,0.0,0.0,0.0,0.0,0.0,1.9823,1.9098,1.8315,1.7574,1.7148,1.6734,1.6328,1.6853,1.7221,1.7137,1.725,1.6817,1.5641,1.4588,1.4087,1.428,1.4574,1.5116,1.591,1.6354,1.6914,1.754,1.8738,1.9525,1.9952,2.1388,2.2198,2.2465,2.2829,2.3326,2.3872,2.2994,2.2829,2.302,2.1686,1.9408,1.6574,1.4621,1.3229,1.2148,1.085,1.0184,1.0127,1.1446,1.2419,1.3609,1.6874,1.8809,0.0,0.0,0.0,0.0,0.0,0.0,0.0,0.0,0.0,0.0,0.0,0.0,0.0,0.0,0.0,0.0,0.0,0.0,0.0,2.024,1.9732,1.9624,2.0605,2.0555,2.0687,2.1429,2.1559,2.1729,2.2136,2.1572,2.1267,2.1461,2.2092,2.2019,2.1,2.2681,2.2903,2.1277,2.2811,2.2959,2.1495,2.1492,2.1038,2.0132,0.0,0.0,1.9246,1.9102,1.9146,1.9283,1.8653,1.8395,1.8327,1.7499,1.7245,1.7359,1.697,1.6311,1.5554,1.5411,1.5241,1.4994,0.0,0.0,0.0,0.0,0.0,0.0,1.981,1.8998,1.827,1.7799,1.7024,1.6642,1.7014,1.6865,1.6967,1.7512,1.6973,1.6306,1.5591,1.5176,1.5038,1.5194,1.6248,1.7138,1.7774,1.7823,1.8246,1.9094,1.9569,2.0384,2.157,2.248,2.3196,2.3776,2.4105,2.449,2.4863,2.4362,2.4258,2.4312,2.3233,2.1719,1.9813,1.712,1.5492,1.442,1.2719,1.1812,1.1529,1.2307,1.2677,1.3297,1.6231,1.7847,1.8949,0.0,0.0,0.0,0.0,0.0,0.0,0.0,0.0,0.0,0.0,0.0,0.0,0.0,0.0,2.2357,0.0,0.0,2.107,2.1506,2.1222,2.1168,2.1723,2.1761,2.1847,2.2078,2.23,2.2626,2.3215,2.2687,2.2429,2.2645,2.2975,2.2739,2.1749,2.3287,2.3581,2.2242,2.3508,2.3603,2.2423,2.2405,2.1978,2.113,2.0639,2.0457,2.0532,2.0007,1.981,1.9877,1.9266,1.9032,1.9081,1.882,1.8203,1.7529,1.8374,1.787,1.6634,1.6573,1.6489,1.6311,0.0,0.0,0.0,0.0,0.0,0.0,0.0,1.8961,1.832,1.8131,1.7207,1.6934,1.783,1.7151,1.7067,1.8098,1.6658,1.5801,1.5983,1.6172,1.6361,1.6562,1.8194,1.9241,1.9672,1.9208,1.953,2.0628,2.0357,2.1258,2.3233,2.3591,2.4225,2.5082,2.5376,2.5531,2.5583,2.5586,2.5488,2.5207,2.4438,2.3805,2.303,2.0101,1.8437,1.736,1.5091,1.3993,1.3637,1.3761,1.3672,1.3847,1.5964,1.7334,1.8362,1.9387,2.0377,0.0,0.0,0.0,0.0,0.0,0.0,0.0,0.0,0.0,2.3957,2.3138,2.2812,2.2738,2.2967,2.2758,2.2593,2.2698,2.2754,2.2789,2.2721,2.2779,2.2711,2.2482,2.2997,2.3545,2.406,2.3777,2.3633,2.3744,2.3648,2.3271,2.2536,2.3639,2.3989,2.3304,2.3916,2.3876,2.3067,2.3067,2.263,2.1803,2.1838,2.182,2.1784,2.1076,2.0747,2.0739,2.0284,2.0164,2.0323,2.041,1.9678,1.8648,1.9974,1.9659,1.8384,1.7862,1.7757,1.7812,0.0,0.0,0.0,0.0,0.0,0.0,0.0,0.0,1.8521,1.8151,1.7976,1.7743,1.7346,1.7449,1.7611,1.7749,1.6091,1.5414,1.6365,1.6248,1.6559,1.7503,1.9147,2.0442,2.133,2.0639,2.0665,2.1472,2.1713,2.2224,2.2974,2.4114,2.4788,2.503,2.5348,2.5499,2.552,2.556,2.5586,2.5524,2.513,2.4514,2.3749,2.3116,2.1399,1.9102,1.7332,1.6337,1.5857,1.593,1.5972,1.6153,1.7086,1.8507,1.9706,1.9106,2.0156,2.145,2.1097,2.2543,2.4064,2.373,2.4377,2.5109,0.0,0.0,2.498,2.4118,2.3833,2.3586,2.3089,2.2862,2.2862,2.3074,2.3151,2.3147,2.3138,2.3128,2.329,2.3738,2.3852,2.4033,2.4411,2.4568,2.4645,2.4649,2.4636,2.4504,2.4247,2.4545,2.4609,2.4334,2.4412,2.4079,2.3269,2.3269,2.2774,2.1807,2.1915,2.1915,2.1807,2.1697,2.1644,2.1654,2.1723,2.191,2.219,2.2017,2.2053,2.2209,2.2208,2.222,2.1912,1.9523,1.9059,1.9412,0.0,0.0,0.0,0.0,0.0,0.0,0.0,0.0,0.0,1.8662,1.8124,1.7914,1.8314,1.8627,1.8651,1.8253,1.7331,1.673,1.6616,1.7324,1.7911,1.8385,2.0081,2.1336,2.2003,2.1267,2.1428,2.2522,2.2246,2.2682,2.3854,2.4501,2.4864,2.501,2.531,2.5464,2.5498,2.5579,2.5595,2.5585,2.544,2.5149,2.4697,2.4132,2.2842,2.1175,1.9709,1.8664,0.0,1.7887,1.7775,1.7718,1.8347,1.8816,1.9088,1.9017,1.9609,2.0539,2.154,2.2386,2.3251,2.4195,2.4904,2.5387,2.545,2.5432,2.5317,2.4972,2.4741,2.4509,2.4224,2.3957,2.384,0.0,2.3696,2.3599,2.3907,2.3774,2.3857,2.4413,2.4518,2.4655,2.4771,2.4866,2.4966,2.5091,2.4924,2.4755,2.4687,2.4642,2.4524,2.4344,2.4542,2.4456,2.4005,2.4113,2.397,2.3544,2.3603,2.3603,2.3526,2.3018,2.2473,2.1925,2.1975,2.2036,2.2077,2.2092,2.2241,2.2494,2.2424,2.2855,2.3351,2.1739,2.1004,2.0719,0.0,0.0,0.0,0.0,0.0,0.0,0.0,0.0,0.0,0.0,1.841,1.8314,1.913,1.9405,1.9305,1.877,1.834,1.7688,1.6751,1.7979,1.8755,1.8746,2.0577,2.1849,2.2398,2.1987,2.2268,2.3346,2.2799,2.322,2.4512,2.47,2.4864,2.501,2.554,2.579,2.5842,2.6155,2.6168,2.5956,2.5931,2.5735,2.537,2.4524,2.3554,2.2475,2.1249,2.0182,1.9345,1.9206,1.9042,1.8929,1.9253,1.9172,1.9004,1.9387,1.9898,2.0679,2.2021,2.2609,2.3136,2.4413,2.509,2.5453,2.553,2.5484,2.5434,2.5476,2.5325,2.5152,2.5056,2.4808,2.461,2.4523,2.4411,2.4374,2.4485,2.4523,2.4635,2.483,2.4949,2.5024,2.5091,2.5091,2.5149,2.5284,2.5031,2.4837,2.4802,2.4693,2.455,2.4369,2.4685,2.4795,2.4638,2.4766,2.4846,2.4812,2.4846,2.4827,2.4783,2.4137,2.3428,2.27,2.2691,2.2629,2.255,2.2582,2.2783,2.3025,2.2992,2.3572,2.4351,2.3716,2.2793,2.1803,0.0,0.0,0.0,0.0,0.0,0.0,0.0,0.0,0.0,0.0,0.0,0.0,0.0,1.9305,1.9212,1.9001,1.8438,1.7669,1.6657,1.7738,1.8416,1.8416,2.0449,2.195,2.2678,2.2961,2.3328,2.3692,2.3674,2.3945,2.4512,2.47,2.4864,2.5049,2.6162,2.6668,2.6708,2.7646,2.7569,2.6855,2.6796,2.6295,2.5486,2.4553,2.3572,2.2556,2.1487,2.0538,1.975,1.9637,1.9703,1.9807,1.9571,1.9888,2.034,2.0418,2.1577,2.2749,2.2464,2.3483,2.4496,2.3977,2.4666,2.5475,2.5421,2.5444,2.5504,2.5495,2.5437,2.5331,2.5139,2.5033,2.4872,2.4561,2.5299,2.5595,2.4633,2.5315,2.5705,2.5061,2.4995,2.5091,0.0,2.5284,2.5284,2.5303,2.5111,2.495,2.4794,2.4921,2.4924,2.4784,2.4911,2.4991,2.4985,2.4995,2.4918,2.4812,2.4918,2.4918,2.4803,2.4782,2.4634,2.442,2.442,2.442,2.4403,2.4211,2.4431,2.491,2.478,2.4962,2.5264,2.5226,2.4178,2.2639,0.0,0.0,0.0,0.0,0.0,0.0,0.0,0.0,0.0,0.0,0.0,0.0,0.0,0.0,0.0,0.0,1.8643,1.8193,1.7704,1.8483,1.9001,1.9001,2.0825,2.1978,2.2242,2.2853,2.3369,2.3692,2.3692,2.3963,2.4512,2.47,2.4864,2.501,2.554,2.5793,2.5849,2.6169,2.653,2.6861,2.6247,2.6166,2.6243,2.4813,2.3997,2.3419,0.0,2.0665,1.9922,1.9934,2.0031,2.0126,1.9942,2.0314,2.0965,2.1789,2.2184,2.2612,2.3695,2.4146,2.4401,2.483,2.5245,2.5556,2.5543,2.5529,2.5503,2.5554,2.5039,2.4572,2.4514,2.437,2.4213,2.4062,2.4692,2.5115,2.4873,2.5662,2.6025,2.5341,2.5784,0.0,0.0,0.0,0.0,2.5303,2.5107,2.4936,2.4802,2.4936,2.4879,2.4613,2.4981,2.513,2.5003,2.5126,2.5187,2.513,2.5187,2.5187,2.512,2.4989,2.4905,2.4831,2.4741,2.4623,2.4512,2.4559,2.4697,2.4864,2.4917,2.5084,2.5245,2.4697,2.4149,2.3552,0.0,0.0,0.0,0.0,0.0,0.0,0.0,0.0,0.0,0.0,0.0,0.0,0.0,0.0,0.0,0.0,0.0,1.8404,1.7969,1.8544,1.8914,1.8914,2.0488,2.1473,2.174,2.2368,2.2826,2.3084,2.3415,2.375,2.4161,2.4634,2.493,2.501,2.554,2.5793,2.5849,2.6194,2.6181,2.5943,2.599,2.5815,2.5389,2.4574,2.421,0.0,2.2334,2.1464,2.0929,2.0352,2.042,2.0792,2.0721,2.1343,2.2211,2.3002,2.322,2.3469,2.4709,2.485,2.477,2.5369,2.5563,2.5628,2.561,2.5596,2.5579,2.5624,2.5148,2.4697,2.4678,2.4535,2.4293,2.388,2.446,2.5001,2.5057,2.5898,2.6466,2.6372,2.6857,2.6969,0.0,0.0,0.0,2.5341,2.5072,2.4891,2.4804,2.4877,2.4836,2.4607,2.5049,2.5233,2.5111,2.5233,2.5303,2.5303,2.5303,2.5303,2.5303,2.5163,2.5077,2.4998,2.4869,2.4685,2.4512,2.4639,2.4731,2.4799,2.4949,2.5111,2.5245,2.4716,2.4524,2.4351,0.0,0.0,0.0,0.0,0.0,0.0,0.0,0.0,0.0,0.0,0.0,0.0,0.0,0.0,0.0,0.0,0.0,0.0,1.7595,1.7971,1.8229,1.8229,1.9502,2.0553,2.1276,2.1624,2.1902,2.208,2.2909,2.3409,2.3601,2.4544,2.501,2.5061,2.6088,2.6544,2.6601,2.7484,2.651,2.4475,2.6084,2.534,2.3362,2.3976,2.4225,2.412,2.3005,2.2777,2.2707,2.0921,2.0966,2.1792,2.1959,2.2917,2.4023,2.4121,2.4648,2.5262,2.5463,2.557,2.5578,2.5526,2.5603,2.5673,2.5627,2.5639,2.5703,2.5703,2.5605,2.5527,0.0,0.0,2.5024,2.4034,2.4706,2.536,2.5351,2.6208,2.7154,0.0,0.0,0.0,0.0,0.0,0.0,2.5505,0.0,2.487,2.4818,2.4818,2.4818,2.4818,2.5126,2.5303,2.5303,2.5303,2.5303,2.5303,2.5303,2.5303,2.5303,2.5303,2.5203,2.501,2.4883,2.4716,2.4545,2.4545,2.4654,2.4814,2.4924,2.5102,2.5284,2.5187,2.5226,2.5072,0.0,0.0,0.0,0.0,0.0,0.0,0.0,0.0,0.0,0.0,0.0,0.0,0.0,0.0,0.0,0.0,0.0,0.0,1.8339,1.8441,1.8489,1.8489,1.9686,2.0537,2.0923,2.1701,2.2431,2.3126,2.3333,2.3841,2.4613,2.4872,2.5088,2.5243,2.5504,2.5659,2.5717,2.5956,2.612,2.6188,2.5924,2.5839,2.5746,2.461,2.4553,2.4832,2.3352,2.3265,2.3688,2.2471,2.2378,2.2963,2.4223,2.444,2.4482,2.5784,2.585,2.552,2.5612,2.567,2.5661,2.5655,2.5662,2.5702,2.5685,2.5697,2.5703,2.5703,2.5176,2.4687,0.0,0.0,0.0,2.487,2.5674,0.0,2.7196,2.8111,0.0,2.8223,0.0,2.8812,2.8131,2.7401,0.0,0.0,2.6192,2.5795,2.4987,2.5084,2.5096,2.4949,2.5182,2.5303,2.5303,2.5303,2.5303,2.5303,2.5303,2.5303,2.5303,2.5303,2.5274,2.5214,2.5182,2.5061,2.4885,2.5018,2.5049,2.4905,2.4481,2.4726,2.5149,2.3908,2.4235,2.5149,0.0,0.0,0.0,0.0,0.0,0.0,0.0,0.0,0.0,0.0,0.0,0.0,0.0,0.0,0.0,0.0,0.0,0.0,0.0,1.877,1.877,1.877,1.9579,2.0115,2.0271,2.1215,2.1821,2.2023,2.3127,2.3833,2.4145,2.4873,2.528,2.539,2.539,2.5409,2.5447,2.5486,2.5371,0.0,0.0,2.5337,2.5053,2.4812,2.4986,2.5236,2.436,2.4358,2.4686,0.0,0.0,2.4434,2.5742,2.6129,2.6242,2.7235,0.0,2.6218,2.6265,2.5996,2.5703,2.5703,2.5703,2.5703,2.5703,2.5703,2.5703,2.5703,2.5293,2.4883,2.4727,2.4633,2.4619,0.0,0.0,0.0,2.7325,2.826,2.8965,0.0,2.9737,0.0,2.9251,2.8666,2.7986,0.0,2.6376,2.5639,2.503,2.5099,2.5111,2.4991,2.5203,2.5303,2.5303,2.5303,2.5303,2.5303,2.5303,2.5303,2.5303,2.5303,2.5303,2.5303,0.0,2.5099,2.501,2.5111,2.5099,2.4984,2.4725,2.4909,2.5187,2.4235,2.4485,2.5168,0.0,0.0,0.0,0.0,0.0,0.0,0.0,0.0,0.0,0.0,0.0,0.0,0.0,0.0,0.0,0.0,0.0,0.0,0.0,0.0,1.9002,1.9002,1.9365,1.9591,1.9623,2.0514,2.0766,2.0307,2.2515,2.341,2.3036,2.4493,2.5158,2.5158,2.5158,2.5216,2.5341,2.5409,2.4632,2.3476,2.4912,2.4605,2.3419,0.0,2.5408,2.5404,2.5462,2.5492,0.0,0.0,2.5537,2.5737,2.6621,2.7383,2.7969,2.8086,2.7519,2.6836,2.6836,2.6289,2.5703,2.5703,2.5703,2.5703,2.5703,2.5703,2.5703,2.5703,0.0,2.5527,2.5288,2.5149,2.4908,2.439,0.0,2.5657,2.7067,2.7837,2.8925,3.0664,3.0756,3.0629,3.046,3.0275,2.9486,2.7852,2.6052,2.5034,2.5034,2.5034,2.5034,2.5034,2.5214,2.5303,2.5303,2.5303,2.5303,2.5303,2.5303,2.5303,2.5303,2.5303,2.5303,2.5284,2.513,2.5034,2.5034,2.5034,2.5034,2.5046,2.5069,2.5168,2.5244,2.5109,2.5137,2.5118,0.0,0.0,0.0,0.0,0.0,0.0,0.0,0.0,0.0,0.0,1.9438,1.9541,0.0,0.0,0.0,0.0,0.0,0.0,0.0,0.0,0.0,1.9002,1.9287,1.9531,1.9762,2.0222,2.0734,2.1338,2.1836,2.2405,2.3007,2.3298,2.3428,2.3428,2.3428,2.3836,2.4514,2.4514,2.4807,2.5253,2.5428,2.5351,2.5149,2.5322,0.0,0.0,2.5418,0.0,0.0,0.0,2.5465,2.5691,2.6609,2.6523,2.6211,2.6992,2.6602,2.5937,2.5937,2.582,2.5703,2.5703,2.5703,2.5703,2.5703,2.5703,0.0,0.0,2.5644,2.5574,2.5478,2.5258,2.5503,2.6673,2.6422,2.6899,2.9274,2.9358,2.9562,0.0,3.0665,3.0347,2.9657,2.8854,0.0,0.0,2.585,2.5253,2.5253,2.5253,2.5253,2.5253,2.5274,2.5303,2.5303,2.5303,2.5303,2.5303,2.5303,2.5303,2.5303,2.5303,2.5303,2.5303,2.5264,0.0,2.5253,2.5253,2.5253,2.5166,2.4372,2.4473,2.4958,2.4113,2.4269,2.4869,0.0,0.0,0.0,0.0,0.0,0.0,0.0,1.8508,1.8734,1.9101,1.9462,1.9643,1.9452,1.9438,0.0,0.0,0.0,0.0,0.0,0.0,0.0,0.0,1.9368,1.96,1.9809,2.0497,2.0903,2.0985,0.0,2.2424,2.2435,2.2886,2.3081,2.3042,2.3042,2.3274,2.3709,2.4161,2.4594,2.5007,2.5362,2.5526,2.5544,0.0,0.0,0.0,0.0,0.0,0.0,0.0,2.5209,2.5426,2.6463,2.6863,2.7129,2.8047,2.7715,2.7051,2.7051,2.7051,2.6836,2.5937,2.6016,2.6211,2.5801,0.0,0.0,0.0,2.5625,2.547,2.5241,2.5048,0.0,2.5838,2.5974,2.6679,2.8614,2.9062,2.9547,3.0524,3.0594,3.0221,2.9377,2.8824,2.8179,2.7332,2.6467,2.5793,2.5322,2.5303,2.5303,2.5303,2.5322,2.5341,2.5303,2.5322,2.5322,2.5303,2.5303,2.5303,2.5303,2.5303,2.5303,2.5303,2.5303,2.5303,2.5303,2.5303,2.5253,2.5102,2.4614,2.4626,2.4853,2.4346,2.4431,2.4747,0.0,0.0,0.0,0.0,0.0,0.0,0.0,1.843,1.8698,1.8999,1.9458,1.9663,1.9394,1.9394,1.9405,0.0,0.0,0.0,0.0,0.0,0.0,0.0,0.0,0.0,0.0,0.0,0.0,2.0683,2.2127,0.0,0.0,0.0,0.0,0.0,2.2656,2.2676,2.2891,2.3769,2.4204,0.0,0.0,2.5511,0.0,0.0,0.0,0.0,0.0,0.0,0.0,0.0,2.501,2.5168,2.6058,2.6922,2.7702,2.8242,2.8086,2.7773,2.7969,2.8027,2.7695,2.6309,2.6426,2.6679,2.5847,2.5621,0.0,2.5664,2.5586,2.5391,2.5032,2.4862,2.4786,0.0,2.5192,2.6061,2.7649,2.8411,2.9233,0.0,3.0376,0.0,2.9267,2.8978,0.0,2.7678,2.6986,2.6294,2.561,2.5572,2.5572,2.5572,2.5466,2.537,2.5303,2.537,2.537,2.5303,2.5303,2.5303,2.5303,2.5303,2.5303,2.5303,2.5303,2.5283,2.5233,2.5233,2.5023,2.4695,2.4835,2.4723,2.4486,2.461,2.467,2.4576,0.0,0.0,0.0,0.0,0.0,0.0,0.0,1.843,1.8753,1.9123,1.9448,1.9609,1.9587,1.9676,1.9743,0.0,0.0,0.0,0.0,0.0,0.0,0.0,0.0,0.0,0.0,0.0,0.0,2.1586,2.1878,0.0,0.0,0.0,0.0,0.0,0.0,2.1269,2.2051,2.2871,0.0,0.0,0.0,0.0,0.0,0.0,0.0,0.0,0.0,0.0,0.0,0.0,0.0,2.5018,2.5114,2.5393,2.5557,2.5026,0.0,0.0,2.6894,2.7129,2.707,2.6836,2.6855,2.6651,2.5727,0.0,2.5605,2.5605,2.5547,2.5431,2.5209,2.4959,2.4968,2.5503,2.5182,2.571,2.8096,2.8236,2.8687,3.0329,0.0,0.0,2.9209,2.8467,2.764,2.6774,2.6659,2.6563,2.6486,2.6486,2.6486,2.6486,2.5774,2.537,2.5303,2.537,2.537,2.5303,2.5303,2.5303,2.5303,2.5303,2.5303,2.5303,2.5303,2.5201,0.0,2.5025,2.4467,2.3704,2.4304,2.4094,2.3505,2.4044,2.4266,2.4247,0.0,0.0,0.0,0.0,0.0,0.0,1.7905,1.833,1.868,1.8922,1.9402,1.9713,1.9713,1.9774,1.9719,0.0,0.0,0.0,0.0,0.0,0.0,0.0,0.0,0.0,0.0,0.0,2.1108,2.1702,2.2356,0.0,0.0,0.0,0.0,0.0,0.0,2.1289,2.1191,2.2539,0.0,0.0,0.0,0.0,0.0,0.0,0.0,0.0,0.0,0.0,2.4708,0.0,0.0,0.0,2.4252,2.4674,0.0,0.0,2.6445,2.7246,2.7617,2.8516,2.9082,2.8008,2.768,2.7395,2.6544,0.0,2.5532,2.5544,2.5525,2.5383,2.5023,2.4869,2.4799,2.4801,2.4597,2.5049,2.6755,2.6883,2.7504,2.9425,2.9352,0.0,0.0,0.0,2.8275,2.7448,2.8313,2.8448,2.7448,2.689,2.637,2.5832,2.5601,2.5409,2.5303,2.5409,2.5409,2.5303,2.5303,2.5303,2.5303,2.5303,2.5303,2.5303,2.5303,2.519,0.0,2.4482,2.4204,2.4083,2.3873,2.3797,2.386,2.4118,2.419,2.419,0.0,0.0,0.0,0.0,0.0,1.7415,1.7766,1.8249,1.8663,1.8835,1.942,1.979,1.979,1.979,1.9657,1.9335,0.0,0.0,0.0,0.0,0.0,0.0,0.0,0.0,0.0,0.0,2.1242,2.2037,2.2785,2.3437,0.0,0.0,2.3223,2.2617,0.0,0.0,0.0,0.0,0.0,0.0,0.0,0.0,0.0,0.0,0.0,0.0,0.0,0.0,0.0,0.0,0.0,0.0,0.0,0.0,0.0,0.0,2.6624,2.773,2.7499,2.875,2.9766,2.8262,2.7807,2.7489,0.0,0.0,2.5484,2.5461,2.5493,2.5365,2.4893,2.4836,2.4735,2.4339,2.4374,2.4821,2.5924,2.61,2.6757,2.8522,0.0,2.848,0.0,2.9102,2.8967,2.8659,2.9486,2.941,2.7986,2.7313,2.6582,2.5707,2.5543,2.5428,2.5303,2.5409,2.5409,2.5303,2.5303,2.5262,2.5206,2.5273,2.5264,2.5207,2.5264,2.5157,0.0,2.4339,2.4085,2.4021,2.3687,2.3675,2.3878,2.4116,2.419,2.419,0.0,0.0,0.0,0.0,0.0,0.0,1.7766,1.8249,1.8699,1.8953,1.9481,1.979,1.979,1.979,1.9657,1.9335,0.0,0.0,0.0,0.0,0.0,0.0,0.0,0.0,0.0,0.0,2.0996,2.2781,2.3,2.3984,2.5664,2.4785,2.4375,2.4297,0.0,0.0,0.0,0.0,0.0,0.0,0.0,0.0,0.0,0.0,0.0,0.0,0.0,0.0,0.0,0.0,0.0,0.0,0.0,0.0,0.0,0.0,2.4771,2.6644,2.5847,2.6953,2.8105,2.7148,2.6855,2.657,0.0,0.0,2.5484,2.5403,2.5454,2.5365,2.4893,2.4921,2.4893,2.4561,2.4776,2.5304,2.6162,2.6295,2.6701,0.0,0.0,2.7058,2.8917,2.9102,2.9448,3.0302,2.9583,0.0,2.7928,2.789,2.7486,2.6621,2.5832,2.537,2.5303,2.537,2.537,2.5303,2.5303,2.5203,2.5003,2.5206,2.5187,2.5005,2.5207,2.5101,0.0,2.4783,2.4081,2.3088,2.3878,2.3712,2.3125,2.3914,2.419,2.419,0.0,0.0,0.0,0.0,0.0,0.0,0.0,1.8082,1.8455,1.8817,1.9253,1.9563,1.9656,1.9738,1.9619,1.9134,0.0,0.0,0.0,0.0,0.0,0.0,0.0,0.0,0.0,0.0,2.128,2.1901,2.2713,2.3418,2.4004,2.4277,2.4082,2.3496,2.3008,2.2608,0.0,0.0,0.0,0.0,0.0,0.0,0.0,0.0,0.0,0.0,0.0,0.0,0.0,0.0,0.0,0.0,0.0,0.0,0.0,2.379,2.5041,0.0,2.6475,2.7305,2.8164,2.793,2.7324,2.6726,2.6423,2.59,2.5464,2.5344,2.5415,2.5365,2.4893,2.491,2.4891,2.4559,2.4588,2.4787,0.0,0.0,0.0,2.7542,2.8516,2.9344,0.0,0.0,3.0102,3.0379,2.9583,2.8736,2.7928,2.7332,2.6621,2.5726,2.5505,2.537,2.5303,2.537,2.537,2.5303,2.5303,2.5262,2.5214,2.526,2.5263,2.5197,2.5125,2.4965,2.4743,2.4061,2.3787,2.3786,2.3511,2.3566,2.3859,2.4116,2.419,2.419,0.0,0.0,0.0,0.0,0.0,0.0,0.0,1.8035,1.8338,1.8752,1.9109,1.9383,1.9582,1.9669,1.9559,1.915,0.0,0.0,0.0,0.0,0.0,0.0,0.0,0.0,0.0,2.0741,2.1286,2.1385,2.245,2.3023,2.3164,2.3673,2.3802,2.3579,2.3267,2.3198,0.0,0.0,0.0,0.0,0.0,0.0,2.5511,0.0,0.0,0.0,0.0,0.0,0.0,0.0,0.0,0.0,0.0,0.0,0.0,0.0,2.5015,2.6022,0.0,2.6743,2.7637,2.7344,2.6816,0.0,0.0,2.5919,2.551,2.5377,2.5427,2.5354,2.4879,2.4896,2.4924,2.467,2.4607,2.4779,0.0,0.0,0.0,2.7755,0.0,0.0,0.0,3.0217,3.0275,2.9929,2.941,2.8602,2.7467,2.689,2.6197,2.5322,2.5341,2.5341,2.5303,2.5341,2.5341,2.5303,2.5303,2.5264,2.5192,2.5258,2.5251,2.5163,2.4727,2.4648,0.0,2.3707,2.3658,2.4153,2.3657,2.3768,2.419,2.419,2.419,2.419,0.0,0.0,0.0,0.0,0.0,0.0,0.0,1.8014,1.8318,1.8734,1.9004,1.928,1.9555,1.9582,1.9513,1.9289,0.0,0.0,0.0,0.0,0.0,0.0,0.0,0.0,0.0,2.0539,2.1065,2.1181,2.2075,2.2639,2.2891,2.2974,2.3435,2.4191,2.3373,2.3934,0.0,0.0,0.0,0.0,0.0,0.0,0.0,0.0,0.0,0.0,0.0,0.0,0.0,0.0,0.0,0.0,0.0,0.0,0.0,0.0,0.0,0.0,0.0,2.5507,2.66,2.5781,2.5586,0.0,0.0,0.0,0.0,2.5432,2.5447,2.5351,2.4888,2.4898,2.4949,2.4799,2.4775,2.5097,0.0,2.6655,0.0,0.0,2.8872,0.0,2.9102,2.9833,2.9967,2.9159,2.8986,2.8236,2.6678,2.6544,2.614,2.5322,2.5303,2.5303,2.5303,2.5303,2.5284,2.5274,2.5274,2.5182,2.4998,2.5182,2.5152,0.0,2.4181,2.4208,2.4723,2.3761,2.3695,2.419,2.419,2.419,2.4208,2.417,2.417,2.417,0.0,0.0,0.0,0.0,0.0,0.0,0.0,0.0,0.0,0.0,1.8788,1.9022,1.935,1.9513,1.9456,0.0,0.0,0.0,0.0,0.0,0.0,0.0,0.0,0.0,0.0,2.084,2.0982,2.0979,2.0805,2.0793,2.0976,2.1754,2.2242,2.2503,2.2892,2.3581,0.0,0.0,0.0,0.0,0.0,0.0,0.0,0.0,0.0,0.0,2.2684,2.2451,0.0,0.0,0.0,0.0,0.0,0.0,0.0,0.0,2.4672,2.4848,2.4812,0.0,2.5719,2.556,2.5527,2.5527,0.0,0.0,0.0,0.0,0.0,2.5351,2.4888,2.4898,2.4911,2.4623,2.4559,2.4856,2.5695,0.0,0.0,2.8378,2.9388,2.9833,2.9159,2.9294,2.9313,2.9121,2.7909,2.7024,2.6621,2.5967,2.5514,2.5303,2.5303,2.5303,2.5303,2.5303,2.5224,2.5077,2.5077,2.4993,2.4855,2.4915,2.4883,2.4823,2.4475,2.442,2.4543,2.4155,2.408,2.419,2.419,2.419,2.417,2.3917,2.3816,2.3774,0.0,0.0,0.0,0.0,0.0,0.0,0.0,0.0,0.0,0.0,0.0,0.0,0.0,0.0,0.0,0.0,0.0,0.0,0.0,0.0,0.0,0.0,0.0,0.0,2.0659,2.0973,2.1047,2.0847,2.0808,2.0584,2.023,2.0799,2.1336,2.1859,2.3079,2.3794,0.0,0.0,0.0,0.0,2.528,0.0,0.0,0.0,0.0,0.0,2.1591,2.1479,0.0,2.1031,2.1249,2.2081,0.0,0.0,0.0,0.0,2.4504,2.4707,2.4855,2.5149,2.5416,2.5449,2.5483,2.5503,2.5503,0.0,0.0,0.0,0.0,2.5201,2.4873,2.4779,2.4708,2.4526,2.458,0.0,0.0,0.0,2.8045,2.8904,2.9464,2.9775,0.0,2.9698,2.9371,2.8602,2.7717,2.6851,2.6063,2.5553,2.5303,2.5303,2.5303,2.5303,2.5303,2.5214,2.5099,2.501,2.4956,2.4864,2.4804,2.4804,2.4804,2.4771,2.4198,2.4176,2.4459,2.3879,2.3878,2.419,2.419,2.419,2.417,2.3816,2.3692,2.3649,0.0,0.0,0.0,0.0,0.0,0.0,0.0,0.0,0.0,0.0,0.0,0.0,0.0,0.0,0.0,0.0,0.0,0.0,0.0,0.0,0.0,0.0,0.0,2.0099,2.0634,2.1114,2.1188,2.0825,2.1138,2.0924,2.0188,2.0183,2.0813,2.1963,2.3389,2.4103,0.0,0.0,0.0,0.0,2.5022,0.0,0.0,0.0,0.0,0.0,0.0,0.0,0.0,2.0388,2.0534,2.1242,2.1639,0.0,0.0,0.0,0.0,0.0,2.4562,2.4955,2.5341,2.539,2.5341,2.5322,2.5466,0.0,0.0,0.0,0.0,0.0,2.4794,2.4607,0.0,0.0,0.0,0.0,2.685,2.7077,2.7699,2.932,2.9341,0.0,2.9956,3.0025,2.9371,2.7813,2.7582,2.6851,2.538,2.5303,2.5303,2.5303,2.5303,2.5293,2.5253,2.5088,2.4998,2.4974,2.4828,2.4746,2.4716,2.4716,2.4716,2.4663,0.0,0.0,2.4389,2.3529,2.3584,2.419,2.419,2.417,2.4074,2.3753,2.3588,2.35,0.0,0.0,0.0,0.0,0.0,0.0,0.0,0.0,0.0,0.0,0.0,0.0,0.0,0.0,0.0,0.0,0.0,0.0,0.0,0.0,0.0,0.0,2.2205,2.2063,2.1279,2.1557,2.1452,2.0878,2.0279,2.0173,2.0526,2.0295,2.1152,2.2888,2.3045,2.3785,2.4955,0.0,0.0,0.0,2.4714,0.0,0.0,0.0,0.0,0.0,0.0,0.0,0.0,1.9258,1.9527,2.023,2.1293,0.0,0.0,0.0,0.0,0.0,2.3708,2.4283,2.5111,2.5264,2.4851,2.4572,2.5264,0.0,0.0,0.0,0.0,0.0,0.0,2.4528,2.4444,0.0,0.0,2.5924,0.0,0.0,2.8524,2.8589,0.0,2.9442,2.8398,2.8275,2.7871,2.6871,2.612,2.5572,2.5303,2.5303,2.5303,2.5303,2.5303,2.5214,2.5046,2.5022,2.4937,2.4828,2.4639,2.4461,2.4284,2.4284,2.4284,2.4284,0.0,2.4118,2.4228,2.408,2.408,2.419,2.419,2.4016,2.3753,2.3392,2.3093,2.2797,0.0,0.0,0.0,0.0,0.0,0.0,0.0,0.0,0.0,0.0,0.0,0.0,0.0,0.0,0.0,0.0,0.0,0.0,0.0,0.0,0.0,2.1534,2.1779,2.1485,2.0578,2.0233,1.9857,1.9379,1.9161,1.927,1.969,2.0073,2.1034,2.247,2.277,2.3508,2.4534,2.4946,0.0,0.0,0.0,0.0,0.0,0.0,0.0,0.0,0.0,0.0,0.0,0.0,1.9046,1.9191,2.0743,0.0,0.0,0.0,0.0,0.0,2.3748,2.3851,2.4189,2.4866,2.4828,2.4705,0.0,0.0,0.0,0.0,0.0,0.0,0.0,0.0,2.4505,2.5084,0.0,2.5713,2.6561,2.7169,2.7742,0.0,0.0,2.9148,2.8591,2.8544,2.8005,2.6697,2.6236,2.5813,2.5322,2.5303,2.5303,2.5303,2.5184,2.5099,2.501,2.4818,2.4693,2.4639,2.4426,2.4284,2.419,2.419,2.419,2.419,0.0,2.419,2.419,2.419,2.419,2.417,2.3996,2.3855,2.3649,2.3117,2.2738,2.2463,0.0,0.0,0.0,0.0,0.0,0.0,0.0,0.0,0.0,0.0,0.0,0.0,0.0,0.0,0.0,0.0,0.0,0.0,0.0,0.0,2.2013,2.1252,2.0851,2.0159,1.9161,1.8642,1.8163,1.7736,1.8144,1.8644,1.9175,2.0147,2.1171,2.2204,2.2851,2.3528,2.4222,2.4739,2.4836,0.0,0.0,0.0,0.0,0.0,0.0,0.0,0.0,0.0,0.0,0.0,0.0,0.0,0.0,0.0,0.0,2.2433,2.3236,2.3692,2.3656,2.3581,2.3646,2.4213,0.0,0.0,0.0,0.0,0.0,0.0,0.0,0.0,0.0,2.4303,0.0,2.5574,2.5257,2.5443,2.6995,2.6913,2.7207,2.8604,2.8791,2.8804,2.8821,2.8621,2.789,2.6409,2.6294,2.6005,2.5341,2.5303,2.5303,2.5303,2.5099,2.4986,2.4949,2.4651,2.4495,2.4495,2.4303,2.417,2.4074,2.4074,2.4074,2.4074,2.3996,2.4016,2.4074,2.3996,2.3976,2.3937,2.3692,2.3544,2.3392,2.2815,2.249,2.231,0.0,0.0,0.0,0.0,0.0,0.0,0.0,0.0,0.0,0.0,0.0,0.0,0.0,0.0,0.0,0.0,0.0,0.0,0.0,0.0,2.1389,2.1573,2.0268,1.8789,1.7246,1.7497,1.7334,1.6618,1.7508,1.8624,1.9941,2.1,2.2042,2.3039,2.3582,2.4168,2.4738,2.4798,2.4591,2.4209,0.0,0.0,0.0,0.0,0.0,0.0,0.0,0.0,0.0,0.0,0.0,0.0,0.0,0.0,2.1,2.1568,2.2653,2.3545,2.281,2.349,2.4211,2.3344,2.3375,0.0,2.462,2.4673,0.0,2.4528,0.0,0.0,0.0,2.4209,2.4386,2.4892,2.4874,2.5378,2.7061,0.0,2.804,2.9454,2.9118,2.8593,2.8033,2.7255,2.639,2.5457,2.538,2.536,2.5303,2.5303,2.5303,2.5303,2.5099,2.4937,2.4818,2.4607,2.4495,2.4495,2.4303,2.4054,2.3753,2.3753,2.3753,2.3714,2.3414,2.3437,2.3714,2.3392,2.3259,2.3259,2.3253,2.3045,2.2738,2.2453,2.2338,2.231,0.0,0.0,0.0,0.0,0.0,0.0,0.0,0.0,0.0,0.0,0.0,0.0,0.0,0.0,0.0,0.0,0.0,0.0,0.0,0.0,2.1016,2.0641,1.9186,1.785,1.6649,1.6398,1.6068,1.5565,1.7386,1.9125,2.0748,2.1333,2.2395,2.384,2.367,2.3683,2.3878,2.4189,2.3878,2.3214,2.3282,0.0,0.0,0.0,0.0,0.0,0.0,0.0,0.0,0.0,1.87,1.7772,1.971,2.0321,2.0551,2.1691,2.2676,2.3281,2.2776,2.3298,2.3905,2.3515,2.3524,0.0,0.0,2.4357,2.4321,2.4321,2.4247,0.0,0.0,0.0,2.4408,2.5113,2.5181,2.5564,2.6717,2.7472,2.7978,2.8133,2.8544,2.8345,2.7206,2.6794,2.6236,2.536,2.5303,2.5303,2.5303,2.5173,2.5111,2.5111,2.485,2.4666,2.4607,2.4211,2.3983,2.4001,2.3919,2.3816,2.3692,2.3482,2.3392,2.3392,2.3277,2.3259,2.3392,2.3236,2.3189,2.3165,2.2972,2.2704,2.2453,2.2349,2.231,2.231,0.0,0.0,0.0,0.0,0.0,0.0,0.0,0.0,0.0,0.0,0.0,0.0,0.0,0.0,0.0,0.0,0.0,0.0,2.0365,2.0686,2.0567,1.9981,1.889,1.7762,1.6661,1.6113,1.5788,1.5643,1.7791,1.9681,2.1278,2.1782,2.26,2.3663,2.3462,2.3118,2.2701,2.3302,2.3122,2.248,2.2865,2.2192,0.0,0.0,0.0,0.0,0.0,0.0,0.0,0.0,1.8672,1.7715,1.931,1.9745,1.9907,2.1194,2.2119,2.2702,2.2702,2.3117,2.3544,2.354,0.0,0.0,2.3996,2.4113,2.419,2.419,2.419,2.419,2.419,0.0,0.0,0.0,2.5201,2.5383,2.6447,2.7063,2.747,2.7584,2.8146,2.8121,2.711,2.6755,2.6236,2.536,2.5303,2.5274,2.5214,2.5057,2.4986,2.4937,2.4651,2.4442,2.4336,2.402,2.3735,2.3544,2.3544,2.35,2.3369,2.3141,2.3045,2.3045,2.294,2.2965,2.3045,2.294,2.2908,2.2883,2.2652,2.2463,2.231,2.231,2.231,2.231,0.0,0.0,0.0,0.0,0.0,0.0,0.0,0.0,0.0,0.0,0.0,0.0,0.0,0.0,0.0,0.0,0.0,0.0,1.8819,1.9579,1.9963,1.992,1.9578,1.8696,1.7151,1.6823,1.6782,1.7012,1.8762,2.0234,2.1428,2.2436,2.2681,2.2326,2.2978,2.2531,2.1349,2.2211,2.2395,2.2095,2.2443,2.1825,2.0607,0.0,0.0,0.0,0.0,0.0,0.0,0.0,1.8579,1.7864,1.8215,1.8585,1.9074,1.9792,2.0766,2.1742,2.2496,2.2947,2.3206,2.3189,0.0,0.0,2.371,2.3976,2.419,2.419,2.419,2.419,2.419,2.419,0.0,2.5274,2.4704,2.4759,2.6374,2.6243,2.6635,2.8294,2.8141,2.789,2.789,2.7101,2.6236,2.536,2.5303,2.5214,2.501,2.4998,2.4924,2.4804,2.4591,2.4336,2.4007,2.4116,2.3837,2.3189,2.3189,2.3021,2.2695,2.2695,2.2695,2.2669,2.2426,2.2436,2.2686,2.2398,2.231,2.231,2.231,2.231,2.231,2.231,2.231,2.2282,0.0,0.0,0.0,0.0,0.0,0.0,0.0,0.0,0.0,0.0,0.0,0.0,0.0,0.0,0.0,0.0,0.0,0.0,1.8843,1.9336,1.9673,1.989,1.9245,1.904,1.9326,2.0077,1.9844,1.8626,1.9795,2.0905,2.1909,2.2244,2.2316,2.2134,2.1727,2.1036,2.0205,2.085,2.077,2.0253,2.0869,2.0421,1.9379,0.0,0.0,0.0,0.0,0.0,0.0,0.0,0.0,0.0,1.987,1.9959,1.9913,2.1225,2.161,2.1726,2.2265,2.2623,0.0,2.2849,0.0,0.0,0.0,2.4356,0.0,0.0,2.419,2.419,2.419,2.419,0.0,2.452,2.4355,2.4557,2.5603,2.6265,2.687,2.7509,2.7618,2.7687,2.7879,2.6563,2.5772,2.5998,2.5432,2.503,2.4869,2.4741,2.4636,2.4591,2.4174,2.3883,2.3783,2.3374,2.3045,2.2848,2.266,2.2616,2.2695,2.25,2.2426,2.2398,2.2321,2.2349,2.2398,2.2321,2.231,2.231,2.231,2.231,2.231,2.231,2.2106,2.1794,0.0,0.0,0.0,0.0,0.0,0.0,0.0,0.0,0.0,0.0,0.0,0.0,0.0,0.0,0.0,0.0,0.0,0.0,0.0,1.892,1.9289,1.9445,1.9384,1.9608,2.0125,2.0705,2.0729,2.0216,2.0952,2.1554,2.2018,2.1928,2.1613,2.1124,2.0599,1.9846,1.8984,1.975,1.9726,1.9248,1.9821,1.9498,1.8577,0.0,0.0,0.0,0.0,0.0,0.0,0.0,0.0,0.0,2.0311,2.0291,2.0237,2.1506,2.1667,2.1575,2.2136,2.2423,0.0,2.2535,2.2764,2.3241,2.4199,0.0,0.0,0.0,2.419,2.419,2.419,2.419,0.0,2.419,2.419,2.4483,2.5293,2.5986,2.671,2.7469,2.7839,2.7943,2.7769,2.6886,2.6173,2.5824,2.5297,2.4911,2.47,2.4578,2.4461,2.4375,2.3941,2.3649,2.3482,2.3093,2.2789,2.2537,2.249,2.2473,2.2537,2.236,2.231,2.231,2.231,2.231,2.231,2.231,2.231,2.231,2.231,2.231,2.231,2.231,2.2106,2.1899,0.0,0.0,0.0,0.0,0.0,0.0,0.0,0.0,0.0,0.0,0.0,0.0,0.0,0.0,0.0,0.0,0.0,0.0,0.0,0.0,1.884,1.8831,1.9796,2.0202,1.9986,1.9707,2.0233,2.1665,2.2016,2.2062,2.1767,2.1473,2.069,1.9527,1.9527,1.8876,1.7862,1.8841,1.9075,1.8802,1.9092,1.8774,1.8046,1.7281,0.0,0.0,0.0,0.0,0.0,0.0,0.0,0.0,2.0005,2.0029,2.0218,2.1053,2.1245,2.1362,2.2102,2.231,2.231,2.231,2.2552,0.0,2.3562,2.4556,2.5124,2.4355,0.0,2.419,2.419,2.419,2.419,2.419,2.419,2.4502,2.5403,2.5671,2.6395,2.8015,2.852,2.8432,2.7665,2.768,2.7006,2.5203,2.5012,2.4831,2.4495,2.4478,2.4356,2.417,2.3816,2.3482,2.3165,2.3117,2.2832,2.231,2.2537,2.2537,2.231,2.231,2.231,2.231,2.231,2.231,2.231,2.231,2.231,2.231,2.231,2.231,2.231,2.231,2.2254,2.218,0.0,0.0,0.0,0.0,0.0,0.0,0.0,0.0,0.0,0.0,0.0,0.0,0.0,0.0,0.0,0.0,0.0,0.0,0.0,0.0,1.8579,1.9075,1.988,2.0454,2.0751,2.1255,2.1663,2.1997,2.2197,2.1736,2.0723,2.0842,1.9936,1.812,1.82,1.8042,1.7828,1.8042,1.8099,1.8025,1.7828,1.7355,1.6761,1.6258,1.6386,0.0,0.0,0.0,0.0,0.0,0.0,0.0,2.0636,2.0597,2.0619,2.172,2.1651,2.1343,2.2096,2.231,0.0,0.0,2.3007,2.3727,2.3688,2.4389,2.4838,2.4316,2.419,2.419,2.419,2.419,2.419,2.419,2.419,2.4704,2.6135,2.6379,2.7073,2.8908,2.8614,2.8256,2.8269,2.7238,2.6293,2.5606,2.511,2.4666,2.4284,2.4247,2.4114,2.3816,2.3477,2.3141,2.2822,2.2607,2.2415,2.231,2.2377,2.2349,2.231,2.231,2.231,2.231,2.231,2.231,2.231,2.231,2.231,2.231,2.231,2.231,2.231,2.231,2.1886,2.1291,0.0,0.0,0.0,0.0,0.0,0.0,0.0,0.0,0.0,0.0,0.0,0.0,0.0,0.0,0.0,0.0,0.0,0.0,0.0,0.0,1.8414,1.9383,1.9817,2.0227,2.0649,2.1054,2.1224,2.1191,2.1275,2.099,2.0396,2.0192,1.9347,1.7998,1.822,1.8031,1.759,1.8101,1.7939,1.7313,1.7133,1.6686,1.6079,1.5691,1.5904,1.6423,1.6733,0.0,0.0,0.0,0.0,0.0,0.0,0.0,2.0866,2.1469,2.1411,2.1226,2.1799,0.0,0.0,2.2237,0.0,2.3397,2.3453,2.3911,2.4302,2.4205,2.419,2.419,2.419,2.419,2.419,2.419,2.452,2.5199,2.6429,2.6924,2.7687,2.9052,2.8548,2.8147,2.8295,2.7315,2.6408,2.5741,2.5398,2.4869,2.4014,2.4113,2.3976,2.3477,2.33,2.3045,2.2695,2.2409,2.231,2.231,2.231,2.231,2.231,2.231,2.231,2.231,2.231,2.231,2.231,2.231,2.231,2.231,2.231,2.2163,2.2003,2.2209,2.1869,2.1275,0.0,0.0,0.0,0.0,0.0,0.0,0.0,0.0,0.0,0.0,0.0,0.0,0.0,0.0,0.0,0.0,0.0,0.0,0.0,0.0,0.0,1.963,1.969,1.9839,2.0162,2.0088,2.0008,1.9951,1.9855,1.9922,2.0139,1.9682,1.8996,1.8223,1.8694,1.8294,1.7374,1.8261,1.7906,1.6797,1.6739,1.6296,1.5641,1.5284,1.5519,0.0,1.6143,1.7106,1.8385,1.8479,0.0,0.0,0.0,0.0,2.0751,2.0959,2.0991,2.1055,2.1399,0.0,2.1718,2.218,2.2463,0.0,2.3045,2.3346,2.3649,2.4016,2.417,2.419,2.419,2.419,2.419,2.419,2.4759,2.5456,2.6282,2.709,2.7897,2.8705,2.8352,2.7994,2.7843,2.7435,2.6681,2.554,2.5541,2.5077,2.3852,2.3937,2.3774,2.3212,2.3141,2.2947,2.2634,2.2398,2.231,2.231,2.231,2.231,2.231,2.231,2.231,2.231,2.231,2.231,2.231,2.231,2.2237,2.218,2.218,2.1899,2.1521,2.1945,2.1764,2.1399,0.0,0.0,0.0,0.0,0.0,0.0,0.0,0.0,0.0,0.0,0.0,0.0,0.0,0.0,0.0,0.0,0.0,0.0,0.0,0.0,0.0,1.966,1.969,1.9696,1.9692,1.9174,1.8922,1.9001,1.8438,1.8524,0.0,0.0,1.9038,1.7901,1.8586,1.831,1.7308,1.7455,1.7246,1.6787,1.6489,1.5862,1.5057,1.4742,0.0,0.0,0.0,1.6291,1.7217,1.7693,1.7919,0.0,0.0,0.0,1.9797,2.0735,2.0991,2.0991,2.1055,0.0,2.1718,0.0,2.2338,2.2426,0.0,0.0,2.3021,0.0,2.3996,2.419,2.419,2.419,2.419,2.419,2.4281,2.463,2.5458,2.6245,2.7071,2.786,2.7886,2.7577,2.6857,2.6896,2.6228,2.4542,2.4926,2.4944,2.4169,2.361,2.3282,2.3189,2.2923,2.2625,2.2349,2.2338,2.231,2.231,2.231,2.231,2.231,2.231,2.231,2.231,2.231,2.231,2.231,2.231,2.2061,2.1688,2.1688,2.143,2.1086,2.1166,2.0894,2.0467,0.0,0.0,0.0,0.0,0.0,0.0,0.0,0.0,0.0,0.0,0.0,0.0,0.0,0.0,0.0,0.0,0.0,0.0,0.0,0.0,0.0,1.9121,1.9495,1.9551,1.92,1.8957,1.851,1.7972,1.7702,0.0,0.0,1.8967,1.8977,0.0,0.0,1.8846,1.7847,1.8478,1.7987,1.6734,1.6539,1.5757,0.0,0.0,0.0,0.0,0.0,0.0,1.6876,1.7479,1.796,1.8362,1.8834,0.0,0.0,0.0,1.9983,2.0379,2.0862,2.1275,2.1718,0.0,2.231,2.236,2.2634,2.2695,2.2848,2.3323,2.3544,2.3692,2.3896,2.3917,2.3917,2.3917,2.446,2.5017,2.5348,2.6465,2.7402,2.775,2.7402,2.7163,2.7255,2.6532,2.5723,2.4925,2.4965,2.4635,2.3685,2.3369,2.3038,2.2712,2.2686,2.2573,2.231,2.231,2.231,2.231,2.231,2.231,2.231,2.231,2.231,2.231,2.231,2.231,2.2282,2.2032,2.1794,2.1582,2.1337,2.1023,2.0649,2.0894,2.0682,2.0314,0.0,0.0,0.0,0.0,0.0,0.0,0.0,0.0,0.0,0.0,0.0,0.0,0.0,0.0,0.0,0.0,0.0,0.0,0.0,0.0,0.0,1.8823,1.9236,1.9207,1.8688,1.8427,1.7918,1.7118,0.0,0.0,1.8126,1.8595,1.8991,0.0,1.9739,1.9275,0.0,0.0,0.0,0.0,0.0,0.0,0.0,0.0,0.0,0.0,0.0,0.0,0.0,0.0,1.7522,1.7703,1.8082,1.8471,0.0,0.0,0.0,0.0,0.0,0.0,2.1568,2.2152,2.231,2.2349,0.0,0.0,2.2686,0.0,2.3014,2.3063,2.3392,2.3522,2.3566,2.3566,2.4284,2.4871,2.4951,2.6096,2.6991,2.7181,2.6585,2.6435,2.7126,2.6101,2.5271,2.499,2.4842,2.4364,2.3382,2.3165,2.2908,2.2535,2.2652,2.2573,2.231,2.231,2.231,2.231,2.231,2.231,2.2282,2.218,2.2106,2.2106,2.2106,2.2106,2.2077,2.1628,2.1368,2.1228,2.0943,2.0565,2.0193,2.0532,2.0465,2.0158,0.0,0.0,0.0,0.0,0.0,0.0,0.0,0.0,0.0,0.0,0.0,0.0,0.0,0.0,1.7087,1.6713,0.0,0.0,0.0,0.0,0.0,1.9113,1.8887,0.0,1.8171,1.7171,1.6585,1.6552,0.0,0.0,1.8094,1.865,1.9188,1.9692,1.9844,1.9271,1.8206,0.0,0.0,0.0,0.0,0.0,0.0,0.0,0.0,0.0,0.0,0.0,0.0,0.0,0.0,1.4959,1.6345,1.6636,1.6683,0.0,0.0,0.0,0.0,2.1039,0.0,2.2077,2.231,2.231,0.0,0.0,2.2415,2.266,2.2527,2.2426,2.2712,2.3021,2.323,2.323,2.3271,2.3422,2.3747,2.4247,2.4813,2.5452,2.5208,2.5125,2.5472,2.5458,2.4953,2.3862,2.4182,2.4207,2.3707,2.3069,2.2873,2.3141,2.2873,2.2573,2.231,2.231,2.231,2.231,2.231,2.231,2.2282,2.1823,2.1658,2.1658,2.1658,2.1658,2.1582,2.1213,2.0748,2.0382,2.0348,2.0089,1.9711,1.9747,1.9747,1.9711,0.0,0.0,0.0,0.0,0.0,0.0,0.0,0.0,0.0,0.0,0.0,0.0,0.0,1.6445,1.5703,1.6201,1.6442,0.0,0.0,0.0,0.0,1.8256,1.9177,1.9218,1.8131,1.772,1.718,0.0,0.0,1.718,1.8113,1.864,1.9206,1.969,1.9756,1.9337,1.8651,1.8651,0.0,0.0,0.0,0.0,0.0,0.0,0.0,0.0,0.0,0.0,0.0,0.0,0.0,0.0,0.0,0.0,0.0,0.0,0.0,0.0,0.0,0.0,0.0,2.1628,2.1853,2.1928,2.2237,2.231,2.2338,2.2426,2.2377,2.2321,2.2426,2.2678,2.2873,2.2873,2.3069,2.3236,2.3369,2.4157,2.4815,2.5034,2.516,2.5262,2.5383,2.4746,2.4145,2.3732,2.3454,2.3245,2.3063,2.2669,2.249,2.2624,2.2517,2.2415,2.231,2.231,2.231,2.231,2.231,2.231,2.2282,2.1823,2.1582,2.1582,2.1007,2.0943,2.1181,2.0715,2.0449,2.028,2.0035,1.9854,1.969,1.969,1.969,1.9639,0.0,0.0,0.0,0.0,0.0,0.0,0.0,0.0,0.0,0.0,0.0,0.0,0.0,0.0,1.5616,1.626,1.6757,1.7088,1.7196,1.8377,1.8824,1.8241,1.9359,1.9396,1.8131,1.7935,1.738,1.6522,1.687,1.7408,0.0,1.8625,1.9184,1.969,1.969,1.9403,0.0,0.0,0.0,1.737,0.0,0.0,1.5735,0.0,0.0,0.0,0.0,0.0,0.0,0.0,0.0,0.0,0.0,0.0,0.0,0.0,0.0,0.0,1.8734,0.0,0.0,0.0,2.129,2.1538,2.1974,2.2077,2.2106,2.2282,2.231,2.231,2.231,2.2453,2.2563,2.2563,2.2755,2.2933,2.3021,2.3697,2.4241,2.4464,2.4596,2.4699,2.4821,2.4042,2.35,2.3369,2.2947,0.0,2.2695,2.2537,2.2409,2.2409,2.2349,2.231,2.231,2.2135,2.2135,2.231,2.2135,2.2077,2.2032,2.1598,2.129,2.1134,2.0416,2.0364,2.0731,2.0296,2.0089,2.0054,1.9803,1.969,1.969,1.969,1.9603,1.9369,0.0,0.0,0.0,0.0,0.0,0.0,0.0,0.0,0.0,1.9353,0.0,0.0,0.0,0.0,0.0,1.6955,1.7434,1.7859,1.8207,1.8392,1.8672,1.9177,0.0,0.0,0.0,1.7599,1.7047,1.6522,1.6515,1.7079,1.8101,1.8615,1.9146,1.966,1.966,1.9337,1.8863,0.0,1.8548,1.7968,0.0,1.651,1.644,0.0,0.0,0.0,1.6702,1.6389,0.0,1.6729,0.0,0.0,0.0,0.0,0.0,0.0,0.0,0.0,0.0,0.0,0.0,0.0,0.0,0.0,2.1491,0.0,2.1718,2.218,2.2282,2.2282,2.2282,2.2282,2.2282,2.2282,2.2282,2.2388,2.266,2.2695,2.2947,2.3588,2.3392,2.3346,2.3649,2.3392,2.3045,2.2721,2.2695,2.2695,2.2695,2.2695,2.2695,2.2695,2.2453,2.2282,2.2282,2.1823,2.1823,2.2254,2.1794,2.1582,2.1552,2.115,2.0715,2.0246,1.9839,1.9894,2.0246,1.9839,1.969,1.969,1.969,1.969,1.969,1.969,1.9369,1.8893,0.0,0.0,0.0,0.0,0.0,0.0,0.0,0.0,0.0,0.0,0.0,0.0,0.0,1.7374,1.7288,1.7747,1.8165,1.8619,1.9059,1.983,2.0004,1.9369,2.0115,1.978,1.8145,1.7953,1.7432,1.6522,1.6879,1.7221,1.7516,1.8068,1.8397,0.0,1.8556,1.8238,1.7762,1.8153,0.0,1.6863,1.6182,1.6144,0.0,0.0,0.0,0.0,0.0,1.6158,1.6319,0.0,1.6634,1.572,0.0,0.0,0.0,0.0,0.0,0.0,1.646,0.0,0.0,0.0,0.0,0.0,2.0975,0.0,2.1658,2.1764,2.1794,2.1794,2.1794,2.1794,2.1794,2.1794,2.2077,2.2338,2.2398,2.259,2.2772,2.2947,2.3117,2.3253,2.3346,2.3045,2.2797,0.0,2.2527,2.2398,2.2398,2.2398,2.2398,2.2398,2.2349,2.2135,2.1794,2.1658,2.1538,2.1354,2.1229,2.115,2.115,2.0682,2.023,1.9763,1.9339,1.9192,1.9325,1.9588,1.969,1.969,1.969,1.969,1.969,1.969,1.9369,1.8855,0.0,0.0,0.0,0.0,0.0,0.0,1.8629,1.8708,1.8758,0.0,0.0,0.0,0.0,0.0,1.7772,1.8382,1.8844,1.9245,1.9519,2.0457,2.0553,1.9568,2.0241,1.9849,1.8152,1.7862,1.7342,1.6522,1.682,1.7063,1.7325,1.7625,1.791,1.8085,0.0,0.0,0.0,0.0,0.0,0.0,1.6149,0.0,0.0,1.5806,1.5957,0.0,0.0,0.0,1.6552,1.6879,1.6429,0.0,0.0,0.0,0.0,0.0,0.0,0.0,0.0,0.0,0.0,0.0,0.0,0.0,2.0249,2.0765,2.1102,0.0,2.1337,2.1337,2.1337,2.1337,2.1399,2.1582,2.1823,2.2077,2.2282,2.2527,2.2695,2.2695,2.2873,2.2996,2.2996,2.273,2.2537,2.2537,2.2215,2.1945,2.1751,2.1915,2.2003,2.2003,2.2003,2.1899,2.1582,2.1228,2.1039,2.0991,2.0797,2.0731,2.0682,2.023,1.9763,1.9273,1.8788,1.8574,1.8574,1.8893,1.9169,1.9406,1.9603,1.9566,1.9369,1.9369,1.9043,1.8496,0.0,0.0,0.0,1.7312,1.8106,1.8954,1.9353,1.9126,1.9029,0.0,1.8182,1.7312,0.0,0.0,0.0,0.0,1.9406,1.9711,1.9767,2.0485,2.059,1.9788,1.9997,1.952,1.813,1.7559,1.7031,1.6522,1.6522,1.6751,1.72,1.72,1.7488,1.7912,0.0,0.0,0.0,0.0,0.0,1.6522,1.6522,1.6522,0.0,0.0,1.6552,1.6595,1.6522,1.6552,1.6595,1.6522,1.5744,0.0,0.0,0.0,0.0,0.0,1.4283,0.0,0.0,0.0,0.0,0.0,1.8159,0.0,1.9492,1.9969,2.0429,0.0,2.0926,2.0926,2.0926,2.0959,2.115,2.1559,2.1691,2.1866,2.2237,2.25,2.266,2.266,2.266,2.266,2.266,2.2381,2.2237,2.2282,2.1869,2.143,2.1086,2.1399,2.1612,2.1688,2.1628,2.1582,2.1521,2.0699,2.0483,2.0829,2.0416,2.0212,2.0128,1.9728,1.9222,1.8688,1.8224,1.8027,1.8027,1.8027,1.8341,1.8855,1.9332,1.9244,1.8817,1.8817,1.8458,1.7947,0.0,0.0,0.0,1.6752,1.7544,1.8288,1.8366,1.8688,1.8765,1.8444,1.7733,1.7463,0.0,0.0,0.0,0.0,1.9639,1.9844,2.0153,2.0338,2.0352,2.0208,1.9868,1.9202,1.8115,1.757,1.7044,1.6522,1.6522,1.6534,1.667,1.667,1.6696,1.682,1.682,0.0,0.0,0.0,0.0,1.6522,1.6522,1.6522,1.6522,1.6522,1.6752,1.7076,1.6637,1.6795,1.7076,1.6637,1.6008,1.5398,0.0,0.0,0.0,1.4468,0.0,0.0,0.0,0.0,0.0,0.0,1.843,0.0,1.9566,1.999,2.032,0.0,2.0435,2.0449,2.0449,2.0764,2.1215,2.1891,2.2254,2.2439,2.2321,2.2349,2.2388,2.2388,2.2388,2.2388,2.2388,2.1969,2.1899,2.2282,2.1869,2.1552,2.1491,2.1552,2.1764,2.2135,2.1794,2.143,2.1118,2.0583,2.0193,1.9945,1.9839,1.9573,1.9177,1.9066,1.8521,1.7626,1.7504,1.7463,1.7463,1.7463,1.7787,1.8263,1.838,1.8341,1.8263,1.8263,1.7907,1.7422,0.0,0.0,0.0,1.6595,1.7394,1.8027,1.7747,1.8185,1.8302,1.7787,1.7463,0.0,0.0,0.0,0.0,0.0,0.0,0.0,0.0,2.0185,2.0076,1.9624,1.934,1.8713,1.7728,1.6867,1.6447,1.6522,1.62,1.62,1.6522,1.6522,1.6371,1.612,1.6396,1.6358,0.0,0.0,1.6522,1.6522,1.6522,0.0,1.6522,1.6522,1.6837,1.7229,1.668,1.668,1.6824,1.6225,1.5864,0.0,1.5231,1.4926,1.4744,0.0,1.5141,1.532,0.0,0.0,0.0,1.7895,0.0,0.0,0.0,1.9671,2.0119,2.0422,2.0222,2.0106,2.0457,2.0907,2.1446,2.2,2.2578,2.3033,2.3354,2.2886,2.2436,2.231,2.231,2.231,2.231,2.2106,2.1957,2.1957,2.1538,2.1213,2.0959,2.1165,2.1415,2.1645,2.1415,2.1213,2.0991,2.0058,1.9507,1.9281,1.9043,1.8765,1.8496,1.8224,1.7827,1.7312,1.7034,1.6909,1.6909,1.6909,1.7076,1.7353,1.7907,1.7947,1.7706,1.7706,1.7544,1.7271,1.7229,0.0,0.0,1.6595,1.7312,1.7787,1.7394,0.0,0.0,0.0,0.0,0.0,0.0,0.0,0.0,0.0,0.0,0.0,0.0,1.9918,1.966,1.8796,1.8607,1.8011,1.6992,1.6056,1.5834,1.6318,1.584,1.5917,1.6522,1.6522,1.6283,1.5869,1.6321,1.6271,0.0,0.0,0.0,1.6522,0.0,1.6522,1.6522,1.6595,1.6909,1.7229,1.6795,1.6595,1.6423,1.5808,1.5676,1.5676,1.505,1.4971,0.0,0.0,0.0,0.0,0.0,0.0,0.0,0.0,0.0,1.9069,0.0,0.0,0.0,2.0393,2.0176,2.0042,2.0594,2.1197,2.1733,2.2223,0.0,0.0,0.0,2.371,0.0,2.2773,2.2479,2.2361,2.2513,2.2649,2.2379,2.1554,2.1535,2.1213,2.0465,2.0781,2.0991,2.0991,2.0926,2.0813,2.0715,1.9528,1.8855,1.8727,1.8302,1.8066,1.7947,1.7504,1.7229,1.7105,1.668,1.6522,1.6522,1.6522,1.6522,1.6595,1.7463,1.7544,1.7146,1.7146,1.7146,1.7076,1.6595,1.6595,0.0,0.0,1.6993,1.7394,1.7312,0.0,0.0,0.0,0.0,0.0,0.0,0.0,0.0,0.0,0.0,0.0,1.969,0.0,0.0,1.8238,1.7706,1.6936,1.5816,1.568,1.5633,1.5718,1.5641,1.5917,1.6522,1.6522,1.6484,1.6421,1.6497,1.6484,0.0,0.0,1.6522,0.0,1.6522,1.6522,0.0,1.7034,1.7229,1.7312,1.7229,1.6909,1.6423,0.0,1.5952,1.6281,0.0,1.5864,1.6293,1.638,0.0,0.0,0.0,0.0,0.0,0.0,1.8846,0.0,1.9611,0.0,1.9705,1.9794,0.0,2.0611,2.0691,0.0,0.0,0.0,0.0,0.0,2.4435,2.4636,2.4603,2.4282,2.3105,2.2564,2.3207,2.3849,2.3391,2.1215,2.2606,2.2818,2.1038,2.0959,2.0991,2.0991,2.0583,2.0196,1.9748,1.92,1.865,1.8185,1.8145,1.7867,1.7394,1.7353,1.7034,1.6595,1.6522,1.6522,1.6522,1.6522,1.6522,1.6522,1.6637,1.6637,1.6595,1.6595,1.6595,1.6595,1.6522,1.6522,0.0,0.0,1.6951,1.7188,0.0,0.0,0.0,0.0,0.0,0.0,0.0,0.0,0.0,0.0,0.0,1.9579,1.9256,0.0,0.0,1.7678,1.739,1.6751,1.5605,1.4898,1.4876,1.5596,1.5233,1.5558,1.6522,1.6522,1.6346,1.6057,1.6371,1.6333,1.607,0.0,1.6522,0.0,0.0,1.6795,0.0,1.6752,1.6837,1.6879,1.7188,1.6951,1.6479,0.0,1.6281,0.0,0.0,0.0,0.0,1.6522,0.0,0.0,0.0,0.0,0.0,0.0,0.0,0.0,1.9241,0.0,1.9803,2.0205,0.0,0.0,0.0,0.0,0.0,0.0,2.39,2.4672,0.0,0.0,2.4551,2.5096,0.0,0.0,2.341,2.3869,2.3498,2.1867,2.2818,2.2766,2.1103,2.0748,2.0583,2.0583,2.0416,2.0058,1.9606,1.8826,1.8185,1.7626,1.7312,1.7034,1.6837,1.6837,1.671,1.6522,1.6522,1.6522,1.6522,1.6522,1.6522,1.6522,1.6522,1.6522,1.6522,1.6522,1.6522,1.6522,1.6281,0.0,0.0,0.0,1.6837,1.7015,1.6766,1.7238,1.7832,1.8631,0.0,0.0,2.0055,2.0182,0.0,0.0,1.973,1.9524,1.8936,0.0,1.8551,1.6893,1.6919,1.6342,1.4909,1.4323,1.4501,1.5335,1.5096,1.5466,1.6522,1.6522,1.6308,1.5944,1.6333,1.6296,1.5944,0.0,1.6522,1.6522,1.6909,1.6837,1.6522,1.6522,1.6522,1.6552,1.6951,1.6837,1.6436,1.6107,1.6218,0.0,1.6037,1.6146,1.6357,0.0,0.0,0.0,1.713,0.0,0.0,0.0,0.0,0.0,0.0,0.0,0.0,0.0,2.036,0.0,0.0,0.0,2.3251,0.0,0.0,2.4603,0.0,2.4632,0.0,0.0,0.0,0.0,0.0,2.4082,2.39,2.2497,2.3211,2.2927,2.1119,2.055,2.0162,1.9919,1.9919,1.9621,1.897,1.8235,1.7626,1.7076,1.668,1.6522,1.6522,1.6522,1.6522,1.6522,1.6522,1.6522,1.6522,1.6522,1.6522,1.6522,1.6522,1.6522,1.6522,1.6522,1.6522,1.6522,1.572,1.6095,0.0,0.0,0.0,1.671,1.7262,1.7865,1.8645,1.9704,2.0401,2.0793,2.0706,0.0,0.0,0.0,0.0,1.9613,1.8936,1.8503,1.7476,1.5727,0.0,1.5392,1.3135,1.4116,1.4693,1.4709,1.5276,1.5908,1.6522,1.6522,1.6509,1.6497,1.6509,1.6509,1.6497,1.6509,1.6522,1.6522,1.6522,1.6522,1.6522,0.0,1.6522,1.6522,1.6522,0.0,0.0,1.5152,1.5453,0.0,0.0,0.0,0.0,0.0,0.0,0.0,0.0,0.0,0.0,1.8176,0.0,0.0,0.0,0.0,1.8291,0.0,0.0,1.9912,1.9958,2.0738,0.0,0.0,0.0,0.0,0.0,0.0,2.5244,2.6522,2.5546,0.0,0.0,2.5038,2.4989,0.0,2.4067,2.3801,2.1135,2.055,1.9884,1.8954,1.893,1.8444,1.7381,1.7353,1.7076,1.6522,1.6522,1.6522,1.6522,1.6522,1.6522,1.6522,1.6522,1.6522,1.6522,1.6522,1.6522,1.6522,1.6522,1.6522,1.6522,1.6522,1.6522,1.6522,0.0,0.0,0.0,0.0,0.0,1.7275,1.784,1.8396,1.9165,2.0355,2.0306,2.0613,2.1773,2.1012,2.0413,2.0389,2.0019,1.9447,1.849,1.8242,1.7553,1.6254,1.5571,1.4888,1.4139,1.41,1.4283,1.4722,1.567,1.6442,1.7087,1.7087,1.7087,1.7074,1.6685,1.6522,0.0,0.0,0.0,0.0,0.0,1.6522,1.6522,0.0,1.6522,1.6522,1.6522,1.6238,0.0,1.5787,1.5693,1.5638,1.551,1.573,1.6014,1.6014,1.6165,1.6386,0.0,0.0,1.7495,1.7638,0.0,0.0,0.0,0.0,0.0,0.0,0.0,0.0,0.0,0.0,0.0,0.0,0.0,0.0,0.0,0.0,2.4408,2.439,2.4395,0.0,0.0,0.0,0.0,0.0,2.2946,2.256,2.0644,2.0124,1.9594,1.893,1.8893,1.838,1.7312,1.7312,1.7034,1.6522,1.6522,1.6522,1.6522,1.6522,1.6522,1.6522,1.6522,1.6522,1.6522,1.6522,1.6522,1.6522,1.6522,1.6748,1.7087,1.7087,1.7087,1.7149,1.7421,0.0,0.0,0.0,1.7285,1.7865,1.8405,1.9158,1.9982,2.098,2.107,2.1407,2.2367,2.1489,2.0745,2.0654,2.0172,1.9462,1.8555,1.8057,1.7342,1.6177,1.5152,1.4417,1.407,1.402,1.4352,1.4959,1.6118,1.7016,1.7664,1.7513,1.7413,1.735,1.6773,1.6522,1.6522,1.6522,1.6522,0.0,0.0,1.6522,0.0,0.0,1.6522,1.6522,0.0,1.623,1.5818,1.5753,1.5575,1.5423,1.5359,1.5531,1.5797,1.5797,1.5956,1.626,1.6676,1.6888,0.0,1.7805,1.7869,0.0,1.8131,0.0,1.7895,0.0,0.0,0.0,0.0,0.0,0.0,0.0,0.0,0.0,0.0,2.3438,2.3555,2.2639,2.3369,2.3729,0.0,0.0,2.2841,2.1837,2.2227,2.188,0.0,1.9909,1.9369,1.865,1.8612,1.8013,1.6714,1.6714,1.6502,1.6194,1.6194,1.6281,1.6522,1.6522,1.6522,1.6522,1.6522,1.6522,1.6522,1.6522,1.6522,1.6522,1.6522,1.6873,1.7388,1.7388,1.7501,1.7727,1.7521,1.7859,1.8141,1.7664,1.8016,1.8543,1.907,2.0139,2.1088,2.1615,2.2647,2.3125,2.2551,2.2518,2.2044,2.0762,2.0254,1.9706,1.8996,1.788,1.6741,1.5544,1.4885,1.4026,1.2978,1.3872,1.4774,1.5508,1.6618,1.7505,1.8242,1.7697,1.7447,1.7438,1.6823,1.6559,1.6559,1.6559,1.6547,1.6522,1.6522,1.6522,1.6522,1.6547,1.6547,1.6522,1.6522,1.643,1.6162,1.5153,1.5235,1.5522,1.4522,1.4756,1.541,1.541,1.5921,1.6652,1.739,1.7221,1.719,1.8659,1.8044,0.0,0.0,0.0,1.7491,0.0,0.0,0.0,0.0,0.0,0.0,0.0,0.0,0.0,0.0,0.0,2.2732,2.1322,2.2377,2.2987,0.0,2.2925,2.2716,2.1404,2.1951,2.1755,0.0,1.997,1.928,1.8145,1.8052,1.7259,1.5632,1.5588,1.5588,1.5588,1.5632,1.5952,1.6522,1.6522,1.6522,1.6522,1.6522,1.6522,1.6522,1.6522,1.6522,1.6522,1.6547,1.6936,1.7463,1.7463,1.7815,1.8279,1.8598,1.9021,1.961,2.0313,2.0552,2.069,2.084,2.1483,2.2084,2.2642,2.266,2.288,2.3596,2.2546,2.1668,2.1372,2.0836,1.9838,1.8296,1.7472,1.6539,1.5421,1.4345,1.372,1.3585,1.4129,1.4771,1.551,1.6978,1.8069,1.8758,1.8238,1.8188,1.8568,1.7589,1.7162,1.7162,1.7162,1.6911,1.6522,1.6522,1.6522,1.6559,0.0,1.6886,1.6522,1.6522,1.6451,1.6373,1.6479,1.6227,1.5823,1.5898,1.5682,1.541,1.541,1.5921,1.6578,1.6916,1.7209,1.7622,1.8707,1.7909,1.7082,0.0,0.0,0.0,0.0,0.0,0.0,0.0,0.0,0.0,0.0,0.0,0.0,0.0,0.0,0.0,1.961,1.9918,2.0753,2.2194,2.1564,2.1255,2.1583,2.1756,2.1273,1.9914,0.0,2.0216,1.8173,1.7652,1.686,1.5632,1.5588,1.5588,1.5588,1.6051,1.6337,1.6522,1.6522,1.6522,1.6522,1.6522,1.6522,1.6522,1.6522,1.6522,1.6559,1.6986,1.7752,1.8606,1.8606,1.8945,1.9397,2.01,2.0526,2.1179,2.2058,2.2623,2.2698,2.1958,2.2121,2.251,2.3002,2.2845,2.2927,2.3564,2.2598,2.1792,2.1583,2.1006,2.0135,1.8821,1.7664,1.6706,1.6047,1.4424,1.3537,1.3665,1.3872,0.0,1.5379,1.678,1.7982,1.8858,1.83,1.8412,1.8933,1.7807,1.7436,1.7727,1.7488,1.7338,1.7212,1.6722,1.6672,0.0,1.6974,1.681,1.6522,1.6522,1.6463,1.6385,1.6717,1.6553,1.631,1.6261,1.6315,1.6244,1.5575,1.614,1.7025,1.7135,1.6993,1.7178,1.853,1.7641,1.6576,1.726,1.6888,1.6428,0.0,1.6965,1.7277,0.0,0.0,0.0,0.0,0.0,0.0,0.0,0.0,0.0,0.0,1.896,1.95,2.0784,2.0212,2.0073,2.0819,2.1124,2.0843,1.978,2.0436,2.0014,1.8173,1.7813,1.6845,1.5231,1.5723,1.5723,1.5231,1.582,1.6238,1.6522,1.6522,1.6522,1.6522,1.6522,1.6522,1.6534,1.6785,1.6898,1.6974,1.779,1.848,1.8983,1.8983,1.9359,1.9798,2.1581,2.2046,2.2573,2.299,2.4017,2.4268,2.2937,2.2811,2.3,2.3414,2.3356,2.333,2.3328,2.2707,2.2065,2.1568,2.1016,2.0348,1.9569,1.7959,1.695,1.6718,1.4696,1.3537,1.3527,1.3527,1.4069,0.0,1.6373,1.75,1.8634,1.81,1.8187,1.8796,0.0,0.0,0.0,1.7464,1.7513,1.7897,1.6904,1.6861,1.7325,1.6723,1.6442,1.6392,1.6455,1.6479,1.6478,1.6608,1.6779,1.6852,1.6428,1.6907,1.7357,1.6083,1.6687,1.7731,1.7664,1.6949,1.6546,1.8143,1.716,1.5977,1.6565,1.6629,1.6758,1.7445,1.7365,1.7502,1.8621,0.0,0.0,0.0,0.0,0.0,0.0,0.0,0.0,0.0,1.8491,0.0,1.881,1.899,1.9266,1.977,2.0488,2.0517,1.9646,0.0,1.9331,1.8028,1.7982,1.7024,1.5085,1.5915,1.5915,1.5027,1.5468,1.5952,1.638,1.638,1.638,1.638,1.6466,1.6522,1.6559,1.7137,1.7463,1.7689,1.8581,1.8958,1.912,1.9008,1.9359,1.9798,2.2083,2.2611,2.2965,2.3053,2.369,2.4343,2.4933,2.5423,2.5598,2.5209,2.4793,2.4478,2.4467,2.3188,2.2088,2.1579,2.1026,1.9953,1.808,1.7676,1.6785,1.5225,1.4428,1.3862,1.3527,1.3527,1.4264,0.0,1.6337,1.7217,1.834,1.7824,1.7655,0.0,0.0,0.0,1.6554,1.6503,0.0,1.6701,1.6541,1.6861,1.7318,1.6657,1.6149,1.5824,1.6269,1.6739,1.7256,1.775,1.78,1.7756,1.8113,1.7935,1.7578,1.7302,1.7841,1.8407,1.7984,1.7693,1.7541,1.7526,1.6367,1.5395,1.5913,1.5574,1.5255,1.5719,1.6718,1.756,1.7813,0.0,0.0,0.0,0.0,0.0,0.0,0.0,0.0,0.0,0.0,1.6516,1.7428,1.8374,1.921,1.9816,2.0923,2.0799,1.9128,0.0,1.9727,0.0,1.696,1.6764,0.0,0.0,1.6553,1.6847,1.6443,1.6102,1.5764,1.5764,1.5764,1.5776,1.6281,1.6522,1.6559,1.7137,1.7915,1.8719,1.8455,1.8894,1.961,1.9183,1.9359,1.9748,2.3429,2.3602,2.3753,2.4318,2.4644,2.5109,2.5912,2.6527,2.6691,2.6113,2.5069,2.4417,2.4417,2.3156,2.211,2.1568,2.0994,1.9998,1.8289,1.7825,1.7038,1.5713,1.4894,1.4272,1.3823,1.3606,1.412,1.5332,1.5891,1.6704,1.7712,1.7445,1.7416,1.7556,0.0,1.6916,0.0,0.0,1.6551,1.6859,1.6616,1.666,1.6834,1.6212,1.5621,1.5175,1.5418,1.5706,1.6214,1.7716,1.7861,1.7618,1.8465,1.8447,1.8124,1.7688,1.8112,1.8655,1.8405,1.7885,1.7531,1.7914,1.6866,1.5864,1.6623,1.6014,1.5497,1.6367,1.7135,1.7841,1.8608,1.9074,0.0,0.0,0.0,0.0,0.0,0.0,1.6872,0.0,0.0,0.0,0.0,1.6983,1.7672,1.8041,1.8807,1.8753,0.0,0.0,1.8562,0.0,0.0,0.0,1.6395,0.0,1.6769,1.6441,1.6416,1.6312,1.6051,1.6051,1.6254,1.6536,1.6816,1.7124,1.7438,1.8003,1.8706,1.9371,1.8844,1.9108,1.9698,1.8894,1.9108,1.9761,2.4353,2.4516,2.4757,2.5473,2.5799,2.6101,2.6634,2.7005,2.708,2.6596,2.5169,2.414,2.4166,2.3034,2.2092,2.1564,2.1037,2.0147,1.8785,1.8034,1.7275,1.6536,1.5296,1.4482,1.4133,1.3599,1.3785,1.4629,1.5432,1.6134,1.6842,1.7121,0.0,0.0,0.0,0.0,0.0,0.0,1.6575,1.6883,1.6455,1.6325,1.6313,1.5507,1.4915,1.4514,1.4514,1.4514,1.4832,1.7095,1.7363,1.6997,1.8294,1.8643,1.8443,1.7855,1.8123,1.8501,1.8118,1.7456,1.702,1.7669,1.6942,1.6237,1.6961,1.6321,1.589,1.694,1.739,1.7927,1.9004,1.8823,0.0,0.0,0.0,0.0,0.0,0.0,1.6464,0.0,0.0,0.0,1.5222,1.5433,1.5719,1.5992,0.0,0.0,1.6279,0.0,0.0,0.0,0.0,1.7198,1.6484,0.0,1.6973,1.6158,1.638,1.6411,1.6293,1.6293,1.6635,1.7182,1.733,1.7765,1.8405,1.8844,1.9271,1.961,1.9309,1.9371,1.9547,1.8819,1.9083,1.9798,2.3518,2.5001,2.6168,2.5674,2.644,2.7143,2.7205,2.7256,2.708,2.6596,2.549,2.4698,2.4718,2.3282,2.2083,2.1543,2.1036,2.0155,1.877,1.8024,1.7273,1.6546,1.5019,1.4125,1.4099,1.3328,1.3326,1.4181,1.5041,1.5468,1.5615,1.6825,0.0,0.0,0.0,0.0,1.3971,1.5612,1.6056,1.5652,1.569,1.5987,1.6208,1.4587,1.3909,1.3862,1.3862,1.3862,1.4172,1.5963,1.6162,1.5995,1.8083,1.8446,1.8127,1.8076,1.8076,1.7823,1.623,1.6124,1.6221,1.5313,1.536,1.5646,1.5553,1.5311,1.5279,1.5771,1.6786,1.7553,1.7326,1.7653,1.7566,0.0,0.0,0.0,0.0,0.0,1.5303,1.4832,0.0,0.0,1.4765,1.4174,1.4053,1.4722,1.6174,0.0,0.0,0.0,0.0,1.7243,1.7795,1.852,1.9383,1.8022,1.7532,1.7934,1.6904,1.6133,1.5676,1.5676,1.5963,1.6512,1.7124,1.7978,1.8908,1.8958,1.9008,1.9145,1.956,1.9472,1.9096,1.951,1.971,1.9798,2.5042,2.5934,2.6559,2.659,2.6979,2.7281,2.7281,2.7281,2.708,2.6596,2.5494,2.4805,2.4798,2.3278,2.2186,2.2018,2.1188,2.0254,1.93,1.821,1.7278,1.6553,1.5235,1.4537,1.4528,1.3922,1.3912,1.4538,1.5362,1.5801,1.5811,1.6338,1.6172,1.54,1.5419,1.5159,1.4645,1.4985,1.5022,1.485,1.4981,1.4994,1.4769,1.4078,1.36,1.3334,1.3684,1.3815,1.3984,1.5294,1.5559,1.5728,1.7762,1.7769,1.7039,1.749,1.7016,1.6305,1.6097,1.5874,1.5758,1.6159,1.5881,1.5694,1.6346,1.5549,1.4819,1.5279,1.5685,1.6121,1.6844,1.6852,1.6512,1.5987,0.0,0.0,0.0,0.0,0.0,1.4731,0.0,1.4625,1.4531,1.4497,1.478,0.0,0.0,0.0,0.0,0.0,0.0,1.7473,0.0,1.8078,1.8832,1.7511,1.6952,1.7187,1.671,1.6355,1.6139,1.6139,1.663,1.7538,1.8446,1.9083,1.9497,1.9497,1.9497,1.9484,1.9384,1.9397,1.9484,1.9371,1.9535,1.9798,2.5804,2.6439,2.6879,2.7431,2.7519,2.7519,2.7519,2.7394,2.7017,2.6332,2.5382,2.4815,2.4772,2.3455,2.2455,2.2333,2.1455,2.0628,1.9988,1.8487,1.7378,1.6874,1.5527,1.4785,1.4785,1.4355,1.4287,1.459,1.5332,1.5625,1.5498,1.5752,1.5671,1.5238,1.5139,1.4916,1.4657,1.4533,1.4405,1.4254,1.4399,1.419,1.3779,1.3589,1.3372,1.3238,1.3637,1.3909,1.4197,1.509,1.5249,1.5421,1.7075,1.6891,1.6063,1.6397,1.5792,1.5054,1.53,1.5107,1.5024,1.6021,1.5759,1.5504,1.6349,1.5415,1.4435,1.4676,1.4793,1.5172,1.6009,1.601,1.5878,1.5739,0.0,0.0,0.0,1.4675,0.0,1.4853,1.4864,1.4763,1.4408,1.487,1.5279,0.0,0.0,0.0,0.0,0.0,0.0,0.0,0.0,0.0,1.8442,1.7162,1.6423,1.6238,1.6238,1.6151,1.5976,1.6311,1.6992,1.7991,1.8845,1.9327,1.9475,1.9475,1.9377,1.9216,1.9233,1.9384,1.9547,1.9334,1.9484,1.9798,2.5004,2.6233,2.7444,2.7996,2.8097,2.8097,2.8097,2.7632,2.6911,2.5757,2.5167,2.4809,2.4806,2.379,2.287,2.2346,2.1825,2.1235,2.0707,1.8732,1.7587,1.7567,1.5792,1.4785,1.4785,1.4355,1.4077,1.4087,0.0,1.458,1.4116,1.5019,1.5175,1.4836,1.5404,1.4671,1.3002,1.4175,1.4369,1.3831,1.3805,1.3826,1.3732,1.3152,1.3286,1.3779,1.3815,1.419,1.4789,1.5377,1.5197,1.4888,1.5924,1.589,1.5389,1.4806,1.4609,1.4377,1.3243,1.3392,1.3836,1.3836,1.4294,1.4709,1.472,1.4558,1.4202,1.3659,1.443,1.4987,1.4291,1.5103,1.5763,1.5438,0.0,0.0,0.0,1.4855,0.0,1.5263,1.5319,1.5077,1.444,1.4851,1.4986,0.0,0.0,0.0,0.0,0.0,0.0,1.719,1.7662,0.0,1.897,1.7305,1.6194,1.5632,1.5632,1.5276,1.4766,1.5892,1.6752,1.7351,1.7716,1.8239,1.8715,1.8715,1.8405,1.8052,1.9317,1.9484,1.9046,1.961,1.9798,1.9798,2.5734,2.698,2.7896,2.8072,2.8411,2.8536,2.816,2.7632,2.6866,2.5766,2.5099,2.4648,2.428,2.3528,2.304,2.2857,2.2043,2.146,2.1244,1.8976,1.7607,1.7623,1.578,1.4917,1.5205,1.4795,1.4434,1.4077,1.4853,1.499,1.459,1.485,1.4743,1.4352,1.4501,1.4296,1.3738,1.3852,1.3771,1.3559,1.3322,1.32,1.3152,1.2968,1.3286,1.3862,1.4283,1.4778,1.532,1.5543,1.5454,1.5244,1.4737,1.4451,1.4322,1.4132,1.3769,1.337,1.3008,1.3065,1.3286,1.3684,1.3647,1.3563,1.4003,1.3714,1.3303,1.3126,1.36,1.3949,1.3753,1.4255,1.4636,1.4512,1.4072,0.0,1.453,0.0,1.4291,1.4818,1.4548,1.4217,1.3989,1.4468,0.0,0.0,0.0,0.0,0.0,0.0,0.0,0.0,1.8119,0.0,1.9547,1.7928,1.6946,1.661,1.6266,1.5974,1.5823,1.6904,1.7593,1.7943,1.8301,1.856,1.8715,1.8715,1.8619,1.8541,1.9465,1.9377,1.8827,1.8984,1.9044,1.9044,2.6806,2.7632,2.8109,2.8109,2.8222,2.8197,2.7846,2.7331,2.664,2.5711,2.5146,2.458,2.4041,2.3466,2.3078,2.3078,2.2013,2.1233,2.1088,1.8788,1.7376,1.717,1.5826,1.5119,1.541,1.5156,1.4805,1.4375,1.459,1.4557,1.4291,1.4337,1.4176,1.3863,1.3876,1.3806,1.3633,1.3372,1.3273,1.3249,1.3018,1.2881,1.2881,1.2881,1.3286,1.3862,1.4236,1.4732,1.5276,1.5276,1.5096,1.4767,1.405,1.3637,1.3457,1.3457,1.32,1.2881,1.2881,1.2881,1.2968,1.3372,1.32,1.3017,1.3372,1.3152,1.2881,1.2881,1.3096,1.332,1.3477,1.3721,1.3902,1.4058,1.3779,1.37,1.4302,1.4062,1.3973,1.4522,1.4259,1.3934,0.0,1.4195,1.4541,0.0,0.0,0.0,0.0,0.0,1.6876,1.8283,1.7947,1.8298,1.951,1.8304,1.736,1.6764,1.6158,1.5864,1.5935,1.7149,1.7697,1.7774,1.7937,1.81,1.8286,1.8286,1.8447,1.8768,1.9202,1.9254,1.9097,1.8821,1.8715,1.8715,2.8009,2.8109,2.8109,2.8109,2.7657,2.7281,2.7281,2.6816,2.6251,2.5674,2.5119,2.4595,2.4042,2.347,2.3078,2.3078,2.1846,2.0911,2.0404,1.846,1.7032,1.6547,1.575,1.5342,1.5361,1.5332,1.5117,1.4697,1.3867,1.3481,1.3518,1.3447,1.3478,1.3518,1.3478,1.3262,1.2881,1.2881,1.2881,1.2881,1.2881,1.2881,1.2881,1.2881,1.3286,1.3815,1.3815,1.419,1.4709,1.4606,1.419,1.3721,1.3616,1.3218,1.2822,1.2881,1.2881,1.2881,1.2881,1.2881,1.2881,1.2881,1.2881,1.2881,1.2881,1.2881,1.2881,1.2881,1.2881,1.3008,1.3428,1.3506,1.3633,1.397,1.376,1.369,1.421,1.3945,1.3841,1.4289,0.0,0.0,1.3557,1.3972,1.3771,0.0,0.0,0.0,0.0,0.0,1.6244,1.7017,1.7388,1.8058,1.9033,1.8482,1.7496,1.6182,1.5579,1.531,1.533,1.6746,1.7275,1.7126,1.6938,1.7154,1.7688,1.7633,1.8004,1.8715,1.8768,1.915,1.9643,1.8939,1.8715,1.8715,2.7925,2.8109,2.8109,2.8109,2.7657,2.7281,2.7281,2.6816,2.6251,2.5674,2.516,2.4628,2.408,2.347,2.3078,2.3078,2.2445,2.1534,2.0498,1.9014,1.7675,1.6537,1.5477,1.4924,1.4962,1.4615,1.4228,1.3809,1.3281,1.3204,1.349,1.3174,1.3182,1.3506,1.3195,1.2998,1.2881,1.2881,1.2881,1.2881,1.2881,1.2881,1.2881,1.2881,1.3286,1.3815,1.3815,1.419,1.456,1.3585,1.3158,1.287,1.1846,1.1765,1.2187,1.2715,1.2881,1.2881,1.2881,1.2881,1.2881,1.2881,1.2881,1.2881,1.2881,1.2881,1.2881,1.2881,1.2881,1.3008,1.3428,1.3506,1.3545,1.3643,1.3574,1.3439,1.3253,1.2686,1.2615,0.0,1.3272,1.3067,1.3455,1.3179,1.306,0.0,0.0,1.3475,1.4988,1.5602,1.6369,1.74,1.7891,1.8568,1.9623,1.8495,1.7243,1.5807,1.6045,1.6287,1.6475,1.7792,1.8422,1.8471,1.7737,1.7793,1.8394,1.7841,1.8004,1.8768,1.9307,1.9307,1.8939,1.8768,1.8715,1.8715,2.875,2.8875,2.88,2.8524,2.8021,2.757,2.7318,2.6816,2.6352,2.6025,2.5308,2.4713,2.4375,2.3257,2.2552,2.2552,2.1741,2.0805,1.9961,1.832,1.6991,1.6065,1.5419,1.4978,1.4775,1.4547,1.4131,1.3506,1.2759,1.2516,1.2723,1.2497,1.2494,1.2707,1.285,1.2881,1.2881,1.2881,1.2881,1.2881,1.255,1.2608,1.2832,1.2206,1.2325,1.2841,1.2541,1.2628,1.2812,1.2132,1.1886,1.1747,1.1007,1.1065,1.1466,1.2187,1.2618,1.2832,1.2501,1.2657,1.293,1.3125,1.3027,1.293,1.3125,1.3018,1.2939,1.3125,1.3164,1.3301,1.3721,1.3633,1.3506,1.3506,1.3506,1.3326,1.2682,1.2735,1.2931,1.3227,1.3203,1.3361,1.3737,1.3475,1.3357,1.3582,1.3499,0.0,1.5151,1.6271,1.7288,1.8224,1.8728,1.9264,2.0,1.8363,1.7357,1.6991,1.7307,1.779,1.8467,1.9234,1.9499,1.923,1.8436,1.834,1.8661,1.8274,1.8555,1.9202,1.9254,1.9254,1.915,1.8821,1.8715,1.8715,2.9691,2.9654,2.9415,2.9001,2.8335,2.772,2.7344,2.6816,2.6533,2.6533,2.5387,2.4647,2.4723,2.2902,2.1765,2.1774,2.0531,1.9571,1.9235,1.7402,1.6121,1.5547,1.5303,1.5047,1.4721,1.4482,1.3961,1.3246,1.2145,1.1665,1.1665,1.1665,1.1665,1.1665,1.2304,1.2569,1.2569,1.2569,1.2569,1.252,1.1873,1.203,1.2461,1.1275,1.1166,1.1566,1.1015,1.0813,1.0762,1.0661,1.0669,1.061,1.0517,1.0568,1.0762,1.1316,1.2089,1.2608,1.2129,1.2403,1.2998,1.3477,1.3281,1.3086,1.3506,1.333,1.3174,1.3525,1.3603,1.373,1.415,1.3887,1.3643,1.3769,1.3691,1.3355,1.2784,0.0,1.3774,1.3232,1.3678,1.4067,1.4175,1.4121,1.3957,1.369,1.4279,1.4799,1.5042,1.6946,1.8332,1.9116,1.9527,1.9715,1.982,1.8121,1.7691,1.8449,1.8564,1.9241,2.0411,2.0539,2.033,1.9841,1.9017,1.878,1.8994,1.8804,1.915,1.9747,1.9097,1.9202,1.9579,1.9044,1.8821,1.8715,2.9779,2.9026,2.8486,2.8863,2.7708,2.6841,2.7218,2.6816,2.6533,2.6533,2.4848,2.3851,2.4275,2.2183,2.0931,2.1307,1.9793,1.8751,1.8725,1.8084,1.7165,1.6055,1.4887,1.4263,1.4218,1.2931,1.2191,1.2063,1.1292,1.0965,1.0965,1.0965,1.0965,1.0965,1.1074,1.1124,1.1124,1.1124,1.1124,1.1124,1.1015,1.1015,1.1124,1.0864,1.0864,1.0965,1.0864,1.0813,1.0712,1.0167,0.9961,0.9865,0.9316,0.951,0.9961,1.0064,1.0965,1.208,1.2608,1.2822,1.3066,1.3848,1.3721,1.3516,1.3945,1.3984,1.3902,1.397,1.398,1.417,1.46,1.4336,1.4277,1.5,1.4512,1.4107,1.4366,0.0,1.3552,1.4407,1.411,1.4054,1.4632,1.4166,1.3928,1.4087,1.4291,1.486,1.5869,1.7526,1.8751,1.9274,1.9569,1.9225,1.8158,1.784,1.7809,1.8062,1.8714,1.9516,2.0423,2.0327,2.0645,2.1095,1.9169,1.9116,2.0316,1.9185,1.915,1.9798,1.9695,1.9307,1.8927,1.9423,1.9254,1.8768,2.9327,2.8837,2.8536,2.8875,2.8549,2.8134,2.7783,2.7256,2.6664,2.5773,2.4985,2.4306,2.3845,2.1843,2.0522,2.039,1.9114,1.8292,1.8257,1.7483,1.6723,1.6153,1.5049,1.4096,1.329,1.2287,1.1616,1.1266,1.0568,1.0261,1.0261,1.0261,1.0261,1.0261,1.0669,1.0594,1.0214,1.0214,1.0214,1.0163,0.9386,0.9541,1.012,0.9415,0.937,0.9673,0.9703,0.971,0.9666,0.9361,0.9263,0.9211,0.891,0.9008,0.9309,0.971,1.0771,1.2017,1.2936,1.2912,1.2898,1.416,1.3828,1.3415,1.4276,1.4307,1.4145,1.4434,1.4482,1.4619,1.5049,1.4775,1.4521,1.4653,1.4194,1.3847,1.4049,1.4046,1.4236,1.4784,1.5138,1.5374,1.5498,1.5446,1.5415,1.5543,1.5832,1.6275,1.6779,1.8198,1.9078,1.9299,1.9404,1.9062,1.8229,1.8229,1.8468,1.9026,1.9818,2.0807,2.182,2.1513,2.1162,2.0868,1.9973,1.9576,1.9633,1.9364,1.9475,1.9798,1.9798,1.9579,1.9307,1.9695,1.9579,1.9359,2.8337,2.8375,2.8448,2.8687,2.89,2.8687,2.7717,2.7133,2.6282,2.4861,2.4519,2.4071,2.3051,2.1259,1.9965,1.9489,1.8564,1.8008,1.8008,1.6689,1.6094,1.6341,1.4964,1.3571,1.2164,1.1582,1.1065,1.0568,0.9917,0.9562,0.9562,0.9562,0.9451,0.934,0.9843,0.9658,0.8958,0.8958,0.8958,0.8912,0.7817,0.8029,0.886,0.8019,0.8025,0.8482,0.8738,0.8804,0.8804,0.8804,0.8804,0.8804,0.8804,0.8804,0.8956,0.9614,1.0669,1.1822,1.2861,1.2622,1.244,1.3998,1.3577,1.3108,1.4364,1.4467,1.4446,1.501,1.5166,1.5332,1.5664,1.5264,1.4885,1.4808,0.0,1.4036,1.4285,1.4872,1.5327,1.5327,1.6138,1.6602,1.625,1.6533,1.6777,1.6875,1.7197,1.7422,1.7529,1.867,1.9299,1.9299,1.9299,1.9,1.8451,1.8814,1.9254,1.9769,2.0765,2.1715,2.2494,2.1886,2.1093,2.0276,2.0278,1.9734,1.8947,1.9537,1.9798,1.9798,1.9798,1.9695,1.9527,1.9527,1.9423,1.9307,2.6737,2.7115,2.7557,2.8072,2.7356,2.6549,2.6045,2.5529,2.4826,2.3761,2.2506,2.1682,2.157,1.9839,1.8741,1.8662,1.8281,1.8008,1.8008,1.6486,1.5999,1.6974,1.4198,1.2053,1.0972,1.0277,0.9917,0.9865,0.9211,0.8857,0.8857,0.8857,0.8527,0.7877,0.7931,0.7498,0.6848,0.6848,0.6848,0.6794,0.6691,0.6745,0.6902,0.7503,0.7717,0.7883,0.8533,0.8804,0.8804,0.8804,0.8804,0.8804,0.8804,0.8804,0.8956,0.9614,1.032,1.1013,1.1827,1.1722,1.1676,1.2822,1.2763,1.2764,1.396,1.455,1.5059,1.5836,1.6299,1.6602,1.6631,1.5879,1.5661,1.6963,0.0,0.0,1.6946,1.6805,1.6553,1.6553,1.6646,1.6719,1.6689,1.6655,1.6894,1.7305,1.7363,1.7549,1.7939,1.8834,1.9299,1.9299,1.9299,1.89,1.8027,1.9349,1.9733,1.9388,2.0731,2.119,2.0782,1.9912,1.9693,1.9884,1.9317,1.9229,1.955,1.975,1.9798,1.9798,1.9798,1.9359,1.8768,1.8768,1.834,1.7841,2.5205,2.5404,2.5589,2.5734,2.5136,2.4751,2.4832,2.4482,2.3677,2.2347,2.1869,2.0963,1.935,1.7662,1.6391,1.5553,1.6057,1.626,1.5771,1.4264,1.358,1.3885,1.27,1.1473,1.0226,0.9909,0.9614,0.9159,0.891,0.8804,0.8804,0.8804,0.8427,0.7723,0.7723,0.7015,0.5923,0.5923,0.5923,0.5869,0.5441,0.555,0.5982,0.6745,0.6745,0.6573,0.8209,0.848,0.8209,0.8646,0.8804,0.8804,0.8804,0.8804,0.8857,0.9113,0.9361,0.97,1.0341,1.0703,1.1246,1.2666,1.2538,1.2414,1.387,1.433,1.4753,1.5885,1.6201,1.6201,1.5871,1.5523,1.5195,1.4781,0.0,1.4887,1.5928,1.6218,1.6505,1.7064,1.7363,1.7422,1.7168,1.7373,1.7598,1.7764,1.7773,1.7842,1.8008,1.8337,1.8462,1.8462,1.8462,1.8337,1.8008,1.9085,1.9477,1.9309,2.0391,2.077,2.059,2.0268,1.9585,1.8805,1.9746,1.9703,1.8952,1.9473,1.9672,1.9582,1.8738,1.8286,1.8015,1.8015,1.7852,1.7633,2.3809,2.385,2.3993,2.4334,2.3622,2.3275,2.3955,2.323,2.2027,2.0239,2.0169,1.9429,1.7278,1.5877,1.4605,1.3515,1.4197,1.433,1.3306,1.1457,1.0784,1.1559,1.0871,1.0085,0.9145,0.8915,0.856,0.8103,0.8103,0.8103,0.8103,0.8103,0.7717,0.7015,0.7015,0.6303,0.5164,0.5164,0.5164,0.5164,0.4677,0.4893,0.5542,0.6036,0.6091,0.6086,0.7824,0.8156,0.783,0.8533,0.8804,0.8804,0.8804,0.8804,0.8804,0.8804,0.8871,0.9051,0.9546,1.0089,1.0792,1.1951,1.1841,1.1772,1.3114,1.351,1.3952,1.5219,1.5601,1.5551,1.5354,1.5016,1.4698,1.4274,1.4312,1.4806,1.5939,1.641,1.6977,1.7687,1.791,1.7949,1.7793,1.8037,1.8154,1.8018,1.8135,1.8144,1.8018,1.8008,1.8008,1.8008,1.8008,1.8008,1.8008,1.9055,1.9312,1.8921,1.9965,2.0227,1.9759,1.9759,1.9072,1.7926,1.9521,1.949,1.8317,1.8965,1.9177,1.9074,1.8001,1.7578,1.7578,1.7357,1.7246,1.7246,2.2751,2.2582,2.2936,2.4253,2.3036,2.219,2.3272,2.1707,1.9591,1.7252,1.6977,1.6539,1.5472,1.4577,1.3746,1.303,1.2937,1.2402,1.1036,0.8196,0.7827,1.0714,0.8648,0.7515,0.767,0.6966,0.6588,0.6588,0.6588,0.6588,0.6588,0.6588,0.6199,0.5487,0.5487,0.5109,0.4519,0.4519,0.4519,0.4519,0.4519,0.4893,0.5487,0.5487,0.5928,0.6696,0.745,0.7723,0.783,0.8533,0.8804,0.8804,0.8804,0.8804,0.8804,0.8804,0.9011,0.925,0.9599,0.9893,1.0187,1.0551,1.0624,1.08,1.1648,1.2097,1.2695,1.3884,1.4438,1.4794,1.5097,1.4386,1.4307,1.628,1.579,1.5877,1.7725,1.8008,1.8164,1.8584,1.8262,1.8174,1.8594,1.8633,1.8457,1.8047,1.8398,1.8447,1.8037,1.8008,1.8008,1.8008,1.8008,1.8008,1.8008,1.9363,1.9363,1.8018,1.9442,1.9342,1.8008,1.8008,1.7783,1.7448,1.8189,1.8228,1.7821,1.8178,1.8326,1.827,1.7768,1.7578,1.7468,1.6765,1.6492,1.6492,2.1211,2.1168,2.1308,2.1669,2.0279,1.8776,1.8095,1.7532,1.6918,1.6211,1.5152,1.4068,1.3138,1.1868,1.0744,0.9866,0.9568,0.9265,0.8711,0.7693,0.7412,0.8205,0.756,0.7081,0.6912,0.6696,0.6588,0.6588,0.6588,0.6588,0.6588,0.6588,0.6199,0.5487,0.5487,0.5109,0.4519,0.4519,0.4519,0.4519,0.4519,0.4625,0.4842,0.5324,0.5328,0.5336,0.7074,0.7343,0.7128,0.8374,0.8804,0.8804,0.8804,0.8804,0.8804,0.8804,0.9011,0.925,0.9599,0.9893,1.0187,1.0551,1.0624,1.08,1.1648,1.2026,1.2607,1.3876,1.4371,1.4449,1.4181,1.389,1.3882,1.445,1.495,1.5658,1.6853,1.7579,1.8057,1.8184,1.8086,1.8057,1.8184,1.8193,1.8144,1.8018,1.8125,1.8144,1.8018,1.8008,1.8008,1.8008,1.8008,1.8008,1.8008,1.8398,1.8398,1.8008,1.8398,1.8398,1.8008,1.8008,1.7783,1.7468,1.8582,1.8826,1.8365,1.8148,1.8077,1.7942,1.6612,1.6083,1.6026,1.5806,1.5748,1.5748,1.9835,1.9319,1.9285,2.042,1.8724,1.6581,1.4652,1.4575,1.4479,1.3594,1.2694,1.1852,1.1057,0.9854,0.8755,0.7961,0.7247,0.6996,0.7426,0.6768,0.6262,0.6182,0.6178,0.614,0.615,0.5878,0.5773,0.5773,0.5773,0.5773,0.5773,0.5773,0.555,0.5109,0.5109,0.4897,0.4519,0.4519,0.4519,0.4519,0.4519,0.468,0.4897,0.5054,0.5003,0.5113,0.6691,0.6966,0.6804,0.8321,0.8804,0.8804,0.8804,0.8884,0.8978,0.8978,0.9265,0.9626,0.9806,1.0067,1.0361,1.0655,1.0712,1.0744,1.1226,1.1525,1.1971,1.2817,1.3286,1.3412,1.3179,1.3455,1.3673,1.3673,1.4879,1.593,1.6498,1.7432,1.8076,1.8242,1.8115,1.8076,1.8242,1.8262,1.8262,1.8262,1.8105,1.8008,1.8008,1.8008,1.8008,1.8008,1.8008,1.8086,1.8252,1.8096,1.8008,1.8008,1.8008,1.8008,1.8008,1.8008,1.7871,1.7713,1.8475,1.8624,1.8328,1.7706,1.7513,1.7359,1.593,1.541,1.541,1.541,1.541,1.541,1.8408,1.7287,1.7106,1.9486,1.7643,1.4992,1.2439,1.2466,1.2126,1.0189,1.003,0.9856,0.9338,0.8368,0.7579,0.7017,0.5836,0.5634,0.6894,0.5601,0.4752,0.4694,0.4677,0.4883,0.5382,0.4787,0.4519,0.4519,0.4519,0.4519,0.4519,0.4519,0.4519,0.4519,0.4519,0.4519,0.4519,0.4519,0.4519,0.4519,0.4519,0.4842,0.5324,0.4732,0.4897,0.5487,0.6258,0.6534,0.6804,0.8321,0.8804,0.8811,0.8838,0.9025,0.919,0.9216,0.9679,1.0114,1.0114,1.0354,1.0661,1.0929,1.0815,1.0698,1.0698,1.0862,1.1142,1.141,1.1703,1.1991,1.2251,1.3025,1.36,1.3673,1.5226,1.6349,1.6498,1.7285,1.8007,1.8385,1.8173,1.8154,1.8545,1.8584,1.8523,1.8562,1.8281,1.8066,1.8066,1.8105,1.8105,1.8066,1.8105,1.8311,1.8691,1.8281,1.8066,1.8066,1.8027,1.8008,1.8008,1.8008,1.8008,1.8008,1.8008,1.8008,1.7949,1.7129,1.6787,1.6709,1.5859,1.5508,1.5469,1.5469,1.5449,1.541,1.6185,1.6127,1.5937,1.4366,1.275,1.1202,1.0137,1.0062,0.9916,0.9389,0.886,0.837,0.8128,0.6819,0.5911,0.5771,0.5505,0.5487,0.5749,0.5185,0.4826,0.4697,0.4575,0.4605,0.4736,0.457,0.4519,0.4519,0.4519,0.4519,0.4519,0.4519,0.4519,0.4519,0.4519,0.4519,0.4519,0.4519,0.4519,0.4519,0.4519,0.457,0.468,0.457,0.457,0.4787,0.5492,0.6091,0.6804,0.8321,0.8804,0.8844,0.9072,0.9137,0.923,0.9519,0.984,1.0114,1.0114,1.0501,1.0915,1.0982,1.1116,1.1236,1.1236,1.1463,1.1697,1.1757,1.2004,1.2225,1.2291,1.2445,1.2806,1.36,1.4027,1.4593,1.5376,1.6289,1.6959,1.7042,1.7627,1.8047,1.8135,1.8144,1.8281,1.8613,1.8555,1.8496,1.8496,1.8828,1.8857,1.8516,1.8828,1.9053,1.915,1.8721,1.8496,1.8496,1.8164,1.8008,1.8008,1.8008,1.8008,1.8008,1.8008,1.8008,1.7969,1.7451,1.7246,1.7187,1.666,1.623,1.5918,1.5918,1.5703,1.541,1.4044,1.4164,1.3977,1.2573,1.0115,0.8309,0.7936,0.8367,0.8566,0.8335,0.8136,0.7663,0.6683,0.6165,0.5744,0.5452,0.5428,0.5428,0.5428,0.5128,0.4931,0.4806,0.4653,0.4572,0.4572,0.4556,0.4519,0.4519,0.4519,0.4519,0.4519,0.4519,0.4519,0.4519,0.4519,0.4519,0.4519,0.4519,0.4519,0.4519,0.4519,0.4519,0.4519,0.4519,0.4519,0.457,0.5273,0.6195,0.7252,0.8196,0.8734,0.9065,0.9359,0.9546,0.9686,0.9846,1.0194,1.0534,1.0534,1.0862,1.1229,1.1376,1.1523,1.1597,1.1456,1.1657,1.187,1.187,1.2098,1.2305,1.2305,1.2659,1.3001,1.3223,1.4043,1.4684,1.4848,1.5591,1.6279,1.6714,1.7121,1.7501,1.794,1.8008,1.8105,1.832,1.8024,1.7834,1.7834,1.8309,1.8432,1.8216,1.8942,1.9385,1.958,1.916,1.8945,1.8936,1.8311,1.8008,1.8008,1.8008,1.8008,1.8008,1.8008,1.8008,1.7978,1.7559,1.7383,1.7314,1.667,1.6269,1.6096,1.583,1.5605,1.541,1.2519,1.2003,1.1774,1.1774,0.8908,0.649,0.6338,0.7069,0.7564,0.726,0.7529,0.7115,0.5596,0.5878,0.5978,0.5473,0.5428,0.5428,0.5428,0.5182,0.5036,0.4958,0.4785,0.4691,0.4691,0.4541,0.4529,0.4556,0.4529,0.4519,0.4519,0.4519,0.4519,0.4519,0.4519,0.4519,0.4519,0.4519,0.4519,0.4519,0.4519,0.4519,0.4519,0.4519,0.4519,0.4574,0.5144,0.622,0.7444,0.7875,0.8458,0.9134,0.9421,0.9834,1.02,1.0254,1.0648,1.1069,1.1069,1.1276,1.1563,1.1804,1.1904,1.1877,1.163,1.177,1.1957,1.2011,1.2211,1.2392,1.2445,1.3114,1.3422,1.2939,1.4162,1.5008,1.4462,1.501,1.5716,1.6469,1.6545,1.6774,1.7571,1.765,1.765,1.7719,1.7225,1.6987,1.7143,1.7432,1.7645,1.7809,1.8555,1.9211,1.9707,1.9377,1.9238,1.9385,1.8603,1.8144,1.8008,1.8008,1.8008,1.8008,1.8008,1.8008,1.7978,1.7637,1.749,1.7422,1.668,1.6348,1.6292,1.5713,1.5527,1.5508,1.2305,1.0875,0.9674,0.9674,0.8542,0.7326,0.6412,0.6409,0.6485,0.6201,0.6392,0.6275,0.549,0.55,0.5518,0.5435,0.5428,0.5428,0.5428,0.5209,0.5114,0.5101,0.484,0.4691,0.4691,0.4541,0.4584,0.466,0.4584,0.4519,0.4519,0.4519,0.4519,0.4519,0.4519,0.4519,0.4519,0.4519,0.4519,0.4519,0.4519,0.4519,0.4519,0.4519,0.4519,0.4536,0.4723,0.5436,0.6333,0.7013,0.7784,0.8528,0.8848,0.9686,1.0548,1.0802,1.1109,1.1369,1.1369,1.1583,1.1817,1.1857,1.2058,1.2231,1.2191,1.2211,1.2318,1.2647,1.2735,1.2766,1.3039,1.3165,1.3257,1.314,1.3376,1.3468,1.343,1.4158,1.4804,1.4888,1.5591,1.6154,1.623,1.6305,1.6313,1.6454,1.6656,1.7039,1.7712,1.7536,1.7601,1.8213,1.7821,1.8099,1.9122,1.8643,1.89,1.9824,1.9346,1.8721,1.8008,1.8008,1.8008,1.8008,1.8008,1.8008,1.8008,1.7949,1.793,1.791,1.7793,1.7529,1.7109,1.6279,1.6037,1.5918,1.2305,1.1626,1.0645,0.9523,0.8613,0.7702,0.649,0.618,0.615,0.6142,0.5985,0.5731,0.5663,0.5498,0.5428,0.5428,0.5428,0.5428,0.5428,0.5216,0.5131,0.5131,0.4931,0.4857,0.4935,0.4792,0.4789,0.4938,0.4619,0.4519,0.4519,0.4519,0.4519,0.4519,0.4519,0.4519,0.4519,0.4519,0.4519,0.4519,0.4519,0.4519,0.4519,0.4519,0.457,0.4609,0.4762,0.5333,0.6082,0.6657,0.7351,0.8101,0.8456,0.8914,0.9501,1.0159,1.017,1.0231,1.1383,1.152,1.1436,1.1959,1.2331,1.2505,1.2338,1.2565,1.2799,1.2835,1.2886,1.3046,1.3186,1.3213,1.3267,1.3427,1.3454,1.3514,1.3681,1.3871,1.4158,1.4591,1.5396,1.6,1.6,1.6,1.6,1.6076,1.5873,1.5937,1.6333,1.6412,1.653,1.6854,1.7171,1.7504,1.8069,1.8461,1.85,1.8104,1.9183,1.9189,1.8359,1.8359,1.8232,1.8008,1.8008,1.8008,1.794,1.7432,1.7217,1.7189,1.6955,1.6902,1.6973,1.6582,1.6279,1.6096]},{"header":{"parameterUnit":"m.s-1","parameterCategory":1,"la1":30.6,"la2":28.766,"lo1":-90.7593,"lo2":-88.6598,"dy":0.0162,"dx":0.0183,"nx":116,"ny":114,"refTime":"2023-05-27T06:00:00:Z","depth":0,"parameterNumber":3,"parameterNumberName":"V-component_of_WINDS"},"data":[0.0,0.0,0.0,0.0,0.0,0.0,0.0,0.0,0.0,0.0,0.0,0.0,0.0,0.0,0.0,0.0,0.0,0.0,0.0,0.0,0.0,0.0,0.0,0.0,0.0,0.0,0.0,0.0,0.0,0.0,0.0,0.0,0.0,0.0,0.0,0.0,0.0,0.0,0.0,0.0,0.0,0.0,0.0,0.0,0.0,0.0,0.0,0.0,0.0,0.0,0.0,0.0,0.0,0.0,0.0,0.0,0.0,0.0,0.0,0.0,0.0,0.0,0.0,0.0,0.0,0.0,0.0,0.0,0.0,0.0,0.0,0.0,0.0,0.0,0.0,0.0,0.0,0.0,0.0,0.0,0.0,0.0,0.0,0.0,0.0,0.0,0.0,0.0,0.0,0.0,0.0,0.0,0.0,0.0,0.0,0.0,0.0,0.0,0.0,0.0,0.0,0.0,0.0,0.0,0.0,0.0,0.0,0.0,0.0,0.0,0.0,0.0,0.0,0.0,0.0,0.0,0.0,0.0,0.0,0.0,0.0,0.0,0.0,0.0,0.0,0.0,0.0,0.0,0.0,0.0,0.0,0.0,0.0,0.0,0.0,0.0,0.0,0.0,0.0,0.0,0.0,0.0,0.0,0.0,0.0,0.0,0.0,0.0,0.0,0.0,0.0,0.0,0.0,0.0,0.0,0.0,0.0,0.0,0.0,0.0,0.0,0.0,0.0,0.0,0.0,0.0,0.0,0.0,0.0,0.0,0.0,0.0,0.0,0.0,0.0,0.0,0.0,0.0,0.0,0.0,0.0,0.0,0.0,0.0,0.0,0.0,0.0,0.0,0.0,0.0,0.0,0.0,0.0,0.0,0.0,0.0,0.0,0.0,0.0,0.0,0.0,0.0,0.0,0.0,0.0,0.0,0.0,0.0,0.0,0.0,0.0,0.0,0.0,0.0,0.0,0.0,0.0,0.0,0.0,0.0,0.0,0.0,0.0,0.0,0.0,0.0,0.0,0.0,0.0,0.0,0.0,0.0,0.0,0.0,0.0,0.0,0.0,0.0,0.0,0.0,0.0,0.0,0.0,0.0,0.0,0.0,0.0,0.0,0.0,0.0,0.0,0.0,0.0,0.0,0.0,0.0,0.0,0.0,0.0,0.0,0.0,0.0,0.0,0.0,0.0,0.0,0.0,0.0,0.0,0.0,0.0,0.0,0.0,0.0,0.0,0.0,0.0,0.0,0.0,0.0,0.0,0.0,0.0,0.0,0.0,0.0,0.0,0.0,0.0,0.0,0.0,0.0,0.0,0.0,0.0,0.0,0.0,0.0,0.0,0.0,0.0,0.0,0.0,0.0,0.0,0.0,0.0,0.0,0.0,0.0,0.0,0.0,0.0,0.0,0.0,0.0,0.0,0.0,0.0,0.0,0.0,0.0,0.0,0.0,0.0,0.0,0.0,0.0,0.0,0.0,0.0,0.0,0.0,0.0,0.0,0.0,0.0,0.0,0.0,0.0,0.0,0.0,0.0,0.0,0.0,0.0,0.0,0.0,0.0,0.0,0.0,0.0,0.0,0.0,0.0,0.0,0.0,0.0,0.0,0.0,0.0,0.0,0.0,0.0,0.0,0.0,0.0,0.0,0.0,0.0,0.0,0.0,0.0,0.0,0.0,0.0,0.0,0.0,0.0,0.0,0.0,0.0,0.0,0.0,0.0,0.0,0.0,0.0,0.0,0.0,0.0,0.0,0.0,0.0,0.0,0.0,0.0,0.0,0.0,0.0,0.0,0.0,0.0,0.0,0.0,0.0,0.0,0.0,0.0,0.0,0.0,0.0,0.0,0.0,0.0,0.0,0.0,0.0,0.0,0.0,0.0,0.0,0.0,0.0,0.0,0.0,0.0,0.0,0.0,0.0,0.0,0.0,0.0,0.0,0.0,0.0,0.0,0.0,0.0,0.0,0.0,0.0,0.0,0.0,0.0,0.0,0.0,0.0,0.0,0.0,0.0,0.0,0.0,0.0,0.0,0.0,0.0,0.0,0.0,0.0,0.0,0.0,0.0,0.0,0.0,0.0,0.0,0.0,0.0,0.0,0.0,0.0,0.0,0.0,0.0,0.0,0.0,0.0,0.0,0.0,0.0,0.0,0.0,0.0,0.0,0.0,0.0,0.0,0.0,0.0,0.0,0.0,0.0,0.0,0.0,0.0,0.0,0.0,0.0,0.0,0.0,0.0,0.0,0.0,0.0,0.0,0.0,0.0,0.0,0.0,0.0,0.0,0.0,0.0,0.0,0.0,0.0,0.0,0.0,0.0,0.0,0.0,0.0,0.0,0.0,0.0,0.0,0.0,0.0,0.0,0.0,0.0,0.0,0.0,0.0,0.0,0.0,0.0,0.0,0.0,0.0,0.0,0.0,0.0,0.0,0.0,0.0,0.0,0.0,0.0,0.0,0.0,0.0,0.0,0.0,0.0,0.0,0.0,0.0,0.0,0.0,0.0,0.0,0.0,0.0,0.0,0.0,0.0,0.0,0.0,0.0,0.0,0.0,0.0,0.0,0.0,0.0,0.0,0.0,0.0,0.0,0.0,0.0,0.0,0.0,0.0,0.0,0.0,0.0,0.0,0.0,0.0,0.0,0.0,0.0,0.0,0.0,0.0,0.0,0.0,0.0,0.0,0.0,0.0,0.0,0.0,0.0,0.0,0.0,0.0,0.0,0.0,0.0,0.0,0.0,0.0,0.0,0.0,0.0,0.0,0.0,0.0,0.0,0.0,0.0,0.0,0.0,0.0,0.0,0.0,0.0,0.0,0.0,0.0,0.0,0.0,0.0,0.0,0.0,0.0,0.0,0.0,0.0,0.0,0.0,0.0,0.0,0.0,0.0,0.0,0.0,0.0,0.0,0.0,0.0,0.0,0.0,0.0,0.0,0.0,0.0,0.0,0.0,0.0,0.0,0.0,0.0,0.0,0.0,0.0,0.0,0.0,0.0,0.0,0.0,0.0,0.0,0.0,0.0,0.0,0.0,0.0,0.0,0.0,0.0,0.0,0.0,0.0,0.0,0.0,0.0,0.0,0.0,0.0,0.0,0.0,0.0,0.0,0.0,0.0,0.0,0.0,0.0,0.0,0.0,0.0,0.0,0.0,0.0,0.0,0.0,0.0,0.0,0.0,0.0,0.0,0.0,0.0,0.0,0.0,0.0,0.0,0.0,0.0,0.0,0.0,0.0,0.0,0.0,0.0,0.0,0.0,0.0,0.0,0.0,0.0,0.0,0.0,0.0,0.0,0.0,0.0,0.0,0.0,0.0,0.0,0.0,0.0,0.0,0.0,0.0,0.0,0.0,0.0,0.0,0.0,0.0,0.0,0.0,0.0,0.0,0.0,0.0,0.0,0.0,0.0,0.0,0.0,0.0,0.0,0.0,0.0,0.0,0.0,0.0,0.0,0.0,0.0,0.0,0.0,0.0,0.0,0.0,0.0,0.0,0.0,0.0,0.0,0.0,0.0,0.0,0.0,0.0,0.0,0.0,0.0,0.0,0.0,0.0,0.0,0.0,0.0,0.0,0.0,0.0,0.0,0.0,0.0,0.0,0.0,0.0,0.0,0.0,0.0,0.0,0.0,0.0,0.0,0.0,0.0,0.0,0.0,0.0,0.0,0.0,0.0,0.0,0.0,0.0,0.0,0.0,0.0,0.0,0.0,0.0,0.0,0.0,0.0,0.0,0.0,0.0,0.0,0.0,0.0,0.0,0.0,0.0,0.0,0.0,0.0,0.0,0.0,0.0,0.0,0.0,0.0,0.0,0.0,0.0,0.0,0.0,0.0,0.0,0.0,0.0,0.0,0.0,0.0,0.0,0.0,0.0,0.0,0.0,0.0,0.0,0.0,0.0,0.0,0.0,0.0,0.0,0.0,0.0,0.0,0.0,0.0,0.0,0.0,0.0,0.0,0.0,0.0,0.0,0.0,0.0,0.0,0.0,0.0,0.0,0.0,0.0,0.0,0.0,0.0,0.0,0.0,0.0,0.0,0.0,0.0,0.0,0.0,0.0,0.0,0.0,0.0,0.0,0.0,0.0,0.0,0.0,0.0,0.0,0.0,0.0,0.0,0.0,0.0,0.0,0.0,0.0,0.0,0.0,0.0,0.0,0.0,0.0,0.0,0.0,0.0,0.0,0.0,0.0,0.0,0.0,0.0,0.0,0.0,0.0,0.0,0.0,0.0,0.0,0.0,0.0,0.0,0.0,0.0,0.0,0.0,0.0,0.0,0.0,0.0,0.0,0.0,0.0,0.0,0.0,0.0,0.0,0.0,0.0,0.0,0.0,0.0,0.0,0.0,0.0,0.0,0.0,0.0,0.0,0.0,0.0,0.0,0.0,0.0,0.0,0.0,0.0,0.0,0.0,0.0,0.0,0.0,0.0,0.0,0.0,0.0,0.0,0.0,0.0,0.0,0.0,0.0,0.0,0.0,0.0,0.0,0.0,0.0,0.0,0.0,0.0,0.0,0.0,0.0,0.0,0.0,0.0,0.0,0.0,0.0,0.0,0.0,0.0,0.0,0.0,0.0,0.0,0.0,0.0,0.0,0.0,0.0,0.0,0.0,0.0,0.0,0.0,0.0,0.0,0.0,0.0,0.0,0.0,0.0,0.0,0.0,0.0,0.0,0.0,0.0,0.0,0.0,0.0,0.0,0.0,0.0,0.0,0.0,0.0,0.0,0.0,0.0,0.0,0.0,0.0,0.0,0.0,0.0,0.0,0.0,0.0,0.0,0.0,0.0,0.0,0.0,0.0,0.0,0.0,0.0,0.0,0.0,0.0,0.0,0.0,0.0,0.0,0.0,0.0,0.0,0.0,0.0,0.0,0.0,0.0,0.0,0.0,0.0,0.0,0.0,0.0,0.0,0.0,0.0,0.0,0.0,0.0,0.0,0.0,0.0,0.0,0.0,0.0,0.0,0.0,0.0,0.0,0.0,0.0,0.0,0.0,0.0,0.0,0.0,0.0,0.0,0.0,0.0,0.0,0.0,0.0,0.0,0.0,0.0,0.0,0.0,0.0,0.0,0.0,0.0,0.0,0.0,0.0,0.0,0.0,0.0,0.0,0.0,0.0,0.0,0.0,0.0,0.0,0.0,0.0,0.0,0.0,0.0,0.0,0.0,0.0,0.0,0.0,0.0,0.0,0.0,0.0,0.0,0.0,0.0,0.0,0.0,0.0,0.0,0.0,0.0,0.0,0.0,0.0,0.0,0.0,0.0,0.0,0.0,0.0,0.0,0.0,0.0,0.0,0.0,0.0,0.0,0.0,0.0,0.0,0.0,0.0,0.0,0.0,0.0,0.0,0.0,0.0,0.0,0.0,0.0,0.0,0.0,0.0,0.0,0.0,0.0,0.0,0.0,0.0,0.0,0.0,0.0,0.0,0.0,0.0,0.0,0.0,0.0,0.0,0.0,0.0,0.0,0.0,0.0,0.0,0.0,0.0,0.0,0.0,0.0,0.0,0.0,0.0,0.0,0.0,0.0,0.0,0.0,0.0,0.0,0.0,0.0,0.0,0.0,0.0,0.0,0.0,0.0,0.0,0.0,0.0,0.0,0.0,0.0,0.0,0.0,0.0,0.0,0.0,0.0,0.0,0.0,0.0,0.0,0.0,0.0,0.0,0.0,0.0,0.0,0.0,0.0,0.0,0.0,0.0,0.0,0.0,0.0,0.0,0.0,0.0,0.0,0.0,0.0,0.0,0.0,0.0,0.0,0.0,0.0,0.0,0.0,0.0,0.0,0.0,0.0,0.0,0.0,0.0,0.0,0.0,0.0,0.0,0.0,0.0,0.0,0.0,0.0,0.0,0.0,0.0,0.0,0.0,0.0,0.0,0.0,0.0,0.0,0.0,0.0,0.0,0.0,0.0,0.0,0.0,0.0,0.0,0.0,0.0,0.0,0.0,0.0,0.0,0.0,0.0,0.0,0.0,0.0,0.0,0.0,0.0,0.0,0.0,0.0,0.0,0.0,0.0,0.0,0.0,0.0,0.0,0.0,0.0,0.0,0.0,0.0,0.0,0.0,0.0,0.0,0.0,0.0,0.0,0.0,0.0,0.0,0.0,0.0,0.0,0.0,-1.2237,0.0,0.0,0.0,0.0,0.0,0.0,0.0,0.0,0.0,0.0,0.0,0.0,0.0,0.0,0.0,0.0,0.0,0.0,0.0,0.0,0.0,0.0,0.0,0.0,0.0,0.0,0.0,0.0,0.0,0.0,0.0,0.0,0.0,0.0,0.0,0.0,0.0,0.0,0.0,-0.861,-0.865,-0.8143,-0.9594,-1.04,-1.0718,0.0,0.0,0.0,0.0,0.0,0.0,0.0,0.0,0.0,0.0,0.0,0.0,0.0,0.0,0.0,0.0,0.0,0.0,0.0,0.0,0.0,0.0,0.0,0.0,0.0,0.0,0.0,0.0,0.0,0.0,0.0,0.0,0.0,0.0,0.0,0.0,0.0,0.0,0.0,0.0,0.0,0.0,0.0,0.0,0.0,0.0,0.0,0.0,0.0,0.0,0.0,0.0,0.0,0.0,0.0,0.0,0.0,0.0,0.0,0.0,0.0,0.0,0.0,0.0,0.0,0.0,0.0,0.0,0.0,0.0,0.0,-1.2796,0.0,0.0,0.0,0.0,0.0,0.0,0.0,0.0,0.0,0.0,0.0,0.0,0.0,0.0,0.0,0.0,0.0,0.0,0.0,0.0,0.0,0.0,0.0,-0.5394,-0.6136,-0.6307,-0.6852,-0.7405,0.0,0.0,0.0,0.0,0.0,0.0,0.0,-0.8113,-0.7476,-0.602,-0.6725,-0.686,-0.6486,-0.8487,-1.0077,-1.1265,-1.2316,0.0,0.0,0.0,0.0,0.0,0.0,0.0,0.0,0.0,0.0,0.0,0.0,0.0,0.0,0.0,0.0,0.0,0.0,0.0,0.0,0.0,0.0,0.0,0.0,0.0,0.0,0.0,0.0,0.0,0.0,0.0,0.0,0.0,0.0,0.0,0.0,0.0,0.0,0.0,0.0,0.0,0.0,0.0,0.0,0.0,0.0,0.0,0.0,0.0,0.0,0.0,0.0,0.0,0.0,0.0,0.0,0.0,0.0,0.0,0.0,0.0,0.0,0.0,0.0034,0.0243,0.0105,-0.2795,-0.3565,-0.2795,-0.496,-0.9132,-1.4587,-1.6989,0.0,0.0,0.0,0.0,0.0,0.0,0.0,0.0,0.0,0.0,0.0,0.0,0.0,0.0,0.0,0.0,0.0,0.0,0.0,0.0,0.0,-0.5,-0.5813,-0.6826,-0.7433,-0.8028,-0.8561,0.0,0.0,0.0,0.0,0.0,-0.7919,-0.6908,-0.4959,-0.205,0.0271,0.0156,-0.2247,-0.5071,-0.8409,-1.2101,-1.3691,-1.4404,-1.4436,0.0,0.0,0.0,0.0,0.0,0.0,0.0,0.0,0.0,0.0,0.0,0.0,0.0,0.0,0.0,0.0,0.0,0.0,0.0,0.0,0.0,0.0,0.0,0.0,0.0,0.0,0.0,0.0,0.0,0.0,0.0,0.0,0.0,0.0,0.0,0.0,0.0,0.0,0.0,0.0,0.0,-0.7613,-0.8406,0.0,0.0,0.0,0.0,0.0,0.0,0.0,0.0,0.0,0.0,0.0,0.0,0.0,0.1365,0.3189,0.5245,0.6783,0.7725,0.8346,0.8176,0.7305,0.6346,0.4398,0.1747,0.1462,0.0,-0.8977,-1.1678,0.0,0.0,0.0,0.0,0.0,0.0,0.0,0.0,0.0,0.0,0.0,0.0,0.0,0.0,0.0,0.0,0.0,0.0,0.0,0.0,0.0,-0.4439,-0.5245,-0.6379,-0.73,-0.8171,-0.9044,-0.9609,0.0,0.0,0.0,-0.7724,-0.5044,-0.3594,-0.0592,0.4045,0.4387,0.3798,0.2199,-0.2057,-0.6449,-1.0808,-1.2149,-1.3398,-1.4525,-1.5226,0.0,0.0,0.0,0.0,0.0,0.0,0.0,0.0,0.0,0.0,0.0,0.0,0.0,0.0,0.0,0.0,0.0,0.0,0.0,0.0,0.0,0.0,0.0,0.0,0.0,0.0,0.0,0.0,0.0,0.0,0.0,0.0,0.0,0.0,0.0,0.0,0.0,0.0,0.0,-0.4365,-0.6542,-0.7416,-1.1228,-1.3321,0.0,0.0,0.0,0.0,0.0,0.0,0.0,0.0,0.0,0.3605,0.5639,0.7352,0.8652,1.0033,1.0713,1.0659,1.0767,1.0214,0.9085,0.8859,0.7346,0.509,0.8402,0.1518,-1.202,-1.1865,-1.1048,-0.9735,0.0,0.0,0.0,0.0,-0.4146,-0.3124,0.0,0.0,0.0,0.0,0.0,0.0,0.0,0.0,0.0,0.0,0.0,0.0,-0.299,-0.3591,-0.4483,-0.573,-0.7209,-0.8606,-0.9905,-1.0339,-1.0089,-0.902,-0.8039,-0.5837,-0.2306,0.0898,0.4787,0.9413,0.82,0.7009,0.5777,0.0734,-0.4063,-0.8554,-1.0103,-1.212,-1.4481,-1.5695,-1.5638,-1.4783,0.0,0.0,0.0,0.0,0.0,0.0,0.0,0.0,0.0,0.0,0.0,0.0,0.0,0.0,0.0,0.0,0.0,0.0,0.0,0.0,0.0,0.0,0.0,0.0,0.0,0.0,0.0,0.0,0.0,0.0,0.0,0.0,0.0,0.0,0.0,0.0,0.0,-0.1398,-0.4021,-0.4843,-0.9514,-1.208,0.0,0.0,0.0,0.0,0.0,0.0,0.6572,0.81,0.9111,0.9494,1.1159,1.2493,1.3422,1.3979,1.3735,1.2716,1.2093,1.146,1.0818,1.1082,1.037,0.9074,1.1673,0.2087,-1.5234,-1.3102,-0.9348,-0.501,-0.5644,-0.4725,-0.2938,-0.2139,-0.0496,0.1481,0.0,0.0,0.0,0.0,0.0,0.0,0.0,0.0,0.0,0.0,0.0,-0.1331,-0.1331,-0.2203,-0.3437,-0.5022,-0.7596,-0.983,-1.1491,-1.1623,-1.1105,-0.9962,-0.6467,-0.3384,-0.0967,0.6602,1.1268,1.2755,1.2603,1.0915,0.7675,0.3393,-0.1078,-0.5634,-0.8432,-1.1437,-1.4453,-1.5272,-1.5745,-1.5941,-1.6095,0.0,0.0,0.0,0.0,0.0,0.0,0.0,0.0,0.0,0.0,0.0,0.0,0.0,0.0,0.0,0.0,0.0,0.0,0.0,0.0,0.0,0.0,0.0,0.0,0.0,0.0,0.0,0.0,0.0,0.0,0.0,0.0,0.0,0.0,0.0,0.0,0.0,0.0,0.1265,-0.3572,0.0,0.0,0.0,0.0,0.6742,0.9523,1.2507,1.6181,1.6719,1.683,1.6597,1.6525,1.6839,1.7599,1.7646,1.6934,1.5481,1.3942,1.3708,1.4651,1.548,1.5537,1.4625,0.8467,-0.2263,-1.5292,-1.3894,-0.9625,-0.374,-0.1325,-0.1077,-0.1686,0.1423,0.3542,0.4988,0.0,0.0,0.0,0.0,0.0,0.0,0.0,0.0,-0.2067,-0.1021,0.0,0.0603,0.042,0.0256,-0.0986,-0.3814,-0.6188,-0.8417,-1.053,-1.1369,-1.0282,-0.692,-0.4062,0.0833,0.8065,1.2113,1.4441,1.5064,1.3067,1.0876,0.8541,0.4576,0.0313,-0.4159,-0.5856,-0.8279,-1.1193,-1.3661,-1.5346,-1.6297,-1.6238,-1.6068,0.0,0.0,0.0,0.0,0.0,0.0,0.0,0.0,0.0,0.0,0.0,0.0,0.0,0.0,0.0,0.0,0.0,0.0,0.0,0.0,0.0,0.0,0.0,0.0,0.0,0.0,0.0,0.0,0.0,0.0,0.0,0.0,0.0,0.0,0.0,0.0,0.0,0.4105,0.0548,0.0,-0.1859,0.0796,0.4128,0.7957,1.1505,1.4228,1.5933,1.5692,1.559,1.5749,1.5536,1.5805,1.6544,1.6684,1.6635,1.6387,1.4568,1.2954,1.1685,1.3557,1.3913,1.2844,0.8654,0.2824,-0.3705,-0.3245,-0.2845,-0.2096,0.2517,0.404,0.3872,0.5556,0.7013,0.8112,0.0,0.0,0.0,0.0,0.0,0.0,0.0,0.0,0.013,0.1672,0.3013,0.3753,0.3567,0.28,0.1069,-0.2031,-0.4654,-0.7296,-0.9966,-1.0132,-0.836,-0.4408,0.0413,0.6457,1.3905,1.553,1.6165,1.5894,1.3109,1.0708,0.8621,0.5449,0.1761,-0.2221,-0.3384,-0.5559,-0.8464,-1.1207,-1.3686,-1.5878,-1.6218,-1.667,-1.6882,0.0,0.0,0.0,0.0,0.0,0.0,0.0,0.0,0.0,0.0,0.0,0.0,0.0,0.0,0.0,0.0,0.0,0.0,0.0,0.0,0.0,0.0,0.0,0.0,0.0,0.0,0.0,0.0,0.0,0.0,0.0,0.0,0.0,0.0,0.0,0.9677,0.7437,0.4691,0.3309,0.4236,0.6108,0.8057,0.9896,1.2431,1.4051,1.4457,1.3959,1.3651,1.367,1.3794,1.4,1.4304,1.4814,1.5208,1.5501,1.358,1.1674,0.9882,1.0982,1.1074,1.0278,0.7911,0.5643,0.3547,0.3252,0.2439,0.1663,0.4923,0.6218,0.6387,0.7498,0.8501,0.9279,0.0,0.0,0.0,0.0,0.0,0.0,0.0,0.0523,0.2794,0.4299,0.6575,0.8025,0.7946,0.5371,0.2713,0.0426,-0.3099,-0.6508,-0.9695,-0.7891,-0.5383,-0.2412,0.696,1.329,1.58,1.6758,1.6607,1.5248,1.3084,1.0663,0.8044,0.5968,0.3324,0.0308,-0.1157,-0.3506,-0.6528,-0.8002,-1.0844,-1.4486,-1.6029,-1.7284,-1.8086,0.0,0.0,0.0,0.0,0.0,0.0,0.0,0.0,0.0,0.0,0.0,0.0,0.0,0.0,0.0,0.0,0.0,0.0,0.0,0.0,0.0,0.0,0.0,0.0,0.0,0.0,0.0,0.0,0.0,0.0,0.0,0.0,0.0,1.4279,1.3812,1.2901,1.1513,0.8865,0.864,1.2564,1.1739,1.1538,1.2965,1.2465,1.2279,1.261,1.2313,1.1744,1.0973,1.1686,1.1827,1.1317,1.24,1.2914,1.2881,1.1137,1.014,0.9757,0.8326,0.7687,0.7591,0.5999,0.5307,0.5223,0.4383,0.5356,0.729,0.5842,0.53,0.5526,0.7159,0.8008,0.8488,0.0,0.0,0.0,0.0,0.0,0.0,-0.1598,0.1177,0.3933,0.6262,0.796,0.8889,0.8694,0.739,0.5479,0.2791,-0.024,-0.2435,-0.3308,-0.3036,0.0033,0.6457,1.1889,1.5526,1.7136,1.6327,1.5332,1.4278,1.1599,0.9476,0.781,0.5462,0.3432,0.1653,-0.0697,-0.2786,-0.4719,-0.665,-0.8755,-1.1084,-1.4166,-1.6196,-1.7411,0.0,0.0,0.0,0.0,0.0,0.0,0.0,0.0,0.0,0.0,0.0,0.0,0.0,0.0,0.0,0.0,0.0,0.0,0.0,0.0,0.0,0.0,0.0,0.0,0.0,0.0,0.0,0.0,0.0,0.0,0.0,0.0,1.4421,1.4204,1.3691,1.3152,1.2722,1.0987,1.0275,1.1419,1.0845,1.0909,1.2068,1.1116,1.0577,1.0814,1.0611,1.0215,0.9723,0.9689,0.9579,0.9441,1.0498,1.1044,1.1025,1.0527,0.9429,0.7772,0.738,0.7202,0.7129,0.5855,0.5286,0.5255,0.4558,0.4915,0.5983,0.688,0.7676,0.8363,0.8728,0.9116,0.9518,0.0,0.0,0.0,0.0,0.0,0.0,-0.0573,0.2409,0.5364,0.7882,0.9265,0.9868,0.9488,0.8154,0.638,0.4061,0.1747,0.0574,0.1092,0.2852,0.6266,1.1693,1.5052,1.6929,1.7249,1.6116,1.4704,1.2953,1.0797,0.9039,0.7567,0.5616,0.4019,0.274,0.0589,-0.1661,-0.3962,-0.5274,-0.6925,-0.8891,-1.152,-1.4237,-1.675,-1.688,-1.761,-1.8543,-1.8646,-1.9035,-1.9331,-1.828,0.0,0.0,0.0,0.0,0.0,0.0,0.0,0.0,0.0,0.0,0.0,0.0,0.0,0.0,0.0,0.0,0.0,0.0,0.0,0.0,0.0,0.0,0.0,0.0,1.3883,1.4639,1.5007,1.4999,1.4672,1.3944,1.2195,1.0988,1.0749,1.0002,0.9631,0.9763,0.9511,0.9494,0.9836,0.9533,0.9144,0.8656,0.8685,0.8452,0.7976,0.8625,0.8896,0.8896,0.8899,0.872,0.8349,0.7425,0.6984,0.6926,0.58,0.5164,0.4877,0.4477,0.4554,0.0,0.0,0.0,0.0,0.0,0.8273,0.8533,0.0,0.0,0.0,0.0,0.0,0.0,0.0917,0.4069,0.6994,0.9128,1.0386,1.0843,1.02,0.8188,0.6253,0.4708,0.3166,0.2913,0.4451,0.8879,1.2353,1.437,1.6808,1.7623,1.6511,1.5926,1.4299,1.1662,1.0469,0.9108,0.7562,0.6207,0.4923,0.3741,0.22,-0.035,-0.3477,-0.3821,-0.5232,-0.7351,-0.8672,-1.1858,-1.5772,-1.5786,-1.6893,-1.8367,-1.8347,-1.9148,-1.9964,-1.8535,0.0,0.0,0.0,0.0,0.0,0.0,0.0,0.0,0.0,0.0,0.0,0.0,0.0,0.0,0.0,0.0,0.0,0.0,0.0,0.0,0.0,0.0,0.0,0.0,1.3942,1.4491,1.5991,1.6596,1.6338,1.4754,1.2689,1.1102,1.0409,0.9403,0.8327,0.7268,0.8008,0.8762,0.9376,0.0,0.0,0.0,0.0,0.8168,0.702,0.7014,0.6985,0.699,0.699,0.8025,0.9861,0.7903,0.7014,0.6923,0.5792,0.5014,0.452,0.4316,0.4282,0.4455,0.4942,0.5388,0.5848,0.6238,0.6423,0.656,0.0,0.0,0.0,0.0,0.0,0.0,0.2654,0.6068,0.8785,0.9791,1.0924,1.1341,1.0502,0.8867,0.7266,0.5901,0.4743,0.5505,0.8804,1.2241,1.4715,1.5999,1.7065,1.7086,1.591,1.4469,1.3215,1.2168,1.0227,0.9104,0.8727,0.6795,0.5586,0.4878,0.2702,0.0815,-0.0834,-0.2062,-0.3565,-0.5262,-0.7204,-1.0049,-1.3361,-1.4685,-1.5976,-1.7268,-1.8792,-1.9668,-1.9983,-1.9144,-1.8762,-1.8308,-1.6295,-1.4629,0.0,0.0,0.0,0.0,0.0,0.0,0.0,0.0,0.0,0.0,0.0,0.0,0.0,0.0,0.0,0.0,0.0,0.0,0.0,1.2832,1.401,1.4654,1.497,1.5071,1.462,1.3325,1.2385,1.1553,1.0797,0.9888,0.9082,0.8508,0.7769,0.7798,0.886,0.882,0.8734,0.8651,0.8699,0.8187,0.7036,0.6983,0.6988,0.6981,0.0,0.0,0.763,0.7189,0.7016,0.6923,0.5792,0.5362,0.5385,0.4648,0.438,0.4409,0.4507,0.4832,0.528,0.5571,0.5965,0.6365,0.0,0.0,0.0,0.0,0.0,0.0,0.3271,0.6495,0.901,0.9664,1.0535,1.0808,1.0022,0.8501,0.7115,0.6073,0.6686,0.8308,1.107,1.3967,1.5778,1.6222,1.6973,1.6695,1.5248,1.3924,1.2658,1.1416,0.9863,0.8811,0.8172,0.6766,0.5945,0.5544,0.3872,0.1981,-0.0054,-0.0798,-0.2389,-0.4616,-0.5631,-0.7532,-0.9987,-1.2155,-1.3586,-1.461,-1.6062,-1.7027,-1.7501,-1.6939,-1.7054,-1.7173,-1.547,-1.4582,-1.3958,0.0,0.0,0.0,0.0,0.0,0.0,0.0,0.0,0.0,0.0,0.0,0.0,0.0,0.0,0.3291,0.0,0.0,0.9994,1.2044,1.2878,1.3227,1.3182,1.3532,1.3652,1.3463,1.2425,1.1778,1.1829,1.022,0.8442,0.6761,0.741,0.8164,0.8787,0.8823,0.8817,0.8817,0.8789,0.8532,0.7886,0.7879,0.7621,0.7019,0.7309,0.7294,0.702,0.6987,0.7015,0.6942,0.6121,0.5547,0.5157,0.4605,0.4328,0.4208,0.4369,0.4538,0.477,0.4909,0.512,0.5418,0.0,0.0,0.0,0.0,0.0,0.0,0.0,0.6483,0.8591,0.9288,0.9884,0.9925,0.9232,0.7862,0.6766,0.6232,0.8305,1.031,1.199,1.4497,1.5869,1.5716,1.6454,1.6145,1.4557,1.3701,1.2382,1.0624,0.9765,0.8697,0.7437,0.6653,0.6096,0.5791,0.4875,0.2965,0.0391,0.0112,-0.1726,-0.4501,-0.4474,-0.5332,-0.6767,-0.916,-1.0645,-1.16,-1.2551,-1.3513,-1.4308,-1.3942,-1.4597,-1.5312,-1.3877,-1.385,-1.4281,-1.4021,-1.3233,0.0,0.0,0.0,0.0,0.0,0.0,0.0,0.0,0.0,-0.178,-0.0555,0.1645,0.4214,0.6912,0.834,0.9707,1.1379,1.1657,1.1674,1.1891,1.224,1.2849,1.3777,1.2617,1.1868,1.2061,0.9607,0.7001,0.4669,0.6669,0.8184,0.8764,0.8546,0.826,0.7968,0.8528,0.8808,0.8797,0.8797,0.8293,0.7348,0.7841,0.7834,0.7342,0.736,0.7296,0.7141,0.6591,0.5782,0.4785,0.4759,0.4453,0.4049,0.4382,0.4448,0.4329,0.4329,0.4427,0.4607,0.0,0.0,0.0,0.0,0.0,0.0,0.0,0.0,0.8198,0.9248,0.9458,0.9187,0.832,0.7723,0.7295,0.7216,0.8511,1.001,1.1565,1.3513,1.465,1.4752,1.5367,1.5126,1.3918,1.3403,1.2478,1.1118,1.0415,0.9376,0.7967,0.7029,0.618,0.5492,0.4812,0.3527,0.184,0.0558,-0.1733,-0.4501,-0.4488,-0.4599,-0.494,-0.6248,-0.7736,-0.9265,-1.0057,-1.0916,-1.1734,-1.1734,-1.2423,-1.3198,-1.27,-1.2899,-1.3292,-1.344,-1.3532,-1.3403,-1.2365,-0.9919,-0.7128,-0.4936,-0.3372,-0.2086,0.0,0.0,0.0109,0.1422,0.3456,0.5499,0.7114,0.7872,0.8948,1.1191,1.1167,1.1352,1.2563,1.1784,1.1549,1.2889,1.2883,1.1852,0.9493,0.664,0.4846,0.4513,0.4789,0.6109,0.8646,0.7563,0.625,0.5006,0.7463,0.8823,0.8816,0.8816,0.8742,0.859,0.8688,0.8688,0.859,0.8601,0.8308,0.7775,0.7216,0.6283,0.5123,0.5745,0.5193,0.4066,0.4771,0.4622,0.4061,0.4061,0.4444,0.4975,0.0,0.0,0.0,0.0,0.0,0.0,0.0,0.0,0.0,0.8456,0.8548,0.8306,0.7539,0.7011,0.7113,0.8079,0.8878,1.0003,1.1581,1.2936,1.3682,1.3604,1.4192,1.4122,1.3286,1.2842,1.2062,1.0985,1.0432,0.9395,0.7866,0.7026,0.6199,0.5487,0.4805,0.3635,0.2119,0.0614,-0.0726,-0.2014,-0.3802,-0.4491,-0.4577,-0.5019,-0.5748,-0.6626,-0.7516,-0.8212,0.0,-0.8772,-0.9253,-0.9973,-1.0486,-1.1194,-1.1986,-1.2706,-1.2979,-1.2648,-1.0857,-0.8931,-0.6777,-0.4049,-0.1687,0.0443,0.2227,0.2617,0.2773,0.3343,0.4865,0.6168,0.6491,0.7611,0.8795,0.0,0.9755,0.9835,1.0457,1.1403,1.1636,1.0615,0.9045,0.7538,0.6406,0.5229,0.4515,0.4481,0.5241,0.623,0.743,0.7241,0.6801,0.6183,0.6806,0.7652,0.8797,0.7951,0.71,0.6309,0.7104,0.7104,0.6304,0.66,0.6924,0.723,0.714,0.6948,0.675,0.6701,0.6116,0.5193,0.5487,0.5014,0.4117,0.4029,0.413,0.4357,0.0,0.0,0.0,0.0,0.0,0.0,0.0,0.0,0.0,0.0,0.7815,0.7539,0.7058,0.6634,0.6979,0.8357,0.9044,0.9906,1.1035,1.2184,1.271,1.2585,1.292,1.2934,1.2608,1.2062,1.1407,1.0517,1.021,0.9264,0.767,0.6966,0.6199,0.5487,0.4849,0.3969,0.283,0.1371,0.0457,-0.017,-0.2326,-0.3674,-0.4473,-0.4435,-0.4525,-0.4829,-0.5743,-0.6267,-0.6567,-0.6848,-0.7072,-0.7314,-0.7926,-0.8889,-1.0105,-1.142,-1.1897,-1.1521,-0.9404,-0.8062,-0.647,-0.3106,-0.0602,0.1668,0.3987,0.415,0.3971,0.4435,0.5325,0.5922,0.5555,0.6647,0.7878,0.8684,0.8825,0.8811,0.8791,0.9846,0.9828,0.7829,0.576,0.4525,0.4481,0.4481,0.4491,0.4515,0.5664,0.6539,0.682,0.6848,0.6924,0.6988,0.6269,0.647,0.7591,0.6578,0.5508,0.4487,0.5508,0.5504,0.4537,0.5185,0.6059,0.7049,0.7209,0.7462,0.782,0.7666,0.6911,0.5901,0.6107,0.5388,0.4294,0.4182,0.4019,0.3894,0.0,0.0,0.0,0.0,0.0,0.0,0.0,0.0,0.0,0.0,0.0,0.0,0.0,0.6979,0.7231,0.787,0.8844,0.9494,0.9665,1.0976,1.1732,1.1732,1.1452,1.1426,1.1805,1.1199,1.0509,0.9814,0.9806,0.9072,0.767,0.6966,0.6199,0.5496,0.5026,0.4762,0.4649,0.3211,0.1626,0.0,0.0175,-0.1666,-0.4494,-0.4274,-0.4209,-0.4333,-0.5208,-0.5455,-0.5524,-0.6618,-0.6545,-0.582,-0.5061,-0.5891,-0.7504,-0.9359,-1.0292,-1.0367,-0.8623,-0.7743,-0.6221,-0.1782,-0.0323,0.0834,0.3799,0.335,0.2681,0.4209,0.4543,0.4581,0.4546,0.4583,0.5571,0.8337,0.8773,0.8813,0.8784,0.6488,0.4706,0.4645,0.4576,0.4481,0.0,0.4515,0.4515,0.4519,0.5395,0.6337,0.7344,0.6213,0.5697,0.595,0.5923,0.5483,0.4631,0.4576,0.4562,0.4487,0.4562,0.4562,0.4541,0.5437,0.6543,0.77,0.77,0.77,0.7753,0.8455,0.7469,0.5579,0.6293,0.5706,0.4512,0.4505,0.4263,0.3992,0.0,0.0,0.0,0.0,0.0,0.0,0.0,0.0,0.0,0.0,0.0,0.0,0.0,0.0,0.0,0.0,0.8545,0.9121,0.9513,1.0245,1.0641,1.0641,1.0668,1.072,1.0848,1.0839,1.0466,0.9814,0.9814,0.9079,0.767,0.6966,0.6199,0.5487,0.4849,0.4664,0.4791,0.4321,0.3906,0.3358,0.1089,-0.1142,-0.2932,-0.2717,-0.3266,-0.4288,0.0,-0.4866,-0.4783,-0.5295,-0.4994,-0.4232,-0.3427,-0.3995,-0.552,-0.8528,-0.8963,-0.8454,-0.8507,-0.7787,-0.6197,-0.2555,0.0661,0.3251,0.4274,0.3304,0.2063,0.1619,0.313,0.4499,0.4488,0.4517,0.4816,0.5777,0.7549,0.8282,0.6781,0.5338,0.4472,0.4525,0.4488,0.0,0.0,0.0,0.0,0.4519,0.5222,0.5987,0.682,0.5987,0.5973,0.7058,0.571,0.5113,0.5429,0.4827,0.4498,0.4488,0.4498,0.4498,0.4542,0.5311,0.5864,0.6249,0.6745,0.7235,0.767,0.745,0.6907,0.6199,0.5982,0.5332,0.4508,0.4355,0.4204,0.41,0.0,0.0,0.0,0.0,0.0,0.0,0.0,0.0,0.0,0.0,0.0,0.0,0.0,0.0,0.0,0.0,0.0,0.8778,0.8959,0.9551,0.9899,0.9899,0.9717,0.9729,0.985,0.9784,0.9455,0.8861,0.8871,0.8352,0.7214,0.6543,0.5928,0.5487,0.4849,0.4664,0.4791,0.4855,0.503,0.4925,0.1533,-0.1127,-0.3005,-0.2746,-0.3295,0.0,-0.4646,-0.4513,-0.4306,-0.4746,-0.4062,-0.2922,-0.2866,-0.3333,-0.4468,-0.7197,-0.7154,-0.6288,-0.6333,-0.6253,-0.5491,-0.2834,0.039,0.3147,0.4228,0.2916,0.1173,0.0168,0.1538,0.2868,0.2866,0.3776,0.4502,0.448,0.6042,0.6758,0.5269,0.4741,0.4073,0.3005,0.3834,0.4513,0.0,0.0,0.0,0.4525,0.5386,0.6091,0.6588,0.6145,0.6308,0.7289,0.5496,0.4791,0.5395,0.4791,0.4519,0.4519,0.4519,0.4519,0.4519,0.4948,0.5273,0.5542,0.6258,0.702,0.767,0.7182,0.6858,0.6529,0.576,0.5109,0.4508,0.4358,0.4324,0.4294,0.0,0.0,0.0,0.0,0.0,0.0,0.0,0.0,0.0,0.0,0.0,0.0,0.0,0.0,0.0,0.0,0.0,0.0,0.8065,0.8911,0.9439,0.9439,0.8683,0.8409,0.8758,0.8139,0.7541,0.7068,0.7168,0.6934,0.6324,0.5779,0.5487,0.5441,0.4894,0.468,0.4691,0.497,0.4973,0.4591,0.1595,-0.1605,-0.4488,-0.4282,-0.4217,-0.4253,-0.468,-0.4427,-0.4055,-0.4974,-0.3697,-0.1907,-0.3037,-0.363,-0.4128,-0.5348,-0.5127,-0.4058,-0.2508,-0.314,-0.3937,-0.2458,-0.1062,0.0728,0.3602,0.2074,0.0,0.0,0.0,0.0,0.0,0.0,0.4525,0.4509,0.4523,0.4529,0.447,0.4327,0.3214,0.0,0.0,0.0,0.0,0.0,0.0,0.4497,0.0,0.649,0.6534,0.6534,0.6534,0.6534,0.5226,0.4519,0.4519,0.4519,0.4519,0.4519,0.4519,0.4519,0.4519,0.4519,0.4842,0.5487,0.6204,0.6912,0.7563,0.7563,0.7128,0.6475,0.5697,0.505,0.4515,0.4498,0.4505,0.4477,0.0,0.0,0.0,0.0,0.0,0.0,0.0,0.0,0.0,0.0,0.0,0.0,0.0,0.0,0.0,0.0,0.0,0.0,0.8503,0.8747,0.8918,0.8918,0.8104,0.7475,0.7204,0.6842,0.6591,0.6577,0.6635,0.6333,0.5739,0.5571,0.5218,0.4736,0.4612,0.4524,0.4535,0.4635,0.4606,0.4324,0.1302,-0.175,-0.4482,-0.4284,-0.4274,-0.4379,-0.4223,-0.4155,-0.423,-0.5033,-0.3145,-0.0501,-0.0846,-0.1602,-0.2681,-0.4373,-0.4674,-0.3928,-0.1286,-0.084,-0.1064,-0.0672,-0.028,0.0224,0.0953,0.0561,0.0,0.0,0.0,0.0,0.0,0.0,0.0,0.4497,0.4874,0.0,0.3943,0.2274,0.0,0.0062,0.0,0.3155,0.3267,0.4156,0.0,0.0,0.4973,0.5365,0.5769,0.5332,0.5277,0.576,0.4952,0.4519,0.4519,0.4519,0.4519,0.4519,0.4519,0.4519,0.4519,0.4519,0.457,0.4787,0.4952,0.5441,0.6032,0.5546,0.5496,0.5692,0.487,0.4527,0.4491,0.4216,0.4273,0.4491,0.0,0.0,0.0,0.0,0.0,0.0,0.0,0.0,0.0,0.0,0.0,0.0,0.0,0.0,0.0,0.0,0.0,0.0,0.0,0.8357,0.8357,0.8357,0.7418,0.673,0.644,0.6083,0.5796,0.5644,0.582,0.5557,0.4858,0.5004,0.4857,0.4477,0.4477,0.448,0.4487,0.4494,0.3735,0.0,0.0,-0.2384,-0.4474,-0.4375,-0.4406,-0.445,-0.4241,-0.3369,-0.2214,0.0,0.0,0.0,0.0,-0.0456,-0.1203,-0.2203,0.0,-0.2179,-0.0458,0.0,0.0,0.0,0.0,0.0,0.0,0.0,0.0,0.0,0.0,0.0,0.0,0.3517,0.5967,0.0,0.0,0.0,0.4511,0.1852,0.0,0.0,0.2275,0.0,0.3916,0.454,0.4935,0.0,0.4948,0.5158,0.5492,0.5164,0.5109,0.5483,0.4842,0.4519,0.4519,0.4519,0.4519,0.4519,0.4519,0.4519,0.4519,0.4519,0.4519,0.4519,0.0,0.5164,0.5487,0.5109,0.5164,0.5425,0.4638,0.4392,0.4498,0.4273,0.4317,0.4494,0.0,0.0,0.0,0.0,0.0,0.0,0.0,0.0,0.0,0.0,0.0,0.0,0.0,0.0,0.0,0.0,0.0,0.0,0.0,0.0,0.7919,0.7919,0.681,0.613,0.6093,0.5545,0.5033,0.4595,0.4734,0.4445,0.3752,0.4044,0.421,0.421,0.421,0.4333,0.4525,0.448,0.2752,-0.0154,-0.1851,-0.3294,-0.4499,0.0,-0.4252,-0.391,-0.3919,-0.195,0.0,0.0,0.274,0.0505,0.0116,0.0,0.0,0.0,0.0,0.0,0.0,0.0,0.0,0.0,0.0,0.0,0.0,0.0,0.0,0.0,0.0,0.0111,0.0497,0.5117,0.8033,0.5575,0.0,0.5454,0.5384,0.2497,0.0252,0.0,0.2961,0.5125,0.5302,0.5338,0.5199,0.4911,0.5182,0.5378,0.5378,0.5378,0.5378,0.5378,0.4787,0.4519,0.4519,0.4519,0.4519,0.4519,0.4519,0.4519,0.4519,0.4519,0.4519,0.4515,0.5113,0.5378,0.5378,0.5378,0.5378,0.5324,0.4816,0.4608,0.4622,0.471,0.4772,0.4769,0.0,0.0,0.0,0.0,0.0,0.0,0.0,0.0,0.0,0.0,0.6598,0.6349,0.0,0.0,0.0,0.0,0.0,0.0,0.0,0.0,0.0,0.7919,0.6735,0.5925,0.548,0.4437,0.3983,0.4051,0.2923,0.2454,0.252,0.2552,0.2618,0.2618,0.2618,0.3297,0.4488,0.4488,0.2772,-0.022,-0.301,-0.4242,-0.4491,-0.4522,0.0,0.0,-0.0777,0.0,0.0,0.0,0.4147,0.3268,0.0813,0.0,0.0,0.0,0.0,0.0,0.0,0.0,0.0,0.0,0.0,0.0,0.0,0.0,0.0,0.0,0.0,0.0781,0.3241,0.6473,0.8781,0.8795,0.7265,0.5902,0.5492,0.354,0.1679,0.0,0.1876,0.3659,0.4896,0.4958,0.0,0.0,0.4674,0.468,0.468,0.468,0.468,0.468,0.457,0.4519,0.4519,0.4519,0.4519,0.4519,0.4519,0.4519,0.4519,0.4519,0.4519,0.4519,0.4625,0.0,0.468,0.468,0.468,0.4721,0.5014,0.5202,0.5362,0.59,0.6163,0.6258,0.0,0.0,0.0,0.0,0.0,0.0,0.0,0.8878,0.839,0.7572,0.6465,0.5959,0.6556,0.6598,0.0,0.0,0.0,0.0,0.0,0.0,0.0,0.0,0.6622,0.5899,0.5308,0.4638,0.3827,0.2809,0.0,0.2456,0.1078,0.1049,0.1058,0.1056,0.1056,0.1474,0.2179,0.2167,0.0859,-0.1256,-0.2722,-0.3758,-0.4389,0.0,0.0,0.0,0.0,0.0,0.0,0.0,0.5014,0.4712,0.2898,0.129,0.0,0.0,0.0,0.0,0.0,0.0,0.0,0.0,0.0,0.0,0.0,0.0,0.0,0.0,0.0,0.1391,0.5885,0.7242,0.0,0.8395,0.7694,0.659,0.5303,0.4538,0.3432,0.16,0.3013,0.4315,0.4916,0.5018,0.4969,0.4819,0.4667,0.4548,0.4522,0.4519,0.4519,0.4519,0.4522,0.4525,0.4519,0.4522,0.4522,0.4519,0.4519,0.4519,0.4519,0.4519,0.4519,0.4519,0.4519,0.4519,0.4519,0.4519,0.468,0.505,0.5288,0.5685,0.6081,0.641,0.6546,0.6573,0.0,0.0,0.0,0.0,0.0,0.0,0.0,0.9039,0.8472,0.7773,0.6416,0.5825,0.6725,0.6725,0.6634,0.0,0.0,0.0,0.0,0.0,0.0,0.0,0.0,0.0,0.0,0.0,0.0,0.1809,0.2962,0.0,0.0,0.0,0.0,0.0,0.0,0.0,0.0,0.0,-0.0845,0.0,0.0,-0.3132,0.0,0.0,0.0,0.0,0.0,0.0,0.0,0.0,0.5487,0.5407,0.4947,0.3008,0.0846,0.0185,0.0,0.0,0.0,0.0,0.0,0.0,0.0,-0.0175,-0.079,-0.0447,0.0,0.0,0.0,0.172,0.7296,0.766,0.7166,0.0,0.7582,0.7105,0.5562,0.533,0.4826,0.0,0.4472,0.0,0.5095,0.5044,0.0,0.488,0.4758,0.4636,0.4573,0.4567,0.4567,0.4567,0.449,0.4473,0.4519,0.4473,0.4473,0.4519,0.4519,0.4519,0.4519,0.4519,0.4519,0.4519,0.4519,0.4629,0.4791,0.4791,0.5148,0.5645,0.5905,0.6279,0.6791,0.6999,0.7074,0.7047,0.0,0.0,0.0,0.0,0.0,0.0,0.0,0.9039,0.83,0.7245,0.6507,0.6136,0.627,0.5782,0.5475,0.0,0.0,0.0,0.0,0.0,0.0,0.0,0.0,0.0,0.0,0.0,0.0,0.1794,0.086,0.0,0.0,0.0,0.0,0.0,0.0,0.0,0.0,0.0,0.0,0.0,0.0,0.0,0.0,0.0,0.0,0.0,0.0,0.0,0.0,0.0,0.0,0.5546,0.574,0.4993,0.3535,0.0819,0.0,0.0,0.0,0.0,0.0,0.0,0.0,-0.0698,-0.3444,0.0,0.0,0.0,0.0,0.1388,0.5936,0.781,0.8475,0.8163,0.734,0.6829,0.7201,0.6002,0.5123,0.5143,0.0,0.0,0.5085,0.502,0.4874,0.4721,0.4701,0.4684,0.467,0.467,0.467,0.467,0.4545,0.4473,0.4519,0.4473,0.4473,0.4519,0.4519,0.4519,0.4519,0.4519,0.4519,0.4519,0.4519,0.4956,0.0,0.5778,0.5931,0.6241,0.7142,0.7366,0.7355,0.8279,0.8593,0.8586,0.0,0.0,0.0,0.0,0.0,0.0,1.0079,0.9239,0.8415,0.7597,0.6398,0.5653,0.5653,0.5437,0.5561,0.0,0.0,0.0,0.0,0.0,0.0,0.0,0.0,0.0,0.0,0.0,0.3674,0.1803,0.0585,0.0,0.0,0.0,0.0,0.0,0.0,0.0,0.0,0.0,0.0,0.0,0.0,0.0,0.0,0.0,0.0,0.0,0.0,0.0,0.6794,0.0,0.0,0.0,0.6385,0.547,0.0,0.0,0.1444,0.0,0.0,0.0,0.0,0.0,-0.139,-0.3,-0.4204,0.0,-0.2178,-0.039,0.1449,0.3511,0.6123,0.7367,0.8118,0.8479,0.823,0.7718,0.7231,0.6578,0.5972,0.5321,0.5176,0.0,0.0,0.0,0.4986,0.484,0.4992,0.5016,0.484,0.4741,0.465,0.4555,0.4514,0.448,0.4519,0.448,0.448,0.4519,0.4519,0.4519,0.4519,0.4519,0.4519,0.4519,0.4519,0.5011,0.0,0.6275,0.6712,0.7134,0.7356,0.7789,0.8274,0.8659,0.8804,0.8804,0.0,0.0,0.0,0.0,0.0,1.0829,1.0361,0.9399,0.8407,0.7658,0.6216,0.5303,0.5303,0.5303,0.5776,0.6894,0.0,0.0,0.0,0.0,0.0,0.0,0.0,0.0,0.0,0.0,0.4033,0.1783,0.0597,0.0,0.0,0.0,0.0,0.0,0.0,0.0,0.0,0.0,0.0,0.0,0.0,0.0,0.0,0.0,0.0,0.0,0.0,0.0,0.0,0.0,0.0,0.0,0.0,0.0,0.0,0.0,0.2857,0.115,0.024,0.0,0.0,0.0,-0.1579,-0.3375,0.0,0.0,-0.3638,-0.0611,0.2399,0.493,0.6322,0.6771,0.7268,0.8321,0.8096,0.7529,0.6704,0.6568,0.6177,0.5158,0.0,0.5278,0.0,0.5131,0.5108,0.5053,0.5199,0.5186,0.4935,0.4816,0.4687,0.4591,0.4504,0.4484,0.4519,0.448,0.448,0.4519,0.4519,0.4739,0.5128,0.4684,0.4512,0.4501,0.4512,0.5175,0.0,0.7094,0.7594,0.7921,0.7811,0.8152,0.8691,0.8778,0.8804,0.8804,0.0,0.0,0.0,0.0,0.0,0.0,1.0361,0.9399,0.8277,0.7086,0.5956,0.5303,0.5303,0.5303,0.5776,0.6894,0.0,0.0,0.0,0.0,0.0,0.0,0.0,0.0,0.0,0.0,0.3749,0.1793,0.0602,0.0,0.0,0.0,0.0,0.0,0.0,0.0,0.0,0.0,0.0,0.0,0.0,0.0,0.0,0.0,0.0,0.0,0.0,0.0,0.0,0.0,0.0,0.0,0.0,0.0,0.0,0.0,0.4034,0.3804,0.079,0.0,0.0,0.0,-0.0,-0.0812,0.0,0.0,-0.3638,-0.061,0.2395,0.493,0.6322,0.6213,0.6322,0.7509,0.6465,0.561,0.58,0.5829,0.5615,0.0,0.0,0.5628,0.5164,0.5131,0.5192,0.5411,0.5216,0.0,0.4925,0.4918,0.4847,0.4694,0.4555,0.4473,0.4519,0.4473,0.4473,0.4519,0.4519,0.5242,0.6524,0.5128,0.4498,0.4522,0.4501,0.5622,0.0,0.8413,0.8646,0.8404,0.8691,0.8631,0.8417,0.8704,0.8804,0.8804,0.0,0.0,0.0,0.0,0.0,0.0,0.0,0.9716,0.8852,0.765,0.6536,0.5888,0.5916,0.5567,0.5905,0.7489,0.0,0.0,0.0,0.0,0.0,0.0,0.0,0.0,0.0,0.0,0.4718,0.3029,0.0992,0.0,0.0,0.0,0.0,0.0,0.0,0.1135,0.0,0.0,0.0,0.0,0.0,0.0,0.0,0.0,0.0,0.0,0.0,0.0,0.0,0.0,0.0,0.0,0.0,0.0,0.0,0.484,0.4078,0.0,0.0693,0.0,0.0,0.0,0.0,-0.0817,-0.3831,-0.4509,-0.3635,-0.0608,0.2391,0.493,0.6322,0.6095,0.6091,0.745,0.7283,0.6874,0.0,0.0,0.0,0.5791,0.5608,0.5439,0.0,0.0,0.5308,0.5425,0.5216,0.5067,0.4925,0.4819,0.4694,0.4594,0.4497,0.4473,0.4519,0.4473,0.4473,0.4519,0.4519,0.4739,0.5187,0.5716,0.5428,0.4556,0.5513,0.6514,0.7447,0.8109,0.8482,0.8657,0.8557,0.8577,0.8684,0.8778,0.8804,0.8804,0.0,0.0,0.0,0.0,0.0,0.0,0.0,0.9843,0.9093,0.796,0.7002,0.6392,0.6221,0.5873,0.6167,0.7447,0.0,0.0,0.0,0.0,0.0,0.0,0.0,0.0,0.0,0.5752,0.5209,0.4012,0.1767,0.0452,-0.0,-0.093,-0.0571,0.0823,0.0813,0.2183,0.0,0.0,0.0,0.0,0.0,0.0,0.3585,0.0,0.0,0.0,0.0,0.0,0.0,0.0,0.0,0.0,0.0,0.0,0.0,0.0,0.5089,0.3599,0.0,0.0875,0.0,0.0,0.0,0.0,0.0,-0.4512,-0.3302,0.0831,0.3178,0.4986,0.6608,0.615,0.5869,0.7074,0.7289,0.7047,0.0,0.0,0.0,0.6792,0.0,0.0,0.0,0.5328,0.5338,0.5277,0.5186,0.5043,0.4843,0.4741,0.4619,0.4522,0.4525,0.4525,0.4519,0.4525,0.4525,0.4519,0.4519,0.4625,0.4897,0.5542,0.5483,0.4948,0.5766,0.6489,0.0,0.7875,0.8436,0.8791,0.8611,0.8651,0.8804,0.8804,0.8804,0.8804,0.0,0.0,0.0,0.0,0.0,0.0,0.0,0.9883,0.9133,0.8,0.739,0.6875,0.6307,0.6221,0.6435,0.7021,0.0,0.0,0.0,0.0,0.0,0.0,0.0,0.0,0.0,0.589,0.5448,0.489,0.2906,0.1286,-0.005,-0.2465,-0.169,0.1798,0.2199,0.3151,0.0,0.0,0.0,0.0,0.0,0.0,0.0,0.0,0.0,0.0,0.0,0.0,0.0,0.0,0.0,0.0,0.0,0.0,0.0,0.0,0.0,0.0,0.0,0.2456,0.029,0.0056,0.0,0.0,0.0,0.0,0.0,0.3292,0.4487,0.51,0.7019,0.6381,0.576,0.6529,0.6696,0.6549,0.0,0.7518,0.0,0.0,0.6203,0.0,0.5131,0.526,0.5284,0.5142,0.5111,0.4979,0.4704,0.468,0.4609,0.4522,0.4519,0.4519,0.4519,0.4519,0.4515,0.457,0.457,0.4952,0.5542,0.4952,0.5003,0.0,0.5527,0.5924,0.674,0.7835,0.8449,0.8804,0.8804,0.8804,0.8811,0.8857,0.8857,0.8857,0.0,0.0,0.0,0.0,0.0,0.0,0.0,0.0,0.0,0.0,0.7975,0.7397,0.6852,0.6435,0.6605,0.0,0.0,0.0,0.0,0.0,0.0,0.0,0.0,0.0,0.0,0.5976,0.6116,0.6918,0.4422,0.2094,-0.0046,-0.2479,-0.3126,-0.2068,0.2103,0.4158,0.0,0.0,0.0,0.0,0.0,0.0,0.0,0.0,0.0,0.0,0.6344,0.7566,0.0,0.0,0.0,0.0,0.0,0.0,0.0,0.0,0.8315,0.7301,0.5105,0.0,0.2873,0.0558,0.0,-0.0167,0.0,0.0,0.0,0.0,0.0,0.51,0.7019,0.6381,0.5923,0.7235,0.745,0.7481,0.7672,0.0,0.0,0.7737,0.6314,0.526,0.5142,0.5165,0.5169,0.5135,0.4921,0.4765,0.4694,0.4579,0.4556,0.4519,0.4519,0.4519,0.4519,0.4519,0.4732,0.5273,0.5273,0.5655,0.6312,0.6154,0.6204,0.6362,0.6903,0.7233,0.7503,0.8317,0.8705,0.8804,0.8804,0.8804,0.8857,0.9361,0.9562,0.9666,0.0,0.0,0.0,0.0,0.0,0.0,0.0,0.0,0.0,0.0,0.0,0.0,0.0,0.0,0.0,0.0,0.0,0.0,0.0,0.0,0.0,0.0,0.0,0.0,0.7013,0.7119,0.7144,0.7127,0.6016,0.4141,0.1592,-0.0272,-0.1726,-0.2587,0.1462,0.3715,0.0,0.0,0.0,0.0,0.4857,0.0,0.0,0.0,0.0,0.0,0.712,0.8191,0.0,0.9474,0.9074,0.8531,0.0,0.0,0.0,0.0,0.8798,0.8147,0.5283,0.4491,0.4082,0.245,0.2062,0.2063,0.2063,0.0,0.0,0.0,0.0,0.5529,0.6781,0.6756,0.6794,0.7557,0.8404,0.0,0.0,0.0,0.7843,0.7812,0.633,0.525,0.0,0.5237,0.5179,0.5043,0.4887,0.4735,0.4596,0.4563,0.4519,0.4519,0.4519,0.4519,0.4519,0.4787,0.5164,0.5487,0.5819,0.6199,0.6588,0.6588,0.6588,0.6637,0.7225,0.7565,0.7771,0.8339,0.8691,0.8804,0.8804,0.8804,0.8857,0.9562,0.9814,0.9917,0.0,0.0,0.0,0.0,0.0,0.0,0.0,0.0,0.0,0.0,0.0,0.0,0.0,0.0,0.0,0.0,0.0,0.0,0.0,0.0,0.0,0.0,0.0,0.7365,0.7664,0.8638,0.8453,0.7069,0.7537,0.6447,0.3924,0.2612,0.0545,-0.197,0.0664,0.2906,0.0,0.0,0.0,0.0,0.5433,0.0,0.0,0.0,0.0,0.0,0.0,0.0,0.0,1.0277,1.0071,0.9624,0.8798,0.0,0.0,0.0,0.0,0.0,0.5614,0.4682,0.4525,0.4477,0.4525,0.4522,0.449,0.0,0.0,0.0,0.0,0.0,0.6701,0.7289,0.0,0.0,0.0,0.0,1.1122,0.9722,0.8468,0.7994,0.6438,0.0,0.5349,0.5294,0.5179,0.4904,0.4863,0.4735,0.4532,0.4519,0.4519,0.4519,0.4519,0.4574,0.468,0.5218,0.5542,0.5651,0.6421,0.6804,0.6912,0.6912,0.6912,0.6956,0.0,0.0,0.7925,0.8274,0.8584,0.8804,0.8804,0.8857,0.9061,0.9718,1.0012,1.0218,0.0,0.0,0.0,0.0,0.0,0.0,0.0,0.0,0.0,0.0,0.0,0.0,0.0,0.0,0.0,0.0,0.0,0.0,0.0,0.0,0.0,0.0,0.8803,0.8304,0.849,0.9541,0.9776,0.9241,0.866,0.7392,0.55,0.3991,0.0924,-0.3166,0.0251,0.3237,0.5647,0.0,0.0,0.0,0.6392,0.0,0.0,0.0,0.0,0.0,0.0,0.0,0.0,1.0293,0.9054,0.7463,0.7332,0.0,0.0,0.0,0.0,0.0,0.7023,0.5606,0.4484,0.4512,0.4494,0.4499,0.4512,0.0,0.0,0.0,0.0,0.0,0.0,0.7616,0.7883,0.0,0.0,1.0805,0.0,0.0,0.9544,0.7928,0.0,0.6057,0.5071,0.4986,0.4914,0.4738,0.4606,0.4567,0.4519,0.4519,0.4519,0.4519,0.4519,0.4787,0.5324,0.5433,0.5814,0.6421,0.7182,0.783,0.848,0.848,0.848,0.848,0.0,0.86,0.8639,0.8705,0.8764,0.8804,0.8804,0.9159,0.9718,1.0415,1.1015,1.1616,0.0,0.0,0.0,0.0,0.0,0.0,0.0,0.0,0.0,0.0,0.0,0.0,0.0,0.0,0.0,0.0,0.0,0.0,0.0,0.0,0.0,1.121,1.0505,1.0076,0.9981,1.1158,1.1349,1.0522,0.9974,0.858,0.6398,0.3585,0.0184,-0.3458,-0.0397,0.2939,0.6231,0.5416,0.0,0.0,0.0,0.0,0.0,0.0,0.0,0.0,0.0,0.0,0.0,0.0,1.0234,0.9831,0.7652,0.0,0.0,0.0,0.0,0.0,0.8119,0.6952,0.5919,0.6027,0.5675,0.5421,0.0,0.0,0.0,0.0,0.0,0.0,0.0,0.0,0.8678,0.9755,0.0,1.0651,1.1002,1.0429,0.9417,0.0,0.0,0.6129,0.5106,0.5033,0.4938,0.4707,0.4626,0.4551,0.4522,0.4519,0.4519,0.4519,0.4838,0.5164,0.5487,0.6303,0.6848,0.7182,0.7937,0.848,0.8804,0.8804,0.8804,0.8804,0.0,0.8804,0.8804,0.8804,0.8804,0.8857,0.9211,0.9517,0.9917,1.0965,1.1774,1.2452,0.0,0.0,0.0,0.0,0.0,0.0,0.0,0.0,0.0,0.0,0.0,0.0,0.0,0.0,0.0,0.0,0.0,0.0,0.0,0.0,1.2014,1.2332,1.2282,1.1993,1.1456,1.2633,1.2777,1.1739,1.1173,0.9398,0.6462,0.2876,0.0139,-0.165,-0.005,0.2941,0.6717,0.6054,0.6308,0.0,0.0,0.0,0.0,0.0,0.0,0.0,0.0,0.0,0.0,0.0,0.0,0.0,0.0,0.0,0.0,1.0401,0.9329,0.8799,0.8786,0.8005,0.7229,0.7576,0.0,0.0,0.0,0.0,0.0,0.0,0.0,0.0,0.0,0.8427,0.0,1.0528,1.0527,1.0539,1.1182,1.0331,0.9169,0.7798,0.6912,0.6057,0.5147,0.5047,0.4918,0.4657,0.4636,0.4585,0.4525,0.4519,0.4519,0.4519,0.5164,0.5597,0.576,0.7069,0.7723,0.7723,0.8427,0.8857,0.9061,0.9061,0.9061,0.9061,0.9211,0.9159,0.9061,0.9211,0.9263,0.9309,0.9814,1.0115,1.0415,1.1625,1.2403,1.2881,0.0,0.0,0.0,0.0,0.0,0.0,0.0,0.0,0.0,0.0,0.0,0.0,0.0,0.0,0.0,0.0,0.0,0.0,0.0,0.0,1.2599,1.3611,1.4061,1.3714,1.2415,1.3548,1.385,1.3338,1.2146,0.9438,0.5343,0.2532,0.2171,0.3855,0.2271,0.372,0.7328,0.6761,0.7343,0.8692,0.0,0.0,0.0,0.0,0.0,0.0,0.0,0.0,0.0,0.0,0.0,0.0,0.0,0.0,1.2869,1.2641,1.0805,0.8803,0.8813,0.8088,0.7518,0.8152,0.7314,0.0,0.6597,0.7133,0.0,0.7616,0.0,0.0,0.0,0.8752,0.9118,1.0184,1.0431,1.0642,1.1071,0.0,0.945,0.8099,0.7058,0.6013,0.5006,0.4806,0.4653,0.4546,0.4532,0.4529,0.4519,0.4519,0.4519,0.4519,0.5164,0.5814,0.6534,0.7289,0.7723,0.7723,0.8427,0.9113,0.9718,0.9718,0.9718,0.9762,1.0364,1.0312,0.9762,1.0415,1.0661,1.0661,1.072,1.1116,1.1774,1.251,1.2832,1.2881,0.0,0.0,0.0,0.0,0.0,0.0,0.0,0.0,0.0,0.0,0.0,0.0,0.0,0.0,0.0,0.0,0.0,0.0,0.0,0.0,1.269,1.3792,1.4197,1.4455,1.4666,1.483,1.4467,1.371,1.0654,0.7824,0.5269,0.3141,0.1959,0.1772,0.2906,0.525,0.8222,0.705,0.7471,0.8795,0.9054,0.0,0.0,0.0,0.0,0.0,0.0,0.0,0.0,0.0,1.1236,1.0312,1.0315,1.0748,1.1509,1.2586,1.2184,1.1167,1.026,0.9591,0.9176,0.9263,0.8913,0.0,0.0,0.8209,0.8374,0.8374,0.8586,0.0,0.0,0.0,0.9004,0.9515,0.9666,0.9813,1.0189,0.9661,0.8821,0.767,0.6853,0.596,0.4858,0.4724,0.4626,0.4529,0.4519,0.4519,0.4519,0.4893,0.5109,0.5109,0.6253,0.7015,0.7289,0.8455,0.9026,0.9033,0.9302,0.9562,0.9814,1.021,1.0415,1.0415,1.0669,1.0661,1.0415,1.0712,1.0813,1.0864,1.1266,1.1882,1.251,1.2774,1.2881,1.2881,0.0,0.0,0.0,0.0,0.0,0.0,0.0,0.0,0.0,0.0,0.0,0.0,0.0,0.0,0.0,0.0,0.0,0.0,1.1758,1.1943,1.2603,1.3926,1.4234,1.4838,1.5811,1.5224,1.4658,1.4209,0.9963,0.697,0.5158,0.3304,0.2077,0.1499,0.3559,0.6087,0.8714,0.7853,0.8018,0.8799,0.8777,1.0408,0.0,0.0,0.0,0.0,0.0,0.0,0.0,0.0,1.2833,1.1123,1.0484,1.0665,1.1378,1.2546,1.2899,1.2584,1.1195,1.0596,1.036,1.0174,0.0,0.0,0.9211,0.8956,0.8804,0.8804,0.8804,0.8804,0.8804,0.0,0.0,0.0,0.911,0.9239,0.9626,0.8859,0.8007,0.7456,0.6498,0.5594,0.4841,0.4718,0.4626,0.4529,0.4519,0.457,0.4787,0.5269,0.5597,0.5814,0.7069,0.7824,0.8025,0.8981,0.971,1.0115,1.0115,1.0218,1.0466,1.0914,1.1116,1.1116,1.1375,1.1325,1.1116,1.1375,1.1484,1.1534,1.1981,1.2452,1.2881,1.2881,1.2881,1.2881,0.0,0.0,0.0,0.0,0.0,0.0,0.0,0.0,0.0,0.0,0.0,0.0,0.0,0.0,0.0,0.0,0.0,0.0,1.092,1.1361,1.2354,1.4013,1.4355,1.4805,1.5511,1.4496,1.4333,1.5051,1.0507,0.7165,0.4947,0.2854,0.2785,0.4492,0.4518,0.609,0.8734,0.9257,0.9219,0.8815,0.884,0.966,1.1247,0.0,0.0,0.0,0.0,0.0,0.0,0.0,1.5045,1.286,1.0945,1.1501,1.2866,1.2915,1.2913,1.2616,1.1216,1.0822,1.0821,1.0813,0.0,0.0,0.9821,0.9263,0.8804,0.8804,0.8804,0.8804,0.8804,0.8804,0.0,0.9137,0.8991,0.9011,0.9599,0.8086,0.7075,0.7449,0.5982,0.4918,0.4918,0.4779,0.4626,0.4529,0.4519,0.4787,0.5487,0.5542,0.5869,0.6588,0.7343,0.8025,0.8678,0.8778,0.951,1.0813,1.0813,1.1166,1.1814,1.1814,1.1814,1.1864,1.2559,1.2501,1.1873,1.2608,1.2881,1.2881,1.2881,1.2881,1.2881,1.2881,1.2881,1.2929,0.0,0.0,0.0,0.0,0.0,0.0,0.0,0.0,0.0,0.0,0.0,0.0,0.0,0.0,0.0,0.0,0.0,0.0,1.0879,1.1733,1.2776,1.4057,1.4767,1.5281,1.558,1.3993,1.2581,1.1358,0.8351,0.6441,0.5615,0.4881,0.454,0.4554,0.5923,0.7761,0.9855,1.0001,0.9575,0.8964,1.0922,1.2947,1.5073,0.0,0.0,0.0,0.0,0.0,0.0,0.0,0.0,0.0,1.2356,1.164,1.1209,1.1826,1.2414,1.2797,1.2406,1.2283,0.0,1.1642,0.0,0.0,0.0,0.9472,0.0,0.0,0.8804,0.8804,0.8804,0.8804,0.0,0.8925,0.8864,0.8938,0.9319,0.8534,0.7832,0.7435,0.644,0.557,0.4979,0.4684,0.4777,0.5349,0.529,0.5492,0.6258,0.6745,0.7122,0.7343,0.856,0.9287,0.9488,1.0407,1.1116,1.1516,1.2049,1.2089,1.1814,1.2344,1.2559,1.2608,1.2822,1.2774,1.2608,1.2822,1.2881,1.2881,1.2881,1.2881,1.2881,1.2881,1.3152,1.3552,0.0,0.0,0.0,0.0,0.0,0.0,0.0,0.0,0.0,0.0,0.0,0.0,0.0,0.0,0.0,0.0,0.0,0.0,0.0,1.1995,1.3072,1.3806,1.4874,1.5319,1.5028,1.3446,1.1908,1.0356,0.8465,0.7107,0.6261,0.5773,0.559,0.5759,0.7702,0.9201,1.0307,1.0281,0.9943,0.9544,1.1214,1.2722,1.4449,0.0,0.0,0.0,0.0,0.0,0.0,0.0,0.0,0.0,1.2939,1.2192,1.1391,1.1556,1.2196,1.2899,1.2909,1.2881,0.0,1.2363,1.1724,1.1023,1.0272,0.0,0.0,0.0,0.8804,0.8804,0.8804,0.8804,0.0,0.8804,0.8804,0.8911,0.9143,0.8695,0.823,0.7941,0.6941,0.6067,0.5461,0.4983,0.4969,0.5607,0.555,0.5923,0.6966,0.7456,0.783,0.8156,0.919,0.9917,1.021,1.1015,1.1674,1.2236,1.2403,1.2393,1.2236,1.2715,1.2881,1.2881,1.2881,1.2881,1.2881,1.2881,1.2881,1.2881,1.2881,1.2881,1.2881,1.2881,1.3152,1.342,0.0,0.0,0.0,0.0,0.0,0.0,0.0,0.0,0.0,0.0,0.0,0.0,0.0,0.0,0.0,0.0,0.0,0.0,0.0,0.0,1.3376,1.3556,1.4849,1.5154,1.419,1.3044,1.2097,1.1338,1.0091,0.8635,0.702,0.6107,0.6276,0.7447,0.9419,1.0302,1.0312,1.0283,1.0303,1.0315,1.0312,1.0406,1.1221,1.7356,0.0,0.0,0.0,0.0,0.0,0.0,0.0,0.0,1.3053,1.2945,1.2757,1.1972,1.2266,1.2836,1.289,1.2881,1.2881,1.2881,1.2372,0.0,1.0123,0.9549,0.9207,0.8864,0.0,0.8804,0.8804,0.8804,0.8804,0.8804,0.8804,0.8918,0.9183,0.8714,0.8449,0.8833,0.7509,0.6564,0.6324,0.5506,0.5188,0.5703,0.566,0.6249,0.7723,0.7777,0.815,0.8857,0.9562,1.021,1.0864,1.0965,1.1633,1.2881,1.2236,1.2236,1.2881,1.2881,1.2881,1.2881,1.2881,1.2881,1.2881,1.2881,1.2881,1.2881,1.2881,1.2881,1.2881,1.2881,1.2978,1.3065,0.0,0.0,0.0,0.0,0.0,0.0,0.0,0.0,0.0,0.0,0.0,0.0,0.0,0.0,0.0,0.0,0.0,0.0,0.0,0.0,1.4127,1.4636,1.5255,1.5274,1.4598,1.3346,1.2634,1.2445,1.0351,0.9226,0.9011,0.858,0.7903,0.7183,0.9323,1.0312,1.0293,1.0312,1.0292,1.0302,1.0293,1.1217,1.3095,1.7898,1.9702,0.0,0.0,0.0,0.0,0.0,0.0,0.0,1.4249,1.3504,1.3073,1.273,1.25,1.2447,1.2822,1.2881,0.0,0.0,1.2557,1.1766,1.0177,0.9916,0.9847,0.8971,0.8804,0.8804,0.8804,0.8804,0.8804,0.8804,0.8804,0.8991,0.9512,0.9471,0.9322,0.9184,0.8748,0.8102,0.7311,0.6351,0.6191,0.7282,0.6728,0.7015,0.848,0.8586,0.8896,0.9562,1.0269,1.0914,1.1566,1.2147,1.2618,1.2881,1.2725,1.2774,1.2881,1.2881,1.2881,1.2881,1.2881,1.2881,1.2881,1.2881,1.2881,1.2881,1.2881,1.2881,1.2881,1.2881,1.3478,1.4294,0.0,0.0,0.0,0.0,0.0,0.0,0.0,0.0,0.0,0.0,0.0,0.0,0.0,0.0,0.0,0.0,0.0,0.0,0.0,0.0,1.4845,1.5696,1.5905,1.5732,1.5141,1.447,1.4114,1.4093,1.2407,1.1278,1.0731,1.0906,1.0125,0.8633,0.979,1.0834,1.1642,1.0716,1.0567,1.1029,1.102,1.2123,1.4101,1.6827,1.7586,1.7156,1.6661,0.0,0.0,0.0,0.0,0.0,0.0,0.0,1.3876,1.381,1.3575,1.3392,1.3358,0.0,0.0,1.2968,0.0,1.1729,1.0565,1.015,0.9819,0.899,0.8804,0.8804,0.8804,0.8804,0.8804,0.8804,0.8925,0.9172,0.9619,0.98,0.9873,0.9933,0.9345,0.874,0.8247,0.7255,0.7014,0.7993,0.7644,0.7901,0.9218,0.8956,0.9263,1.0269,1.0618,1.1116,1.1814,1.255,1.2881,1.2881,1.2881,1.2881,1.2881,1.2881,1.2881,1.2881,1.2881,1.2881,1.2881,1.2881,1.2881,1.2881,1.2881,1.3055,1.3286,1.3017,1.3467,1.4283,0.0,0.0,0.0,0.0,0.0,0.0,0.0,0.0,0.0,0.0,0.0,0.0,0.0,0.0,0.0,0.0,0.0,0.0,0.0,0.0,0.0,1.6471,1.6522,1.6281,1.5752,1.5624,1.5632,1.5799,1.503,1.4079,1.2954,1.2904,1.1985,1.031,1.0309,1.1376,1.3033,1.1466,1.1298,1.2036,1.205,1.3021,1.4586,1.5485,1.525,0.0,1.5589,1.6022,1.6123,1.6134,0.0,0.0,0.0,0.0,1.4733,1.4675,1.4698,1.4606,1.4097,0.0,1.3637,1.3065,1.2452,0.0,1.1116,1.0517,0.9917,0.9159,0.8857,0.8804,0.8804,0.8804,0.8804,0.8804,0.9011,0.9265,0.9566,0.986,1.0154,1.0448,0.9624,0.9028,0.9114,0.8127,0.7714,0.8237,0.8361,0.8757,0.9577,0.9309,0.9666,1.0762,1.0914,1.1316,1.1972,1.2608,1.2881,1.2881,1.2881,1.2881,1.2881,1.2881,1.2881,1.2881,1.2881,1.2881,1.2881,1.2881,1.2968,1.3065,1.3065,1.342,1.3909,1.3382,1.36,1.4097,0.0,0.0,0.0,0.0,0.0,0.0,0.0,0.0,0.0,0.0,0.0,0.0,0.0,0.0,0.0,0.0,0.0,0.0,0.0,0.0,0.0,1.6497,1.6522,1.6454,1.6305,1.5736,1.5948,1.6959,1.697,1.7049,0.0,0.0,1.1954,1.0283,1.0302,1.1276,1.2925,1.2857,1.2878,1.2998,1.2999,1.3607,1.4604,1.5467,0.0,0.0,0.0,1.4037,1.4576,1.4585,1.4771,0.0,0.0,0.0,1.4783,1.4722,1.4698,1.4698,1.4606,0.0,1.3637,0.0,1.2832,1.2559,0.0,0.0,1.1166,0.0,0.9211,0.8804,0.8804,0.8804,0.8804,0.8804,0.8838,0.8965,0.9203,0.9552,0.9853,1.014,1.0012,0.9833,0.9642,0.8869,0.8522,0.8691,0.8949,0.9017,0.8917,0.9961,1.061,1.0813,1.1366,1.203,1.2774,1.2832,1.2881,1.2881,1.2881,1.2881,1.2881,1.2881,1.2881,1.2881,1.2881,1.2881,1.2881,1.2881,1.319,1.3684,1.3684,1.405,1.456,1.4479,1.4835,1.5353,0.0,0.0,0.0,0.0,0.0,0.0,0.0,0.0,0.0,0.0,0.0,0.0,0.0,0.0,0.0,0.0,0.0,0.0,0.0,0.0,0.0,1.6045,1.6358,1.6625,1.6912,1.6625,1.7036,1.8129,1.8093,0.0,0.0,1.5986,1.3788,0.0,0.0,1.0717,1.1535,1.27,1.3189,1.3192,1.3155,1.3698,0.0,0.0,0.0,0.0,0.0,0.0,1.4223,1.4537,1.4937,1.5339,1.5319,0.0,0.0,0.0,1.5473,1.5567,1.488,1.4283,1.3637,0.0,1.2881,1.2715,1.1972,1.1814,1.1516,1.0568,1.0115,0.9814,0.9413,0.9361,0.9361,0.9361,0.9145,0.9044,0.9163,0.9633,0.9973,1.01,0.9973,0.9886,0.992,0.933,0.8983,0.901,0.9521,0.9828,0.9932,1.0466,1.1174,1.195,1.1873,1.2129,1.2881,1.2881,1.2881,1.2881,1.2881,1.2881,1.2881,1.2881,1.2881,1.2881,1.2881,1.2881,1.2929,1.3238,1.3552,1.3815,1.419,1.4652,1.5141,1.4835,1.5096,1.5588,0.0,0.0,0.0,0.0,0.0,0.0,0.0,0.0,0.0,0.0,0.0,0.0,0.0,0.0,0.0,0.0,0.0,0.0,0.0,0.0,0.0,1.5517,1.5998,1.6696,1.7504,1.7183,1.7685,1.9095,0.0,0.0,1.8852,1.7801,1.6077,0.0,1.2454,1.187,0.0,0.0,0.0,0.0,0.0,0.0,0.0,0.0,0.0,0.0,0.0,0.0,0.0,0.0,1.5031,1.5389,1.5308,1.5845,0.0,0.0,0.0,0.0,0.0,0.0,1.3873,1.3113,1.2881,1.2774,0.0,0.0,1.1873,0.0,1.1225,1.1124,1.0415,1.0167,1.0064,1.0064,0.9811,0.9547,0.9391,0.9952,1.0293,0.9893,0.9874,0.9884,0.9873,0.9435,0.926,0.9343,1.01,1.0531,1.0533,1.0864,1.1484,1.2363,1.1981,1.2129,1.2881,1.2881,1.2881,1.2881,1.2881,1.2881,1.2929,1.3065,1.3152,1.3152,1.3152,1.3152,1.32,1.3779,1.4143,1.4318,1.4732,1.5287,1.5776,1.5332,1.5421,1.582,0.0,0.0,0.0,0.0,0.0,0.0,0.0,0.0,0.0,0.0,0.0,0.0,0.0,0.0,1.347,1.3962,0.0,0.0,0.0,0.0,0.0,1.5,1.55,0.0,1.8013,1.6801,1.7325,1.9639,0.0,0.0,1.966,1.9567,1.8368,1.6305,1.6213,1.617,1.6178,0.0,0.0,0.0,0.0,0.0,0.0,0.0,0.0,0.0,0.0,0.0,0.0,0.0,0.0,1.4509,1.4272,1.5178,1.6323,0.0,0.0,0.0,0.0,1.4663,0.0,1.32,1.2881,1.2881,0.0,0.0,1.2618,1.1922,1.2295,1.2559,1.1823,1.1166,1.0771,1.0771,1.0728,1.049,0.9836,1.0606,1.0725,0.939,0.9866,1.0024,0.9334,0.9203,0.933,0.9762,1.0704,1.0841,0.988,1.1065,1.1466,1.0914,1.1466,1.2129,1.2881,1.2881,1.2881,1.2881,1.2881,1.2881,1.2929,1.3505,1.3732,1.3732,1.3732,1.3732,1.3815,1.4376,1.5005,1.5499,1.5543,1.5908,1.6466,1.6423,1.6423,1.6466,0.0,0.0,0.0,0.0,0.0,0.0,0.0,0.0,0.0,0.0,0.0,0.0,0.0,1.4807,1.4201,1.4523,1.3919,0.0,0.0,0.0,0.0,1.4915,1.5391,1.6414,1.8052,1.7413,1.7946,0.0,0.0,1.8749,1.8675,1.9387,1.8547,1.6522,1.6504,1.6515,1.6501,1.6501,0.0,0.0,0.0,0.0,0.0,0.0,0.0,0.0,0.0,0.0,0.0,0.0,0.0,0.0,0.0,0.0,0.0,0.0,0.0,0.0,0.0,0.0,0.0,1.3779,1.3457,1.3372,1.2968,1.2881,1.2832,1.2559,1.2725,1.2822,1.2559,1.1931,1.1466,1.1466,1.1065,1.0712,1.0466,1.0567,1.047,0.9988,0.9721,0.9508,0.9239,0.9437,0.9633,0.9769,1.0937,1.1463,1.1124,1.199,1.2403,1.2157,1.2353,1.2618,1.2881,1.2881,1.2881,1.2881,1.2881,1.2881,1.2929,1.3505,1.3815,1.3815,1.4641,1.4732,1.4422,1.505,1.541,1.5632,1.6008,1.6293,1.6522,1.6522,1.6522,1.6552,0.0,0.0,0.0,0.0,0.0,0.0,0.0,0.0,0.0,0.0,0.0,0.0,0.0,0.0,1.5346,1.5096,1.4631,1.4275,1.4113,1.4357,1.4641,1.4903,1.5193,1.6203,1.8052,1.7472,1.7998,1.969,1.8819,1.8106,0.0,1.8303,1.7889,1.6522,1.6522,1.6498,0.0,0.0,0.0,1.8546,0.0,0.0,1.7475,0.0,0.0,0.0,0.0,0.0,0.0,0.0,0.0,0.0,0.0,0.0,0.0,0.0,0.0,0.0,1.7167,0.0,0.0,0.0,1.4226,1.392,1.3334,1.32,1.3152,1.2929,1.2881,1.2881,1.2881,1.251,1.2187,1.2187,1.1783,1.1434,1.1166,1.0924,1.0666,1.0196,0.9875,0.9667,0.9404,0.9836,1.0218,1.0466,1.1316,0.0,1.1814,1.2236,1.255,1.255,1.2774,1.2881,1.2881,1.3104,1.3104,1.2881,1.3104,1.32,1.3238,1.3826,1.4226,1.4457,1.5454,1.5555,1.5062,1.5644,1.5908,1.5952,1.6324,1.6522,1.6522,1.6522,1.6595,1.6837,0.0,0.0,0.0,0.0,0.0,0.0,0.0,0.0,0.0,1.485,0.0,0.0,0.0,0.0,0.0,1.5811,1.5222,1.4722,1.4161,1.4049,1.4327,1.4983,0.0,0.0,0.0,1.6921,1.7423,1.969,1.7177,1.6136,1.6586,1.6541,1.6497,1.6497,1.6497,1.6515,1.6615,0.0,1.9717,1.9695,0.0,1.9161,1.8339,0.0,0.0,0.0,1.7295,1.727,0.0,1.7323,0.0,0.0,0.0,0.0,0.0,0.0,0.0,0.0,0.0,0.0,0.0,0.0,0.0,0.0,1.3956,0.0,1.3637,1.3065,1.2929,1.2929,1.2929,1.2929,1.2929,1.2929,1.2929,1.2666,1.1922,1.1814,1.1316,1.0012,1.0415,1.0517,0.9917,1.0415,1.1116,1.1765,1.1814,1.1814,1.1814,1.1814,1.1814,1.1814,1.251,1.2929,1.2929,1.3505,1.3505,1.2978,1.3552,1.3815,1.3862,1.4468,1.505,1.5676,1.6281,1.6182,1.5676,1.6281,1.6522,1.6522,1.6522,1.6522,1.6522,1.6522,1.6837,1.7312,0.0,0.0,0.0,0.0,0.0,0.0,0.0,0.0,0.0,0.0,0.0,0.0,0.0,1.7758,1.6989,1.6191,1.5721,1.5212,1.4625,1.454,1.4601,1.4862,1.4481,1.5384,1.7676,1.6889,1.7509,1.969,1.8994,1.8711,1.8784,1.7221,1.6492,0.0,1.649,1.6494,1.6636,1.8798,0.0,1.9657,1.9031,1.8986,0.0,0.0,0.0,0.0,0.0,1.8588,1.8939,0.0,1.8637,1.8985,0.0,0.0,0.0,0.0,0.0,0.0,1.9358,0.0,0.0,0.0,0.0,0.0,1.4687,0.0,1.3732,1.36,1.3552,1.3552,1.3552,1.3552,1.3552,1.3552,1.32,1.2832,1.2608,1.2138,1.1665,1.1316,1.0965,1.072,1.0517,1.1116,1.1616,0.0,1.2295,1.2608,1.2608,1.2608,1.2608,1.2608,1.2774,1.3104,1.3552,1.3732,1.392,1.4201,1.4387,1.4468,1.4468,1.5096,1.5664,1.6219,1.6811,1.698,1.6799,1.6582,1.6522,1.6522,1.6522,1.6522,1.6522,1.6522,1.6837,1.7353,0.0,0.0,0.0,0.0,0.0,0.0,1.6554,1.6406,1.6378,0.0,0.0,0.0,0.0,0.0,1.7388,1.677,1.6309,1.5865,1.5526,1.5138,1.5139,1.5496,1.4773,1.5231,1.7076,1.6729,1.7571,1.969,1.9693,1.9716,1.9669,1.8412,1.7832,1.785,0.0,0.0,0.0,0.0,0.0,0.0,1.9161,0.0,0.0,1.8837,1.9016,0.0,0.0,0.0,1.9639,1.9332,1.9666,0.0,0.0,0.0,0.0,0.0,0.0,0.0,0.0,0.0,0.0,0.0,0.0,0.0,1.5608,1.4949,1.4503,0.0,1.419,1.419,1.419,1.419,1.4097,1.3815,1.3505,1.32,1.2929,1.2295,1.1814,1.1814,1.1466,1.1216,1.1216,1.1832,1.2236,1.2236,1.289,1.3382,1.3658,1.343,1.3286,1.3286,1.3286,1.342,1.3815,1.4318,1.4595,1.4698,1.4971,1.5062,1.5096,1.5664,1.6219,1.6828,1.7368,1.7626,1.7626,1.7312,1.7034,1.6795,1.6595,1.6637,1.6837,1.6837,1.7146,1.7706,0.0,0.0,0.0,1.8893,1.8106,1.7216,1.6676,1.6995,1.7133,0.0,1.7946,1.8893,0.0,0.0,0.0,0.0,1.6795,1.6466,1.6367,1.5718,1.5516,1.6096,1.5069,1.5114,1.6468,1.6736,1.7791,1.969,1.969,1.97,1.97,1.97,1.968,1.972,0.0,0.0,0.0,0.0,0.0,1.969,1.969,1.969,0.0,0.0,1.9639,1.9603,1.969,1.9639,1.9603,1.969,2.0243,0.0,0.0,0.0,0.0,0.0,2.1275,0.0,0.0,0.0,0.0,0.0,1.808,0.0,1.6574,1.6027,1.5534,0.0,1.4858,1.4789,1.4789,1.4744,1.4536,1.4067,1.3752,1.3399,1.2968,1.2344,1.1922,1.1922,1.1922,1.1922,1.1922,1.2598,1.2968,1.2929,1.3467,1.405,1.456,1.4097,1.3768,1.3684,1.3779,1.3815,1.3909,1.5039,1.5365,1.4926,1.5454,1.572,1.5796,1.6262,1.6857,1.7504,1.7987,1.8185,1.8185,1.8185,1.7867,1.7353,1.6879,1.6951,1.7394,1.7394,1.7747,1.8263,0.0,0.0,0.0,1.9442,1.865,1.7894,1.7814,1.7504,1.7422,1.7733,1.8444,1.8727,0.0,0.0,0.0,0.0,1.6552,1.6213,1.5604,1.5395,1.4786,1.363,1.3401,1.4273,1.6455,1.8194,1.9265,1.969,1.969,1.9705,1.9692,1.9692,1.9722,1.9693,1.9693,0.0,0.0,0.0,0.0,1.969,1.969,1.969,1.969,1.969,1.9442,1.9132,1.9566,1.9406,1.9132,1.9566,2.0035,2.0434,0.0,0.0,0.0,2.115,0.0,0.0,0.0,0.0,0.0,0.0,1.8111,0.0,1.6637,1.6405,1.6308,0.0,1.5751,1.541,1.541,1.5017,1.4786,1.4975,1.3438,1.2374,1.2822,1.2774,1.2666,1.2666,1.2666,1.2666,1.2666,1.3266,1.342,1.2929,1.3467,1.3862,1.3956,1.3862,1.36,1.3104,1.3552,1.405,1.4514,1.5231,1.5776,1.6151,1.6281,1.657,1.6967,1.7092,1.7653,1.8574,1.8688,1.8727,1.8727,1.8727,1.8419,1.7947,1.7827,1.7867,1.7947,1.7947,1.8302,1.8765,0.0,0.0,0.0,1.9603,1.8817,1.8185,1.8458,1.8027,1.7907,1.8419,1.8727,0.0,0.0,0.0,0.0,0.0,0.0,0.0,0.0,1.5913,1.5545,1.472,1.4707,1.5772,1.804,2.0012,2.0584,1.969,2.0005,2.0005,1.969,1.969,1.951,1.9211,1.954,1.9495,0.0,0.0,1.969,1.969,1.969,0.0,1.969,1.969,1.9369,1.8968,1.953,1.953,1.9354,1.9859,2.0124,0.0,2.0583,2.0829,2.0959,0.0,2.0649,2.0516,0.0,0.0,0.0,1.8775,0.0,0.0,0.0,1.6875,1.6585,1.6985,1.6522,1.6137,1.6418,1.597,1.5439,1.5333,1.3768,1.2833,1.3416,1.2817,1.2501,1.2881,1.2881,1.2881,1.2881,1.3152,1.3324,1.3324,1.392,1.4376,1.4675,1.4411,1.4107,1.3789,1.4107,1.4376,1.4698,1.5884,1.6587,1.6909,1.7146,1.7422,1.7706,1.7987,1.838,1.8893,1.9169,1.9281,1.9281,1.9281,1.9132,1.8855,1.8302,1.8263,1.8496,1.8496,1.865,1.893,1.8968,0.0,0.0,1.9603,1.8893,1.8419,1.8817,0.0,0.0,0.0,0.0,0.0,0.0,0.0,0.0,0.0,0.0,0.0,0.0,1.6492,1.6497,1.6484,1.6901,1.809,2.0161,2.16,2.1497,1.9884,2.0366,2.0281,1.969,1.969,1.9405,1.8912,1.945,1.939,0.0,0.0,0.0,1.969,0.0,1.969,1.969,1.9603,1.9281,1.8968,1.9406,1.9603,1.9747,2.0143,2.0246,2.0246,2.0715,2.0797,0.0,0.0,0.0,0.0,0.0,0.0,0.0,0.0,0.0,1.7783,0.0,0.0,0.0,1.7264,1.7156,1.7042,1.7358,1.6711,1.6008,1.556,0.0,0.0,0.0,1.2941,0.0,1.3016,1.2978,1.291,1.2998,1.3076,1.338,1.3931,1.4457,1.4992,1.5421,1.496,1.4698,1.4698,1.4789,1.4915,1.505,1.6532,1.7353,1.7463,1.7907,1.8145,1.8263,1.8688,1.8968,1.908,1.953,1.969,1.969,1.969,1.969,1.9603,1.8727,1.865,1.9043,1.9043,1.9043,1.9132,1.9603,1.9603,0.0,0.0,1.9207,1.8817,1.8893,0.0,0.0,0.0,0.0,0.0,0.0,0.0,0.0,0.0,0.0,0.0,1.6522,0.0,0.0,1.6494,1.8335,2.0183,2.197,2.2186,2.1716,2.0485,2.0569,2.0281,1.969,1.969,1.9645,1.957,1.966,1.9645,0.0,0.0,1.969,0.0,1.969,1.969,0.0,1.9169,1.8968,1.8893,1.8968,1.9281,1.9747,0.0,2.0054,1.9839,0.0,2.0124,1.9854,1.9782,0.0,0.0,0.0,0.0,0.0,0.0,1.7421,0.0,1.6675,0.0,1.6534,1.6609,0.0,1.8235,1.7516,0.0,0.0,0.0,0.0,0.0,1.3966,1.3446,1.322,1.3879,1.334,1.3027,1.3398,1.3769,1.4124,1.4581,1.4892,1.496,1.48,1.4744,1.4698,1.4698,1.5231,1.5708,1.6207,1.6912,1.7544,1.8027,1.8066,1.8341,1.8817,1.8855,1.9169,1.9603,1.969,1.969,1.969,1.969,1.969,1.969,1.9566,1.9566,1.9603,1.9603,1.9603,1.9603,1.969,1.969,0.0,0.0,1.9244,1.9006,0.0,0.0,0.0,0.0,0.0,0.0,0.0,0.0,0.0,0.0,0.0,1.6502,1.6519,0.0,0.0,1.8307,2.0182,2.1538,2.2287,2.2297,2.1746,2.0603,2.0775,2.046,1.969,1.969,1.948,1.9136,1.951,1.9465,1.9151,0.0,1.969,0.0,0.0,1.9406,0.0,1.9442,1.9369,1.9332,1.9006,1.9244,1.9726,0.0,1.9839,0.0,0.0,0.0,0.0,1.969,0.0,0.0,0.0,0.0,0.0,0.0,0.0,0.0,1.6507,0.0,1.669,1.7333,0.0,0.0,0.0,0.0,0.0,0.0,1.3799,1.3257,0.0,0.0,1.3192,1.4344,0.0,0.0,1.3516,1.42,1.4399,1.373,1.4889,1.5356,1.4708,1.5005,1.5231,1.5231,1.5454,1.5884,1.6378,1.7327,1.8027,1.8574,1.8893,1.9169,1.9369,1.9369,1.9479,1.969,1.969,1.969,1.969,1.969,1.969,1.969,1.969,1.969,1.969,1.969,1.969,1.969,1.9839,0.0,0.0,0.0,1.9369,1.9317,1.9893,1.9485,1.929,1.9719,0.0,0.0,1.7978,1.739,0.0,0.0,1.6777,1.6897,1.6827,0.0,1.8072,2.0676,2.1753,2.2287,2.2313,2.2161,2.16,2.0724,2.0778,2.0431,1.969,1.969,1.9435,1.9001,1.9465,1.942,1.9001,0.0,1.969,1.969,1.9281,1.9369,1.969,1.969,1.969,1.9639,1.9244,1.9369,1.9762,1.998,2.0117,0.0,2.0435,2.0573,2.0656,0.0,0.0,0.0,1.9968,0.0,0.0,0.0,0.0,0.0,0.0,0.0,0.0,0.0,1.7543,0.0,0.0,0.0,1.6508,0.0,0.0,1.3708,0.0,1.3936,0.0,0.0,0.0,0.0,0.0,1.4903,1.4862,1.3451,1.493,1.5537,1.4719,1.5276,1.5752,1.6058,1.6058,1.6391,1.7081,1.792,1.8574,1.9132,1.953,1.969,1.969,1.969,1.969,1.969,1.969,1.969,1.969,1.969,1.969,1.969,1.969,1.969,1.969,1.969,1.969,1.969,2.0212,1.9965,0.0,0.0,0.0,1.9914,2.0572,2.0104,1.9733,1.9877,1.936,1.8559,1.7529,0.0,0.0,0.0,0.0,1.7972,1.7581,1.7868,1.9666,2.3317,0.0,2.2292,2.2298,2.1737,2.1279,2.1007,2.055,2.0089,1.969,1.969,1.9675,1.966,1.9675,1.9675,1.966,1.9675,1.969,1.969,1.969,1.969,1.969,0.0,1.969,1.969,1.969,0.0,0.0,2.0665,2.1171,0.0,0.0,0.0,0.0,0.0,0.0,0.0,0.0,0.0,0.0,1.9663,0.0,0.0,0.0,0.0,1.7974,0.0,0.0,1.8568,1.8288,1.7247,0.0,0.0,0.0,0.0,0.0,0.0,1.5698,1.539,1.5655,0.0,0.0,1.5951,1.592,0.0,1.5258,1.5383,1.473,1.5276,1.6102,1.7216,1.7271,1.7733,1.8803,1.8855,1.9132,1.969,1.969,1.969,1.969,1.969,1.969,1.969,1.969,1.969,1.969,1.969,1.969,1.969,1.969,1.969,1.969,1.969,1.969,1.969,0.0,0.0,0.0,0.0,0.0,2.0587,2.1261,2.0885,2.0824,2.1638,2.0573,1.9732,1.9777,1.9594,1.9119,1.8278,1.8997,1.9111,1.8329,1.8163,1.9753,2.343,2.2762,2.2281,2.2302,2.1817,2.1275,2.0735,2.0889,2.0763,2.0363,2.0363,2.0363,2.0348,1.9884,1.969,0.0,0.0,0.0,0.0,0.0,1.969,1.969,0.0,1.969,1.969,1.969,1.9874,0.0,2.1045,2.16,2.2025,2.278,2.3102,2.3192,2.3192,2.3087,2.2762,0.0,0.0,2.1318,2.0561,0.0,0.0,0.0,0.0,0.0,0.0,0.0,0.0,0.0,0.0,0.0,0.0,0.0,0.0,0.0,0.0,1.6309,1.5839,1.6223,0.0,0.0,0.0,0.0,0.0,1.5992,1.6166,1.5345,1.5864,1.6514,1.7271,1.7312,1.7827,1.8893,1.8893,1.9169,1.969,1.969,1.969,1.969,1.969,1.969,1.969,1.969,1.969,1.969,1.969,1.969,1.969,1.969,1.9959,2.0363,2.0363,2.0363,2.0438,2.1228,0.0,0.0,0.0,2.1061,2.1291,2.1934,2.175,2.1903,2.2896,2.1819,2.1129,2.1599,2.0934,2.0298,1.9859,2.0348,2.0331,1.9468,1.8945,1.9862,2.2575,2.1841,2.1679,2.2299,2.2007,2.1581,2.1069,2.0817,2.0827,2.1051,2.0872,2.0752,2.0677,1.9989,1.969,1.969,1.969,1.969,0.0,0.0,1.969,0.0,0.0,1.969,1.969,0.0,2.0132,2.0802,2.1192,2.2141,2.3191,2.3538,2.4031,2.4441,2.4441,2.4337,2.3994,2.3059,2.2928,0.0,2.1696,2.1108,0.0,2.0049,0.0,1.8775,0.0,0.0,0.0,0.0,0.0,0.0,0.0,0.0,0.0,0.0,1.6951,1.6957,1.6223,1.6746,1.6848,0.0,0.0,1.6443,1.5866,1.6522,1.6562,0.0,1.6194,1.6837,1.7544,1.7585,1.8171,1.9398,1.9398,1.9579,1.9909,1.9909,1.9839,1.969,1.969,1.969,1.969,1.969,1.969,1.969,1.969,1.969,1.969,1.969,2.0109,2.0722,2.0722,2.0857,2.1126,2.2225,2.2055,2.162,2.1051,2.147,2.2099,2.2727,2.2864,2.3115,2.3797,2.3146,2.2725,2.3049,2.2032,2.1287,2.122,2.1625,2.16,2.1005,2.0299,2.0219,2.091,2.0207,2.06,2.2254,2.2308,2.2216,2.2045,2.0521,2.0495,2.1739,2.1278,2.0978,2.0782,2.0049,1.9735,1.9735,1.9735,1.972,1.969,1.969,1.969,1.969,1.972,1.972,1.969,1.969,2.0472,2.1448,2.1147,2.28,2.4962,2.4654,2.5558,2.6691,2.6691,2.6367,2.5888,2.5303,2.4708,2.3988,2.294,2.2583,0.0,0.0,0.0,2.0661,0.0,0.0,0.0,0.0,0.0,0.0,0.0,0.0,0.0,0.0,0.0,1.7601,1.6584,1.7326,1.7718,0.0,1.7511,1.7431,1.6573,1.692,1.6693,0.0,1.6244,1.7057,1.8066,1.8131,1.8835,2.028,2.0314,2.0314,2.0314,2.028,2.0054,1.969,1.969,1.969,1.969,1.969,1.969,1.969,1.969,1.969,1.969,1.972,2.0183,2.0812,2.0812,2.1231,2.1784,2.2561,2.287,2.337,2.4208,2.4492,2.4657,2.4837,2.5265,2.5857,2.651,2.5953,2.5523,2.5638,2.493,2.4065,2.312,2.3551,2.3331,2.1999,2.2363,2.1848,2.0097,2.1068,2.185,2.2278,2.2285,2.2964,2.4346,2.2226,2.1629,2.2454,2.2124,2.2064,2.2128,2.0961,2.0453,2.0453,2.0453,2.0154,1.969,1.969,1.969,1.9735,0.0,2.0124,1.969,1.969,2.0406,2.1435,2.1869,2.3282,2.4957,2.5441,2.61,2.6691,2.6691,2.6367,2.5773,2.4729,2.4692,2.4592,2.3102,2.3235,2.3512,0.0,0.0,0.0,0.0,0.0,0.0,0.0,0.0,0.0,0.0,0.0,0.0,0.0,0.0,0.0,1.7273,1.8013,1.828,1.7339,1.6622,1.6606,1.7634,1.7855,1.7458,1.6343,0.0,1.7886,1.8094,1.844,1.9141,2.028,2.0314,2.0314,2.0314,2.0,1.9818,1.969,1.969,1.969,1.969,1.969,1.969,1.969,1.969,1.969,1.9735,2.0243,2.1156,2.2173,2.2173,2.2577,2.3116,2.3954,2.4462,2.5241,2.6288,2.6961,2.7051,2.6168,2.6363,2.6826,2.7535,2.759,2.7445,2.7108,2.6342,2.5515,2.4611,2.4594,2.4103,2.2934,2.3763,2.3638,2.2188,2.2212,2.2308,2.2298,2.2308,0.0,2.5849,2.3633,2.2707,2.308,2.2903,2.2738,2.2664,2.1795,2.1341,2.1126,2.0842,2.0662,2.0513,1.9929,1.9869,0.0,2.0228,2.0034,1.969,1.969,2.0421,2.145,2.1786,2.3099,2.4642,2.528,2.5733,2.6123,2.6573,2.621,2.548,2.4815,2.4841,2.4762,2.3717,2.395,2.4346,2.3866,2.3676,2.357,0.0,2.2823,2.2415,0.0,0.0,0.0,0.0,0.0,0.0,0.0,0.0,0.0,0.0,1.8632,1.8749,1.8067,1.7415,1.7604,1.891,1.9272,1.8767,1.7346,1.8401,1.8745,1.8094,1.8853,1.9723,2.0583,2.0677,2.0677,2.0583,2.0158,1.9874,1.969,1.969,1.969,1.969,1.969,1.969,1.9705,2.0004,2.0139,2.0228,2.1201,2.2024,2.2724,2.2724,2.3071,2.3595,2.5719,2.6273,2.6901,2.752,2.8622,2.8921,2.7335,2.7186,2.741,2.7904,2.8586,2.8682,2.7925,2.6942,2.618,2.5704,2.5046,2.4357,2.3634,2.4493,2.513,2.5379,2.3405,2.2308,2.2291,2.2291,2.3765,0.0,2.5092,2.4198,2.3958,2.3802,2.3489,2.3005,0.0,0.0,0.0,2.1091,2.1151,2.1519,2.0235,2.0094,2.0647,2.0107,1.9858,1.9797,1.9873,2.0533,2.1378,2.1353,2.2572,2.4179,2.4587,2.4948,2.5373,2.6245,2.5819,2.5089,2.4994,2.4777,2.4531,2.4186,2.4393,2.4603,2.4329,2.4309,2.4269,2.3901,2.3255,2.2809,2.2996,0.0,0.0,0.0,0.0,0.0,0.0,0.0,0.0,0.0,1.9232,0.0,1.9141,1.899,1.9266,2.0031,2.0667,2.0251,1.8481,0.0,1.9586,1.8266,1.9284,2.0288,2.1148,2.112,2.112,2.1165,2.0527,2.0054,1.9782,1.9782,1.9782,1.9782,1.9711,1.969,1.9735,2.0423,2.0812,2.1081,2.2143,2.2694,2.2787,2.2753,2.3071,2.3595,2.6318,2.6946,2.749,2.7595,2.8233,2.9011,2.9714,3.0298,3.0507,3.0043,2.9678,2.9432,2.9289,2.7634,2.6441,2.6178,2.5394,2.4531,2.367,2.3779,2.4652,2.637,2.3777,2.2292,2.2291,2.2291,2.3739,0.0,2.7597,2.7288,2.5831,2.5573,2.5214,0.0,0.0,0.0,2.2785,2.1802,0.0,2.128,2.0156,2.0094,2.073,2.0941,2.067,2.0254,2.0824,2.095,2.0933,2.1437,2.2478,2.367,2.4257,2.4799,2.5221,2.5411,2.5012,2.4427,2.3865,2.3693,2.349,2.284,2.3375,2.4165,2.4622,2.5045,2.5514,2.6032,2.5379,2.4732,2.4743,0.0,0.0,0.0,0.0,0.0,0.0,0.0,0.0,0.0,0.0,2.0125,2.0226,1.9532,1.9294,1.9903,2.0923,2.0799,1.9045,0.0,2.0074,0.0,1.9339,2.0427,0.0,0.0,2.0624,2.2055,2.0487,1.9884,2.0177,2.0177,2.0177,2.0193,1.9839,1.969,1.9735,2.0423,2.135,2.2308,2.1994,2.2517,2.337,2.2862,2.3071,2.3535,2.8171,2.8128,2.8308,2.8981,2.937,2.9924,3.0881,3.1614,3.1809,3.112,3.0008,2.9229,2.9229,2.7966,2.6702,2.5704,2.5243,2.4696,2.4051,2.4421,2.5142,2.615,2.516,2.3871,2.2338,2.2312,2.3734,2.6691,2.7112,2.7125,2.6759,2.6608,2.6065,2.5189,0.0,2.4159,0.0,0.0,2.1569,2.1676,2.0246,2.021,2.0975,2.0844,2.073,2.0697,2.1027,2.1033,2.0941,2.1491,2.2254,2.3064,2.4064,2.4592,2.4831,2.5144,2.4816,2.4312,2.3986,2.3842,2.3692,2.3452,2.3428,2.3742,2.4762,2.5137,2.5413,2.5815,2.5524,2.5012,2.4471,2.366,0.0,0.0,0.0,0.0,0.0,0.0,2.1988,0.0,0.0,0.0,0.0,2.1255,2.1248,2.15,2.2413,2.2152,0.0,0.0,2.1259,0.0,0.0,0.0,2.127,0.0,2.0524,2.1234,2.0182,1.9788,2.0,2.0,2.0162,2.0512,2.0309,2.0408,2.0782,2.1455,2.2293,2.3086,2.2458,2.2772,2.3475,2.2517,2.2772,2.355,2.994,2.9477,2.9505,3.0357,3.0746,3.1106,3.1601,3.2183,3.2273,3.1556,3.0128,2.9155,2.9057,2.8193,2.6919,2.5248,2.485,2.4549,2.4261,2.5282,2.5853,2.5707,2.5967,2.5084,2.295,2.2521,2.3637,2.6392,2.6068,2.6329,2.7085,2.7533,0.0,0.0,0.0,0.0,0.0,0.0,2.1698,2.2102,2.0502,2.0431,2.1259,2.0767,2.0813,2.1118,2.1118,2.1118,2.1183,2.1491,2.1926,2.2555,2.3949,2.4296,2.4253,2.4689,2.4492,2.411,2.3935,2.3698,2.3533,2.3662,2.3106,2.2869,2.4223,2.4658,2.4822,2.5114,2.5185,2.4902,2.3891,2.3984,0.0,0.0,0.0,0.0,0.0,0.0,2.2149,0.0,0.0,0.0,2.184,2.2667,2.3086,2.2946,0.0,0.0,2.1702,0.0,0.0,0.0,0.0,2.0956,2.1003,0.0,2.0407,2.0588,1.9959,1.9732,1.9854,1.9854,2.018,2.0843,2.0745,2.1171,2.1934,2.2458,2.2966,2.337,2.3011,2.3086,2.3295,2.2428,2.2742,2.3595,3.0649,3.0873,3.1049,3.0597,3.1509,3.2347,3.2422,3.2482,3.2273,3.1556,3.0648,2.9961,2.9589,2.8369,2.7028,2.5674,2.4414,2.3703,2.3703,2.5504,2.6346,2.5724,2.4629,2.4343,2.4921,2.3202,2.3316,2.5323,2.6183,2.6657,2.6775,2.8851,0.0,0.0,0.0,0.0,2.3483,2.2091,2.1698,2.1943,2.0727,2.0647,2.1315,2.1423,2.1521,2.1552,2.1552,2.1552,2.1513,2.1377,2.1643,2.2321,2.3888,2.3931,2.3412,2.3451,2.3451,2.3227,2.2441,2.189,2.1526,2.1369,2.0949,2.0858,2.2109,2.3242,2.4216,2.4875,2.5123,2.4952,2.4179,2.3747,2.3739,0.0,0.0,0.0,0.0,0.0,2.1855,2.1183,0.0,0.0,2.1087,2.2465,2.3159,2.267,2.3533,0.0,0.0,0.0,0.0,2.207,2.178,2.2169,2.3305,2.046,1.9903,2.1564,2.0235,1.9834,2.0246,2.0246,2.0617,2.1229,2.0865,2.1425,2.2634,2.2694,2.2753,2.2817,2.331,2.3206,2.2858,2.3251,2.349,2.3595,3.1341,3.1321,3.1511,3.1689,3.2153,3.2512,3.2512,3.2512,3.2273,3.1556,3.1203,3.0906,3.076,2.8875,2.7397,2.6829,2.5589,2.479,2.4702,2.5179,2.5616,2.5859,2.523,2.5053,2.5418,2.4235,2.4218,2.5435,2.6742,2.7368,2.7385,2.8298,2.801,2.6674,2.5916,2.548,2.5238,2.2965,2.2167,2.2329,2.1198,2.1021,2.1488,2.1575,2.1764,2.1974,2.1688,2.1582,2.1636,2.1741,2.1913,2.2152,2.2632,2.2948,2.3132,2.2793,2.3101,2.3394,2.2777,2.2671,2.2609,2.1937,2.156,2.1503,2.209,2.273,2.3374,2.41,2.486,2.5184,2.428,2.4179,2.4366,2.4736,0.0,0.0,0.0,0.0,0.0,2.1039,0.0,2.1279,2.1955,2.2977,2.3653,0.0,0.0,0.0,0.0,0.0,0.0,2.4049,0.0,2.1545,2.2443,2.0413,1.976,2.0483,1.9914,1.9752,1.9929,1.9929,2.0537,2.1561,2.2179,2.2742,2.3236,2.3236,2.3236,2.3221,2.3101,2.3116,2.3221,2.3086,2.3281,2.3595,3.2007,3.179,3.2033,3.2691,3.2796,3.2796,3.2796,3.2647,3.2198,3.1243,3.1344,3.1197,3.0455,2.8707,2.7606,2.758,2.6732,2.5818,2.4904,2.4757,2.5051,2.586,2.5715,2.5609,2.5609,2.4864,2.4746,2.527,2.6556,2.7063,2.6843,2.7283,2.7419,2.735,2.6622,2.6231,2.5907,2.3484,2.2503,2.2483,2.155,2.1337,2.1628,2.1748,2.1928,2.2032,2.1718,2.1521,2.145,2.1551,2.1677,2.182,2.2053,2.2415,2.2729,2.2465,2.287,2.3293,2.2898,2.2932,2.2916,2.2255,2.189,2.1736,2.1894,2.2324,2.2878,2.3487,2.4378,2.488,2.4302,2.4536,2.4923,2.531,0.0,0.0,0.0,2.1859,0.0,2.1311,2.1327,2.1682,2.2617,2.3341,2.3868,0.0,0.0,0.0,0.0,0.0,0.0,0.0,0.0,0.0,2.1979,2.0453,1.9747,1.9874,1.9874,1.9945,2.0085,2.0142,2.0797,2.1922,2.3065,2.3655,2.3837,2.3837,2.3716,2.3519,2.3125,2.3101,2.3295,2.3041,2.3221,2.3595,3.2586,3.254,3.2706,3.3365,3.3484,3.3484,3.3484,3.2931,3.193,3.0425,3.094,3.05,2.7915,2.761,2.762,2.7595,2.7561,2.6458,2.382,2.4302,2.5,2.568,2.5645,2.5609,2.5609,2.4864,2.4506,2.4523,0.0,2.5253,2.4574,2.6015,2.7519,2.896,2.8972,2.7304,2.4453,2.336,2.2665,2.2242,2.1774,2.1598,2.1658,2.2106,2.2003,2.1628,2.1582,2.1337,2.0926,2.0499,2.0632,2.1263,2.2636,2.2588,2.208,2.2476,2.2604,2.2567,2.237,2.1961,2.1615,2.1615,2.1291,2.1007,2.1023,2.189,2.2839,2.3304,2.3547,2.3868,2.4382,2.4647,2.5226,2.6472,0.0,0.0,0.0,2.2232,0.0,2.2001,2.2082,2.2247,2.2666,2.3423,2.3523,0.0,0.0,0.0,0.0,0.0,0.0,2.3988,2.3545,0.0,2.2709,2.0715,1.9909,2.028,2.028,2.055,2.0991,2.1186,2.1636,2.2308,2.3088,2.377,2.4389,2.4389,2.3986,2.342,2.3538,2.3221,2.2798,2.337,2.3595,2.3595,3.2064,3.2584,3.3245,3.3455,3.3858,3.4008,3.3559,3.2931,3.2018,3.0571,3.0313,2.99,2.9064,2.8165,2.758,2.7605,2.7588,2.6979,2.5543,2.4508,2.4458,2.5641,2.6133,2.6366,2.6336,2.5625,2.5,2.4506,2.5727,2.5964,2.527,2.6247,2.6597,2.6433,2.7129,2.633,2.4407,2.3053,2.2805,2.3249,2.2392,2.2077,2.2106,2.2237,2.2003,2.1552,2.1275,2.091,2.0516,2.0348,2.0416,2.0695,2.1746,2.1937,2.1742,2.1866,2.2142,2.2362,2.2304,2.218,2.2003,2.1688,2.1735,2.1811,2.146,2.1947,2.2471,2.262,2.3089,2.3563,2.3701,2.42,2.4723,2.5135,2.4374,0.0,2.3141,0.0,2.1388,2.136,2.1568,2.1788,2.1958,2.2602,0.0,0.0,0.0,0.0,0.0,0.0,0.0,0.0,2.4374,0.0,2.3295,2.1365,2.0834,2.1745,2.1295,2.1198,2.1384,2.2331,2.2417,2.1961,2.3425,2.4188,2.4389,2.4389,2.4265,2.4055,2.3719,2.3716,2.3882,2.4081,2.4158,2.4158,3.2374,3.2931,3.3499,3.3499,3.3634,3.3604,3.3185,3.2572,3.1749,3.0642,2.9968,2.9424,2.8907,2.809,2.7625,2.7625,2.8431,2.7922,2.5469,2.5507,2.5762,2.6064,2.6469,2.6723,2.6691,2.6251,2.5642,2.4898,2.527,2.5086,2.4382,2.5212,2.5057,2.4133,2.4777,2.4526,2.3613,2.2702,2.2647,2.318,2.2547,2.231,2.231,2.231,2.2003,2.1552,2.1306,2.0943,2.055,2.055,2.0682,2.0894,2.143,2.1718,2.1853,2.1853,2.2077,2.231,2.231,2.231,2.2237,2.1928,2.2077,2.2209,2.1928,2.2106,2.231,2.231,2.2682,2.3071,2.3342,2.3765,2.4201,2.4472,2.3866,2.3257,2.2777,2.2073,2.162,2.1632,2.1853,2.2085,0.0,2.2498,2.3157,0.0,0.0,0.0,0.0,0.0,2.7271,2.611,2.4815,2.3847,2.3251,2.1814,2.163,2.2656,2.2445,2.2343,2.234,2.2758,2.2856,2.2647,2.3803,2.4461,2.4712,2.4712,2.4592,2.4348,2.4032,2.3991,2.4116,2.4307,2.4389,2.4389,3.338,3.3499,3.3499,3.3499,3.2961,3.2512,3.2512,3.1958,3.1285,3.0597,3.0068,2.9182,2.7779,2.7601,2.7625,2.7625,2.9658,2.8914,2.4209,2.6985,2.8206,2.674,2.6605,2.6573,2.6607,2.6556,2.6184,2.5456,2.4019,2.3001,2.2387,2.3291,2.3228,2.2387,2.2321,2.2291,2.231,2.231,2.231,2.231,2.231,2.231,2.231,2.231,2.2003,2.1582,2.1582,2.1337,2.1007,2.1055,2.1337,2.1642,2.1685,2.1998,2.2321,2.231,2.231,2.231,2.231,2.231,2.231,2.231,2.231,2.231,2.231,2.231,2.231,2.231,2.231,2.253,2.3257,2.3393,2.3613,2.432,2.3833,2.324,2.2742,2.2101,2.1936,2.2646,0.0,0.0,2.3363,2.3026,2.3147,0.0,0.0,0.0,0.0,0.0,2.8711,2.4303,2.4948,2.4516,2.2783,2.2124,2.2294,2.3218,2.365,2.3802,2.3719,2.2839,2.303,2.401,2.4191,2.4612,2.5144,2.5182,2.4894,2.4389,2.4348,2.4074,2.3724,2.4241,2.4389,2.4389,3.3577,3.3499,3.3499,3.3499,3.2961,3.2512,3.2512,3.1958,3.1285,3.0597,3.0794,3.0144,2.7823,2.7601,2.7625,2.7625,2.8091,2.7937,2.6714,2.7029,2.7087,2.6723,2.5631,2.521,2.5528,2.5188,2.4644,2.3917,2.3004,2.2755,2.3131,2.2818,2.2948,2.3393,2.2625,2.2288,2.231,2.231,2.231,2.231,2.231,2.231,2.231,2.231,2.2003,2.1582,2.1582,2.1337,2.1086,2.1635,2.1898,2.2068,2.2635,2.2721,2.2563,2.236,2.231,2.231,2.231,2.231,2.231,2.231,2.231,2.231,2.231,2.231,2.231,2.231,2.231,2.253,2.3257,2.3393,2.346,2.363,2.3511,2.3161,2.25,2.2422,2.2641,0.0,2.3459,2.3574,2.3422,2.3533,2.4179,0.0,0.0,2.7175,2.8639,2.9971,2.8932,2.5083,2.567,2.5208,2.3385,2.3147,2.3516,2.4574,2.5186,2.4961,2.4084,2.3936,2.3579,2.3117,2.4413,2.483,2.4632,2.5012,2.4894,2.4348,2.3948,2.3948,2.4241,2.4348,2.4389,2.4389,3.4415,3.4412,3.4322,3.3993,3.3395,3.2856,3.2557,3.1958,3.1405,3.1016,3.1253,3.0929,2.9569,2.8339,2.7603,2.7603,2.7578,2.7609,2.7601,2.8345,2.8139,2.6736,2.5916,2.5428,2.5208,2.5069,2.4475,2.3393,2.2784,2.2696,2.3072,2.2661,2.2774,2.3282,2.2598,2.231,2.231,2.231,2.231,2.231,2.2409,2.2398,2.2338,2.2598,2.2466,2.213,2.2279,2.2207,2.2079,2.246,2.2591,2.2686,2.3076,2.3069,2.2873,2.2563,2.2415,2.2338,2.2436,2.2371,2.2395,2.2733,2.2564,2.2395,2.2733,2.2547,2.2412,2.2733,2.2801,2.3038,2.3765,2.3613,2.3393,2.3393,2.3393,2.3316,2.3117,2.3333,2.3693,2.411,2.419,2.4103,2.3913,2.4062,2.4729,2.6091,2.7075,0.0,2.8951,3.0125,2.9349,2.627,2.6871,2.6514,2.492,2.5044,2.5255,2.555,2.5902,2.5763,2.5186,2.4729,2.4295,2.396,2.4576,2.4672,2.443,2.4697,2.4511,2.4032,2.3991,2.3991,2.4074,2.4307,2.4389,2.4389,3.5385,3.534,3.5055,3.4562,3.3769,3.3036,3.2587,3.1958,3.1482,3.1482,3.149,3.1405,3.1221,2.9051,2.7733,2.8122,2.8129,2.795,2.747,2.9395,2.9384,2.6793,2.6505,2.5931,2.4991,2.5084,2.455,2.3294,2.2962,2.2772,2.2772,2.2772,2.2772,2.2772,2.2544,2.2443,2.2443,2.2443,2.2443,2.247,2.2686,2.2625,2.248,2.2989,2.3021,2.2822,2.3093,2.3189,2.3212,2.3259,2.3277,2.3282,2.3346,2.3323,2.3212,2.2947,2.2616,2.2398,2.2573,2.249,2.2513,2.3342,2.3004,2.2665,2.3393,2.3088,2.2818,2.3427,2.3562,2.3782,2.4509,2.4052,2.363,2.3849,2.3714,2.3726,2.4171,0.0,2.4722,2.5149,2.4932,2.4737,2.4675,2.4706,2.5179,2.6298,2.7577,2.8429,2.8743,2.9952,2.9769,2.7814,2.8148,2.7897,2.6785,2.712,2.6983,2.6471,2.639,2.6362,2.6361,2.5363,2.5105,2.5395,2.4896,2.4585,2.4421,2.4395,2.4074,2.3638,2.4116,2.4032,2.3752,2.4158,2.4307,2.4389,3.5489,3.4592,3.3948,3.4397,3.3021,3.1988,3.2437,3.1958,3.1482,3.1482,3.152,3.1083,2.9978,2.8521,2.8416,3.043,3.0625,2.9576,2.6992,2.7192,2.7205,2.6719,2.5527,2.458,2.4017,2.3448,2.3049,2.2807,2.3025,2.3117,2.3117,2.3117,2.3117,2.3117,2.3087,2.3063,2.3063,2.3063,2.3063,2.3063,2.3093,2.3093,2.3063,2.3165,2.3165,2.3117,2.3165,2.3189,2.3236,2.3522,2.361,2.3671,2.3955,2.3837,2.361,2.3566,2.3117,2.2599,2.2398,2.2321,2.2632,2.3985,2.3765,2.341,2.4154,2.4222,2.4201,2.432,2.4337,2.4543,2.5287,2.4831,2.4729,2.5981,2.5135,2.4557,2.5263,0.0,2.509,2.5465,2.572,2.575,2.5471,2.5689,2.6195,2.7061,2.7307,2.8243,3.0162,2.9753,2.9576,2.9821,2.8876,2.8236,2.7961,2.8003,2.7954,2.7814,2.7356,2.6862,2.6377,2.6253,2.5954,2.559,2.5905,2.5483,2.4536,2.4445,2.4074,2.3595,2.3681,2.3948,2.4225,2.3879,2.3991,2.4348,3.4951,3.4367,3.4008,3.4412,3.4023,3.3529,3.311,3.2482,3.206,3.2257,3.1835,3.125,3.052,2.9927,3.0,3.1099,3.1191,3.0593,2.9218,2.9097,2.839,2.6751,2.5295,2.4292,2.3852,2.3108,2.2797,2.2972,2.3323,2.3459,2.3459,2.3459,2.3459,2.3459,2.3277,2.3247,2.3352,2.3352,2.3352,2.3374,2.3676,2.3614,2.3414,2.3749,2.3787,2.3645,2.3717,2.3735,2.3774,2.3917,2.3976,2.3996,2.4151,2.4094,2.3937,2.3735,2.323,2.2721,2.2864,2.3056,2.3511,2.4774,2.4692,2.4452,2.4978,2.478,2.4625,2.5,2.5084,2.5321,2.6065,2.5592,2.5535,2.6847,2.6141,2.5906,2.7278,2.7126,2.6916,2.7087,2.745,2.7453,2.6843,2.7301,2.781,2.8186,2.8562,2.921,3.027,2.9989,2.9947,3.0293,2.9737,2.9214,2.8751,2.8751,2.8575,2.8207,2.7656,2.7239,2.7066,2.6685,2.6367,2.6001,2.5564,2.5056,2.4463,2.4128,2.3837,2.3595,2.3595,2.3752,2.3948,2.3681,2.3752,2.3906,3.4529,3.4117,3.3903,3.4188,3.4442,3.434,3.3623,3.2915,3.26,3.2843,3.2391,3.1799,3.1294,3.1223,3.1188,3.1189,3.1204,3.119,3.119,3.0898,2.9488,2.6797,2.5278,2.4232,2.3745,2.323,2.3069,2.3323,2.3649,2.3816,2.3816,2.3816,2.384,2.3862,2.3617,2.3608,2.38,2.38,2.38,2.3838,2.4239,2.417,2.3857,2.4317,2.4336,2.4118,2.4172,2.419,2.419,2.419,2.419,2.419,2.419,2.419,2.4113,2.3795,2.3277,2.2955,2.3687,2.3991,2.4416,2.5781,2.5806,2.5588,2.5914,2.57,2.5533,2.5998,2.6268,2.6556,2.7131,2.6842,2.6853,2.7851,0.0,2.7548,2.9127,2.8876,2.8526,2.8526,2.8816,2.8755,2.8146,2.8636,2.9059,2.9228,2.9786,3.0176,3.0362,3.0318,3.0293,3.0293,3.0293,3.0112,2.9672,2.9675,2.9368,2.8764,2.832,2.8045,2.8027,2.7638,2.7242,2.6785,2.5722,2.5032,2.4581,2.3912,2.3595,2.3595,2.3595,2.3681,2.3794,2.3794,2.3879,2.3948,3.4531,3.3484,3.2841,3.3455,3.2602,3.2206,3.3336,3.2971,3.2648,3.2855,3.321,3.2914,3.1531,3.1292,3.1189,3.1213,3.119,3.119,3.119,2.9896,2.8423,2.6772,2.5224,2.4043,2.3265,2.3495,2.3649,2.3671,2.3996,2.417,2.417,2.417,2.4247,2.4425,2.4408,2.4524,2.4693,2.4693,2.4693,2.4708,2.4756,2.4741,2.4678,2.4543,2.4476,2.4444,2.4266,2.419,2.419,2.419,2.419,2.419,2.419,2.419,2.4113,2.3795,2.3455,2.3483,2.4935,2.4855,2.4898,2.7187,2.7214,2.676,2.7105,2.7656,2.8027,2.7708,2.823,2.8755,2.8805,2.9093,2.9455,2.983,0.0,0.0,2.9952,2.9403,2.8963,2.8963,2.8977,2.8958,2.8907,2.8994,2.9262,2.9973,3.0074,3.0395,3.1072,3.0584,3.0293,3.0293,3.0293,3.0543,3.1067,3.1115,3.0826,3.0143,3.0164,2.9844,2.9271,2.98,2.9335,2.8136,2.746,2.6467,2.525,2.4066,2.3595,2.3595,2.3595,2.3906,2.4348,2.4348,2.4672,2.5012,3.4534,3.3559,3.3048,3.3995,3.4125,3.4067,3.4178,3.3852,3.3658,3.3763,3.2884,3.259,3.3347,3.1701,3.0504,3.0524,3.0681,3.0905,3.1289,2.9572,2.7689,2.5842,2.5335,2.4605,2.3518,2.3631,2.3795,2.4016,2.4151,2.419,2.419,2.419,2.4303,2.4495,2.4495,2.4666,2.4911,2.4911,2.4911,2.4924,2.5061,2.5037,2.4917,2.4741,2.4741,2.4747,2.4357,2.4284,2.4357,2.4247,2.419,2.419,2.419,2.419,2.417,2.4054,2.3917,2.4161,2.5756,2.584,2.5864,2.7475,2.7834,2.7718,2.737,2.7528,2.7747,2.7792,2.8061,2.8489,2.9231,2.9505,2.9983,3.1164,0.0,3.0354,3.1429,3.0663,2.993,2.9705,3.0074,3.0176,2.9736,3.0091,3.048,3.0768,3.0784,3.0903,3.119,3.0975,3.0878,3.0878,3.0878,3.0975,3.119,3.0842,3.0573,3.0309,2.9948,2.9662,2.9406,2.9629,2.9172,2.8143,2.7683,2.6871,2.5847,2.5037,2.4732,2.4729,2.4642,2.4712,2.491,2.491,2.5028,2.5182,3.4969,3.4062,3.3482,3.3958,3.4694,3.4998,3.437,3.4441,3.4576,3.4705,3.3567,3.2984,3.3546,3.2196,3.0967,3.0178,3.0274,3.0384,3.042,2.8717,2.703,2.5511,2.5303,2.4806,2.3979,2.4003,2.4174,2.4393,2.4393,2.4393,2.4393,2.4393,2.4476,2.4666,2.4666,2.4818,2.5099,2.5099,2.5099,2.5099,2.5234,2.5173,2.4998,2.4904,2.4891,2.4872,2.4442,2.4375,2.4461,2.4266,2.419,2.419,2.419,2.419,2.419,2.419,2.4373,2.4869,2.6227,2.6629,2.6879,2.7985,2.8412,2.842,2.7805,2.7853,2.8137,2.8473,2.8733,2.9248,3.0296,3.0618,3.0988,3.1872,3.1404,3.1217,3.1969,3.1356,3.0785,3.0789,3.1021,3.1089,3.0818,3.1241,3.1444,3.1207,3.141,3.1427,3.1207,3.119,3.119,3.119,3.119,3.119,3.119,3.0792,3.0608,3.0576,3.0163,2.9988,2.9995,2.9995,2.951,2.8688,2.8271,2.7578,2.6776,2.5983,2.5681,2.566,2.5353,2.5221,2.5221,2.5373,2.5449,2.5449,3.5712,3.4939,3.4003,3.3077,3.3675,3.4169,3.3703,3.457,3.5343,3.5568,3.5592,3.4481,3.1547,3.2741,3.2781,3.0327,3.0112,2.9575,2.8379,2.7231,2.6424,2.6026,2.5115,2.458,2.4512,2.47,2.4804,2.4804,2.4804,2.4804,2.4804,2.4804,2.4864,2.501,2.501,2.5111,2.5303,2.5303,2.5303,2.5303,2.5303,2.5173,2.501,2.501,2.493,2.4775,2.4559,2.4495,2.4461,2.4266,2.419,2.419,2.419,2.419,2.419,2.419,2.4759,2.5586,2.6374,2.7181,2.7989,2.8792,2.8994,2.8887,2.8471,2.9025,2.9727,3.0118,3.0787,3.1547,3.2376,3.289,3.2903,3.1951,3.2196,3.2196,3.1329,3.119,3.1461,3.2188,3.163,3.1478,3.2205,3.2273,3.1968,3.1258,3.1867,3.1952,3.1241,3.119,3.119,3.119,3.119,3.119,3.119,3.129,3.129,3.1207,3.1264,3.1257,3.119,3.119,3.0801,3.007,2.9536,2.889,2.8108,2.6823,2.6294,2.6214,2.5493,2.5221,2.5297,2.5815,2.6013,2.6013,3.5652,3.5404,3.5115,3.4847,3.4773,3.4943,3.5322,3.4973,3.4688,3.4765,3.3832,3.2942,3.2314,3.1532,3.0983,3.0823,3.0118,2.8944,2.7214,2.7052,2.6726,2.6022,2.5729,2.5317,2.4716,2.4775,2.4804,2.4804,2.4804,2.4804,2.4804,2.4804,2.4864,2.501,2.501,2.5111,2.5303,2.5303,2.5303,2.5303,2.5303,2.5264,2.5203,2.5046,2.5065,2.5103,2.467,2.4591,2.4654,2.4321,2.419,2.419,2.419,2.419,2.419,2.419,2.4759,2.5586,2.6374,2.7181,2.7989,2.8792,2.8994,2.8887,2.8471,2.9034,2.9701,3.01,3.0818,3.1706,3.2809,3.3124,3.3105,3.284,3.2616,3.2282,3.1696,3.1389,3.1275,3.1495,3.1326,3.1275,3.1495,3.1512,3.1427,3.1207,3.1393,3.1427,3.1207,3.119,3.119,3.119,3.119,3.119,3.119,3.1234,3.1234,3.119,3.1234,3.1234,3.119,3.119,3.0801,3.0104,3.0028,2.9552,2.8827,2.7945,2.7571,2.7496,2.6584,2.6245,2.628,2.6436,2.647,2.647,3.5968,3.5582,3.5334,3.5548,3.5214,3.4958,3.5155,3.5187,3.474,3.3647,3.3286,3.2787,3.1887,3.0785,3.0283,3.0784,2.9614,2.859,2.7956,2.7399,2.6858,2.6255,2.6236,2.5823,2.4896,2.4962,2.5006,2.5006,2.5006,2.5006,2.5006,2.5006,2.5037,2.5111,2.5111,2.5192,2.5303,2.5303,2.5303,2.5303,2.5303,2.5253,2.5192,2.5122,2.5152,2.513,2.4756,2.47,2.4746,2.4339,2.419,2.419,2.419,2.441,2.4667,2.4667,2.5456,2.6447,2.6943,2.7658,2.8466,2.9274,2.9232,2.8929,2.8682,2.9257,3.0005,3.0566,3.1301,3.218,3.3245,3.3302,3.3214,3.3214,3.2648,3.2127,3.1861,3.1449,3.1309,3.1596,3.1376,3.1309,3.1596,3.163,3.163,3.163,3.136,3.119,3.119,3.119,3.119,3.119,3.119,3.1326,3.1613,3.1343,3.119,3.119,3.119,3.119,3.119,3.119,3.0954,3.0526,3.0597,3.0392,2.9909,2.8893,2.8439,2.8327,2.7179,2.6691,2.6691,2.6691,2.6691,2.6691,3.6324,3.5443,3.4879,3.5335,3.5004,3.4479,3.3945,3.5202,3.5217,3.2564,3.3593,3.3543,3.0783,3.0433,3.0397,3.0392,2.9009,2.865,2.9859,2.8159,2.6948,2.6621,2.6524,2.603,2.5053,2.5214,2.5303,2.5303,2.5303,2.5303,2.5303,2.5303,2.5303,2.5303,2.5303,2.5303,2.5303,2.5303,2.5303,2.5303,2.5303,2.5203,2.5046,2.5224,2.5192,2.501,2.4869,2.4818,2.4746,2.4339,2.419,2.4208,2.4281,2.4795,2.5421,2.5495,2.6594,2.7787,2.7787,2.8448,2.9292,3.0026,2.9714,2.9195,2.9195,2.9843,3.0613,3.1347,3.2155,3.2944,3.366,3.3494,3.3243,3.3214,3.2466,3.1915,3.1861,3.1507,3.1506,3.2167,3.1636,3.1444,3.2121,3.2188,3.2246,3.2313,3.1664,3.1292,3.1292,3.136,3.136,3.1292,3.136,3.1715,3.2374,3.1664,3.1292,3.1292,3.1224,3.119,3.119,3.119,3.119,3.119,3.119,3.119,3.1089,2.9668,2.9076,2.8941,2.7469,2.686,2.6793,2.6793,2.6759,2.6691,3.4907,3.4783,3.457,3.4258,3.433,3.4476,3.4498,3.4805,3.4583,3.3291,3.3355,3.2958,3.1427,3.0757,3.0407,3.0394,3.0067,2.9971,3.0279,2.8675,2.7371,2.664,2.5947,2.5466,2.5243,2.5274,2.5303,2.5303,2.5303,2.5303,2.5303,2.5303,2.5303,2.5303,2.5303,2.5303,2.5303,2.5303,2.5303,2.5303,2.5303,2.5274,2.5253,2.5274,2.5274,2.5214,2.503,2.4891,2.4746,2.4339,2.419,2.43,2.4924,2.5274,2.5531,2.6153,2.7034,2.7787,2.7787,2.8851,2.9989,3.0173,3.054,3.087,3.087,3.1494,3.2137,3.2302,3.2981,3.3587,3.377,3.3734,3.3578,3.3243,3.3045,3.2777,3.2417,3.1968,3.1728,3.1883,3.1475,3.1258,3.141,3.1427,3.1664,3.2239,3.2138,3.2036,3.2036,3.2611,3.2662,3.207,3.2611,3.3,3.3169,3.2425,3.2036,3.2036,3.1461,3.119,3.119,3.119,3.119,3.119,3.119,3.119,3.1123,3.0226,2.9871,2.977,2.8856,2.8112,2.7571,2.7571,2.7199,2.6691,3.4117,3.4194,3.4165,3.3854,3.4423,3.4944,3.507,3.485,3.4358,3.343,3.2936,3.2226,3.1107,3.2089,3.2167,3.0533,3.0398,3.0398,3.0398,2.9083,2.7967,2.7255,2.639,2.5928,2.5928,2.5514,2.5303,2.5303,2.5303,2.5303,2.5303,2.5303,2.5303,2.5303,2.5303,2.5303,2.5303,2.5303,2.5303,2.5303,2.5303,2.5303,2.5303,2.5303,2.5303,2.5274,2.5077,2.4845,2.4679,2.4855,2.4837,2.4905,2.5713,2.6227,2.6612,2.7053,2.8007,2.8943,2.8943,2.9843,3.0852,3.1256,3.1659,3.1861,3.1476,3.2027,3.2614,3.2614,3.3238,3.3807,3.3807,3.3634,3.365,3.4004,3.3695,3.357,3.3945,3.3244,3.2651,3.2453,3.1863,3.1411,3.123,3.119,3.136,3.1732,3.2349,3.2676,3.2676,3.3374,3.3596,3.3203,3.3311,3.3575,3.3914,3.3186,3.2814,3.2797,3.1715,3.119,3.119,3.119,3.119,3.119,3.119,3.119,3.114,3.0412,3.0108,2.9989,2.8873,2.818,2.7739,2.7418,2.7029,2.6691,3.3707,3.3895,3.3954,3.3954,3.4756,3.5446,3.5493,3.5136,3.4473,3.344,3.2939,3.2092,3.0566,3.2917,3.3474,3.0648,3.0398,3.0398,3.0398,2.939,2.8563,2.8121,2.714,2.6601,2.6601,2.5755,2.536,2.5514,2.536,2.5303,2.5303,2.5303,2.5303,2.5303,2.5303,2.5303,2.5303,2.5303,2.5303,2.5303,2.5303,2.5303,2.5303,2.5303,2.5303,2.5293,2.5283,2.5181,2.5132,2.5757,2.5838,2.5794,2.6604,2.739,2.8026,2.8172,2.9255,3.0411,3.0411,3.098,3.177,3.243,3.2706,3.2632,3.1953,3.2339,3.2852,3.2999,3.355,3.4045,3.4192,3.3941,3.4073,3.5072,3.4617,3.4515,3.5571,3.4727,3.3897,3.3581,3.2824,3.2223,3.1863,3.1842,3.1842,3.1803,3.2913,3.3519,3.3286,3.4213,3.4631,3.4393,3.4174,3.4303,3.4831,3.4075,3.366,3.3575,3.2222,3.1427,3.119,3.119,3.119,3.119,3.119,3.119,3.114,3.0548,3.0294,3.0176,2.889,2.8315,2.8076,2.7215,2.6894,2.686,3.3807,3.4232,3.4591,3.4591,3.4908,3.5223,3.546,3.5441,3.499,3.3871,3.4491,3.3857,3.0744,3.0802,3.0898,3.0436,3.0398,3.0398,3.0398,2.9544,2.9006,2.8929,2.7448,2.6601,2.6601,2.5755,2.5668,2.6428,2.5668,2.5303,2.5303,2.5303,2.5303,2.5303,2.5303,2.5303,2.5303,2.5303,2.5303,2.5303,2.5303,2.5303,2.5303,2.5303,2.5303,2.5399,2.6119,2.6718,2.7162,2.7116,2.6925,2.6842,2.7642,2.8331,2.898,2.9677,3.0522,3.1237,3.1237,3.1825,3.2467,3.2577,3.3128,3.3605,3.3495,3.355,3.3844,3.4513,3.4752,3.5073,3.5826,3.5926,3.5933,3.6101,3.6014,3.6022,3.6161,3.5714,3.5303,3.5289,3.4813,3.4447,3.4412,3.4376,3.4394,3.4305,3.5117,3.5129,3.4025,3.5756,3.6289,3.5174,3.6138,3.6501,3.6153,3.5434,3.4809,3.4336,3.3508,3.2425,3.119,3.119,3.119,3.119,3.119,3.119,3.119,3.1089,3.1055,3.1021,3.0818,3.0362,2.9634,2.8197,2.7637,2.7571,3.3807,3.4005,3.4284,3.4632,3.487,3.5102,3.5446,3.5501,3.5328,3.4834,3.3513,3.209,3.0554,3.0405,3.0398,3.0398,3.0398,3.0398,3.0398,2.9583,2.9102,2.9102,2.7967,2.7544,2.7986,2.7178,2.7159,2.8005,2.6197,2.5303,2.5303,2.5303,2.5303,2.5303,2.5303,2.5303,2.5303,2.5303,2.5303,2.5303,2.5303,2.5303,2.5303,2.5303,2.5591,2.614,2.7005,2.7436,2.7719,2.8551,2.8682,2.8723,2.9983,3.0583,3.0835,3.1036,3.1771,3.2449,3.2145,3.276,3.3451,3.3309,3.388,3.4357,3.3899,3.4523,3.5165,3.5027,3.5404,3.5844,3.6229,3.6303,3.645,3.689,3.6964,3.7129,3.7588,3.7101,3.6406,3.5666,3.5198,3.4906,3.4906,3.4906,3.4906,3.4871,3.5863,3.6219,3.5634,3.6863,3.7345,3.677,3.7033,3.7114,3.6843,3.6232,3.5729,3.534,3.443,3.3237,3.1799,3.1799,3.1579,3.119,3.119,3.119,3.123,3.1449,3.1545,3.1493,3.1065,3.0336,2.9397,2.8721,2.8197,2.7739]}]]